<?xml version='1.0' encoding='UTF-8'?><gpx version="1.1" creator="JPX - https://github.com/jenetics/jpx" xmlns="http://www.topografix.com/GPX/1/1"><trk><trkseg><trkpt lat="43.6487265" lon="11.7261669"><ele>893.0000000000001</ele><time>2026-04-18T12:25:55.498Z</time></trkpt><trkpt lat="43.6486683" lon="11.7262105"><ele>893.0</ele><time>2026-04-18T12:25:56.492Z</time></trkpt><trkpt lat="43.6485995" lon="11.7262396"><ele>893.0</ele><time>2026-04-18T12:25:57.5Z</time></trkpt><trkpt lat="43.6485225" lon="11.7262902"><ele>893.0</ele><time>2026-04-18T12:25:58.506Z</time></trkpt><trkpt lat="43.648447" lon="11.7263354"><ele>893.0000000000001</ele><time>2026-04-18T12:25:59.494Z</time></trkpt><trkpt lat="43.6483647" lon="11.7263878"><ele>893.0</ele><time>2026-04-18T12:26:00.499Z</time></trkpt><trkpt lat="43.6482855" lon="11.7264586"><ele>890.2</ele><time>2026-04-18T12:26:01.496Z</time></trkpt><trkpt lat="43.6482109" lon="11.7265554"><ele>887.4</ele><time>2026-04-18T12:26:02.502Z</time></trkpt><trkpt lat="43.6481502" lon="11.7266731"><ele>884.6000000000001</ele><time>2026-04-18T12:26:03.498Z</time></trkpt><trkpt lat="43.6480992" lon="11.7267955"><ele>881.8000000000001</ele><time>2026-04-18T12:26:04.5Z</time></trkpt><trkpt lat="43.6480558" lon="11.7269121"><ele>879.0</ele><time>2026-04-18T12:26:05.504Z</time></trkpt><trkpt lat="43.6480126" lon="11.7270258"><ele>879.0</ele><time>2026-04-18T12:26:06.504Z</time></trkpt><trkpt lat="43.6479663" lon="11.7271327"><ele>879.0000000000001</ele><time>2026-04-18T12:26:07.497Z</time></trkpt><trkpt lat="43.6479368" lon="11.7272311"><ele>879.0000000000001</ele><time>2026-04-18T12:26:08.502Z</time></trkpt><trkpt lat="43.6479314" lon="11.7273499"><ele>879.0</ele><time>2026-04-18T12:26:10.498Z</time></trkpt><trkpt lat="43.6479323" lon="11.7274489"><ele>879.0</ele><time>2026-04-18T12:26:41.501Z</time></trkpt><trkpt lat="43.6479617" lon="11.7276164"><ele>881.0</ele><time>2026-04-18T12:26:43.492Z</time></trkpt><trkpt lat="43.64793" lon="11.7277755"><ele>883.0</ele><time>2026-04-18T12:26:45.494Z</time></trkpt><trkpt lat="43.6478938" lon="11.7278549"><ele>885.0</ele><time>2026-04-18T12:26:46.5Z</time></trkpt><trkpt lat="43.6478401" lon="11.7279303"><ele>887.0</ele><time>2026-04-18T12:26:47.504Z</time></trkpt><trkpt lat="43.6477663" lon="11.7280049"><ele>889.0</ele><time>2026-04-18T12:26:48.497Z</time></trkpt><trkpt lat="43.6476924" lon="11.7280807"><ele>891.0</ele><time>2026-04-18T12:26:49.505Z</time></trkpt><trkpt lat="43.6476322" lon="11.7281855"><ele>886.0</ele><time>2026-04-18T12:26:50.5Z</time></trkpt><trkpt lat="43.6475674" lon="11.7283057"><ele>881.0</ele><time>2026-04-18T12:26:51.501Z</time></trkpt><trkpt lat="43.6474876" lon="11.7284406"><ele>876.0</ele><time>2026-04-18T12:26:52.496Z</time></trkpt><trkpt lat="43.647391" lon="11.7285675"><ele>871.0</ele><time>2026-04-18T12:26:53.5Z</time></trkpt><trkpt lat="43.647296" lon="11.7286808"><ele>871.0</ele><time>2026-04-18T12:26:54.492Z</time></trkpt><trkpt lat="43.647216" lon="11.7287857"><ele>870.9999999999999</ele><time>2026-04-18T12:26:55.496Z</time></trkpt><trkpt lat="43.6471461" lon="11.7288926"><ele>870.9999999999999</ele><time>2026-04-18T12:26:56.503Z</time></trkpt><trkpt lat="43.647075" lon="11.7289836"><ele>871.0</ele><time>2026-04-18T12:26:57.49Z</time></trkpt><trkpt lat="43.6469965" lon="11.7290662"><ele>871.0</ele><time>2026-04-18T12:26:58.506Z</time></trkpt><trkpt lat="43.6469039" lon="11.7291404"><ele>867.8</ele><time>2026-04-18T12:26:59.499Z</time></trkpt><trkpt lat="43.6468019" lon="11.7291974"><ele>864.5999999999999</ele><time>2026-04-18T12:27:00.5Z</time></trkpt><trkpt lat="43.6467089" lon="11.7292723"><ele>861.4</ele><time>2026-04-18T12:27:01.492Z</time></trkpt><trkpt lat="43.6466319" lon="11.7293532"><ele>858.2</ele><time>2026-04-18T12:27:02.504Z</time></trkpt><trkpt lat="43.6465614" lon="11.729432"><ele>855.0</ele><time>2026-04-18T12:27:03.494Z</time></trkpt><trkpt lat="43.6464904" lon="11.7295192"><ele>855.0</ele><time>2026-04-18T12:27:04.498Z</time></trkpt><trkpt lat="43.6464215" lon="11.7296183"><ele>855.0</ele><time>2026-04-18T12:27:05.506Z</time></trkpt><trkpt lat="43.6463634" lon="11.7297233"><ele>855.0</ele><time>2026-04-18T12:27:06.496Z</time></trkpt><trkpt lat="43.6463177" lon="11.7298204"><ele>855.0</ele><time>2026-04-18T12:27:07.504Z</time></trkpt><trkpt lat="43.6462796" lon="11.7299054"><ele>855.0</ele><time>2026-04-18T12:27:08.506Z</time></trkpt><trkpt lat="43.6462568" lon="11.7299924"><ele>855.0</ele><time>2026-04-18T12:27:09.493Z</time></trkpt><trkpt lat="43.6462892" lon="11.7301324"><ele>855.0</ele><time>2026-04-18T12:27:11.504Z</time></trkpt><trkpt lat="43.6464096" lon="11.7301449"><ele>855.0</ele><time>2026-04-18T12:27:13.516Z</time></trkpt><trkpt lat="43.6464889" lon="11.7301009"><ele>855.0</ele><time>2026-04-18T12:27:14.495Z</time></trkpt><trkpt lat="43.6465789" lon="11.7300577"><ele>855.0</ele><time>2026-04-18T12:27:15.515Z</time></trkpt><trkpt lat="43.6466875" lon="11.7300302"><ele>855.0</ele><time>2026-04-18T12:27:16.508Z</time></trkpt><trkpt lat="43.6468012" lon="11.7300261"><ele>855.0</ele><time>2026-04-18T12:27:17.496Z</time></trkpt><trkpt lat="43.6469243" lon="11.7300534"><ele>855.0</ele><time>2026-04-18T12:27:18.522Z</time></trkpt><trkpt lat="43.6470426" lon="11.7301209"><ele>855.0</ele><time>2026-04-18T12:27:19.503Z</time></trkpt><trkpt lat="43.6471695" lon="11.7301927"><ele>855.0</ele><time>2026-04-18T12:27:20.484Z</time></trkpt><trkpt lat="43.6472861" lon="11.7302493"><ele>853.8</ele><time>2026-04-18T12:27:21.501Z</time></trkpt><trkpt lat="43.6473991" lon="11.7303086"><ele>852.6</ele><time>2026-04-18T12:27:22.491Z</time></trkpt><trkpt lat="43.647503" lon="11.7303702"><ele>851.4000000000001</ele><time>2026-04-18T12:27:23.499Z</time></trkpt><trkpt lat="43.6475957" lon="11.7304418"><ele>850.2</ele><time>2026-04-18T12:27:24.502Z</time></trkpt><trkpt lat="43.6476729" lon="11.7305065"><ele>849.0</ele><time>2026-04-18T12:27:25.49Z</time></trkpt><trkpt lat="43.6477223" lon="11.7306793"><ele>849.0000000000001</ele><time>2026-04-18T12:27:27.492Z</time></trkpt><trkpt lat="43.6477112" lon="11.7307838"><ele>849.0</ele><time>2026-04-18T12:27:28.498Z</time></trkpt><trkpt lat="43.6476953" lon="11.7308764"><ele>849.0</ele><time>2026-04-18T12:27:29.503Z</time></trkpt><trkpt lat="43.6476609" lon="11.7309752"><ele>849.0</ele><time>2026-04-18T12:27:30.5Z</time></trkpt><trkpt lat="43.6476287" lon="11.7310653"><ele>849.0</ele><time>2026-04-18T12:27:31.49Z</time></trkpt><trkpt lat="43.6476036" lon="11.7311539"><ele>849.0000000000001</ele><time>2026-04-18T12:27:32.5Z</time></trkpt><trkpt lat="43.6475825" lon="11.7312589"><ele>849.0</ele><time>2026-04-18T12:27:33.502Z</time></trkpt><trkpt lat="43.6475672" lon="11.7313682"><ele>847.6666666666666</ele><time>2026-04-18T12:27:34.492Z</time></trkpt><trkpt lat="43.6475536" lon="11.7314691"><ele>846.3333333333333</ele><time>2026-04-18T12:27:35.496Z</time></trkpt><trkpt lat="43.6475358" lon="11.7315734"><ele>845.0</ele><time>2026-04-18T12:27:36.499Z</time></trkpt><trkpt lat="43.6475162" lon="11.7316754"><ele>843.6666666666666</ele><time>2026-04-18T12:27:37.495Z</time></trkpt><trkpt lat="43.6474899" lon="11.7317805"><ele>842.3333333333333</ele><time>2026-04-18T12:27:38.495Z</time></trkpt><trkpt lat="43.6474734" lon="11.7318842"><ele>841.0</ele><time>2026-04-18T12:27:39.506Z</time></trkpt><trkpt lat="43.6474528" lon="11.7319933"><ele>840.3333333333333</ele><time>2026-04-18T12:27:40.513Z</time></trkpt><trkpt lat="43.6474397" lon="11.7321031"><ele>839.6666666666666</ele><time>2026-04-18T12:27:41.508Z</time></trkpt><trkpt lat="43.6474312" lon="11.7322189"><ele>839.0</ele><time>2026-04-18T12:27:42.49Z</time></trkpt><trkpt lat="43.6474197" lon="11.7323333"><ele>838.3333333333333</ele><time>2026-04-18T12:27:43.504Z</time></trkpt><trkpt lat="43.6474147" lon="11.7324496"><ele>837.6666666666666</ele><time>2026-04-18T12:27:44.509Z</time></trkpt><trkpt lat="43.6474082" lon="11.732562"><ele>837.0</ele><time>2026-04-18T12:27:45.501Z</time></trkpt><trkpt lat="43.6474064" lon="11.7326625"><ele>835.0</ele><time>2026-04-18T12:27:46.501Z</time></trkpt><trkpt lat="43.6474308" lon="11.732763"><ele>833.0</ele><time>2026-04-18T12:27:47.5Z</time></trkpt><trkpt lat="43.647457" lon="11.7328598"><ele>831.0</ele><time>2026-04-18T12:27:48.498Z</time></trkpt><trkpt lat="43.6474967" lon="11.7329373"><ele>829.0</ele><time>2026-04-18T12:27:49.508Z</time></trkpt><trkpt lat="43.6475461" lon="11.7330021"><ele>827.0</ele><time>2026-04-18T12:27:50.502Z</time></trkpt><trkpt lat="43.647596" lon="11.7330572"><ele>825.0</ele><time>2026-04-18T12:27:51.507Z</time></trkpt><trkpt lat="43.647696" lon="11.7331243"><ele>825.0</ele><time>2026-04-18T12:27:53.514Z</time></trkpt><trkpt lat="43.6477564" lon="11.7331791"><ele>825.0</ele><time>2026-04-18T12:27:54.495Z</time></trkpt><trkpt lat="43.6478226" lon="11.7332598"><ele>825.0</ele><time>2026-04-18T12:27:55.489Z</time></trkpt><trkpt lat="43.6478683" lon="11.733353"><ele>825.0</ele><time>2026-04-18T12:27:56.5Z</time></trkpt><trkpt lat="43.647888" lon="11.733469"><ele>825.0</ele><time>2026-04-18T12:27:57.494Z</time></trkpt><trkpt lat="43.6478942" lon="11.7335717"><ele>825.0</ele><time>2026-04-18T12:27:58.495Z</time></trkpt><trkpt lat="43.6479055" lon="11.7336729"><ele>826.5</ele><time>2026-04-18T12:27:59.506Z</time></trkpt><trkpt lat="43.647936" lon="11.7337575"><ele>828.0</ele><time>2026-04-18T12:28:00.512Z</time></trkpt><trkpt lat="43.6479845" lon="11.7338325"><ele>829.5</ele><time>2026-04-18T12:28:01.495Z</time></trkpt><trkpt lat="43.6480582" lon="11.7338898"><ele>831.0</ele><time>2026-04-18T12:28:02.495Z</time></trkpt><trkpt lat="43.6481449" lon="11.7339278"><ele>832.5</ele><time>2026-04-18T12:28:03.494Z</time></trkpt><trkpt lat="43.6482488" lon="11.733992"><ele>834.0</ele><time>2026-04-18T12:28:04.499Z</time></trkpt><trkpt lat="43.6483379" lon="11.7340745"><ele>834.0</ele><time>2026-04-18T12:28:05.496Z</time></trkpt><trkpt lat="43.648421" lon="11.7341665"><ele>834.0</ele><time>2026-04-18T12:28:06.499Z</time></trkpt><trkpt lat="43.6484969" lon="11.7342541"><ele>834.0</ele><time>2026-04-18T12:28:07.497Z</time></trkpt><trkpt lat="43.6485487" lon="11.7343568"><ele>834.0</ele><time>2026-04-18T12:28:08.498Z</time></trkpt><trkpt lat="43.6485721" lon="11.7344779"><ele>834.0</ele><time>2026-04-18T12:28:09.489Z</time></trkpt><trkpt lat="43.6485577" lon="11.7345923"><ele>832.6</ele><time>2026-04-18T12:28:10.495Z</time></trkpt><trkpt lat="43.6485171" lon="11.734717"><ele>831.2</ele><time>2026-04-18T12:28:11.496Z</time></trkpt><trkpt lat="43.6484761" lon="11.7348495"><ele>829.8000000000001</ele><time>2026-04-18T12:28:12.49Z</time></trkpt><trkpt lat="43.6484538" lon="11.7349832"><ele>828.4000000000001</ele><time>2026-04-18T12:28:13.495Z</time></trkpt><trkpt lat="43.6484394" lon="11.7351314"><ele>827.0</ele><time>2026-04-18T12:28:14.5Z</time></trkpt><trkpt lat="43.6484296" lon="11.7352948"><ele>826.0</ele><time>2026-04-18T12:28:15.491Z</time></trkpt><trkpt lat="43.6484186" lon="11.7354519"><ele>825.0</ele><time>2026-04-18T12:28:16.497Z</time></trkpt><trkpt lat="43.6484062" lon="11.7355975"><ele>824.0</ele><time>2026-04-18T12:28:17.494Z</time></trkpt><trkpt lat="43.6483935" lon="11.7357312"><ele>823.0</ele><time>2026-04-18T12:28:18.496Z</time></trkpt><trkpt lat="43.6483899" lon="11.7358647"><ele>822.0</ele><time>2026-04-18T12:28:19.501Z</time></trkpt><trkpt lat="43.6483849" lon="11.7359927"><ele>823.1666666666666</ele><time>2026-04-18T12:28:20.499Z</time></trkpt><trkpt lat="43.6483911" lon="11.7361138"><ele>824.3333333333333</ele><time>2026-04-18T12:28:21.498Z</time></trkpt><trkpt lat="43.6484154" lon="11.736214"><ele>825.5</ele><time>2026-04-18T12:28:22.499Z</time></trkpt><trkpt lat="43.6484637" lon="11.7363148"><ele>826.6666666666666</ele><time>2026-04-18T12:28:23.506Z</time></trkpt><trkpt lat="43.6485276" lon="11.7363925"><ele>827.8333333333333</ele><time>2026-04-18T12:28:24.497Z</time></trkpt><trkpt lat="43.6486054" lon="11.7364585"><ele>829.0</ele><time>2026-04-18T12:28:25.494Z</time></trkpt><trkpt lat="43.6486978" lon="11.7365136"><ele>829.0</ele><time>2026-04-18T12:28:26.499Z</time></trkpt><trkpt lat="43.6488173" lon="11.7365856"><ele>829.0</ele><time>2026-04-18T12:28:27.501Z</time></trkpt><trkpt lat="43.6489371" lon="11.7366649"><ele>829.0</ele><time>2026-04-18T12:28:28.502Z</time></trkpt><trkpt lat="43.649047" lon="11.7367658"><ele>829.0</ele><time>2026-04-18T12:28:29.489Z</time></trkpt><trkpt lat="43.6491346" lon="11.7368873"><ele>826.0</ele><time>2026-04-18T12:28:30.519Z</time></trkpt><trkpt lat="43.6491988" lon="11.7370249"><ele>823.0</ele><time>2026-04-18T12:28:31.513Z</time></trkpt><trkpt lat="43.6492294" lon="11.737163"><ele>820.0</ele><time>2026-04-18T12:28:32.504Z</time></trkpt><trkpt lat="43.6492443" lon="11.737307"><ele>817.0</ele><time>2026-04-18T12:28:33.506Z</time></trkpt><trkpt lat="43.6492497" lon="11.7374512"><ele>814.0</ele><time>2026-04-18T12:28:34.507Z</time></trkpt><trkpt lat="43.6492622" lon="11.7375973"><ele>812.6</ele><time>2026-04-18T12:28:35.5Z</time></trkpt><trkpt lat="43.6492788" lon="11.7377297"><ele>811.2</ele><time>2026-04-18T12:28:36.499Z</time></trkpt><trkpt lat="43.6492989" lon="11.7378468"><ele>809.8000000000001</ele><time>2026-04-18T12:28:37.498Z</time></trkpt><trkpt lat="43.6493231" lon="11.7379483"><ele>808.4000000000001</ele><time>2026-04-18T12:28:38.496Z</time></trkpt><trkpt lat="43.6493611" lon="11.7380294"><ele>807.0</ele><time>2026-04-18T12:28:39.5Z</time></trkpt><trkpt lat="43.6494773" lon="11.7380586"><ele>807.0000000000001</ele><time>2026-04-18T12:28:41.489Z</time></trkpt><trkpt lat="43.6495219" lon="11.7379953"><ele>807.0</ele><time>2026-04-18T12:28:42.491Z</time></trkpt><trkpt lat="43.6495493" lon="11.7379037"><ele>807.0</ele><time>2026-04-18T12:28:43.504Z</time></trkpt><trkpt lat="43.6495555" lon="11.7377994"><ele>807.0</ele><time>2026-04-18T12:28:44.492Z</time></trkpt><trkpt lat="43.6495585" lon="11.7377022"><ele>807.0</ele><time>2026-04-18T12:28:45.497Z</time></trkpt><trkpt lat="43.6495754" lon="11.7376088"><ele>807.0000000000001</ele><time>2026-04-18T12:28:46.502Z</time></trkpt><trkpt lat="43.6496034" lon="11.7375259"><ele>807.0</ele><time>2026-04-18T12:28:47.493Z</time></trkpt><trkpt lat="43.6496513" lon="11.737469"><ele>807.0</ele><time>2026-04-18T12:28:48.485Z</time></trkpt><trkpt lat="43.6497197" lon="11.7374576"><ele>807.0</ele><time>2026-04-18T12:28:49.507Z</time></trkpt><trkpt lat="43.6497795" lon="11.737513"><ele>807.0</ele><time>2026-04-18T12:28:50.516Z</time></trkpt><trkpt lat="43.6498223" lon="11.7376104"><ele>807.0</ele><time>2026-04-18T12:28:51.502Z</time></trkpt><trkpt lat="43.649859" lon="11.7377129"><ele>807.0</ele><time>2026-04-18T12:28:52.502Z</time></trkpt><trkpt lat="43.6499071" lon="11.7378254"><ele>807.0</ele><time>2026-04-18T12:28:53.5Z</time></trkpt><trkpt lat="43.6499579" lon="11.7379295"><ele>807.0</ele><time>2026-04-18T12:28:54.503Z</time></trkpt><trkpt lat="43.6500179" lon="11.7380052"><ele>807.0</ele><time>2026-04-18T12:28:55.501Z</time></trkpt><trkpt lat="43.6500885" lon="11.7380465"><ele>807.0</ele><time>2026-04-18T12:28:56.498Z</time></trkpt><trkpt lat="43.6501561" lon="11.7380494"><ele>807.0</ele><time>2026-04-18T12:28:57.494Z</time></trkpt><trkpt lat="43.6502354" lon="11.7380191"><ele>807.0</ele><time>2026-04-18T12:28:58.485Z</time></trkpt><trkpt lat="43.6503158" lon="11.737971"><ele>807.0</ele><time>2026-04-18T12:28:59.493Z</time></trkpt><trkpt lat="43.6504011" lon="11.7379253"><ele>808.4000000000001</ele><time>2026-04-18T12:29:00.507Z</time></trkpt><trkpt lat="43.6505004" lon="11.7379084"><ele>809.8000000000001</ele><time>2026-04-18T12:29:01.499Z</time></trkpt><trkpt lat="43.6506119" lon="11.7379257"><ele>811.2</ele><time>2026-04-18T12:29:02.503Z</time></trkpt><trkpt lat="43.6507161" lon="11.7379571"><ele>812.6</ele><time>2026-04-18T12:29:03.49Z</time></trkpt><trkpt lat="43.6507984" lon="11.7379653"><ele>814.0</ele><time>2026-04-18T12:29:04.497Z</time></trkpt><trkpt lat="43.6508728" lon="11.737939"><ele>813.9999999999999</ele><time>2026-04-18T12:29:05.491Z</time></trkpt><trkpt lat="43.6509471" lon="11.7378968"><ele>814.0</ele><time>2026-04-18T12:29:06.494Z</time></trkpt><trkpt lat="43.6510125" lon="11.7379001"><ele>814.0</ele><time>2026-04-18T12:29:07.494Z</time></trkpt><trkpt lat="43.6510729" lon="11.7379362"><ele>814.0</ele><time>2026-04-18T12:29:08.505Z</time></trkpt><trkpt lat="43.6511106" lon="11.7380449"><ele>813.9999999999999</ele><time>2026-04-18T12:29:09.496Z</time></trkpt><trkpt lat="43.6511032" lon="11.7381628"><ele>814.0</ele><time>2026-04-18T12:29:10.497Z</time></trkpt><trkpt lat="43.6510436" lon="11.7382836"><ele>814.0</ele><time>2026-04-18T12:29:11.49Z</time></trkpt><trkpt lat="43.6509536" lon="11.738394"><ele>814.0</ele><time>2026-04-18T12:29:12.494Z</time></trkpt><trkpt lat="43.6508448" lon="11.7384671"><ele>814.0</ele><time>2026-04-18T12:29:13.509Z</time></trkpt><trkpt lat="43.650742" lon="11.738545"><ele>814.0</ele><time>2026-04-18T12:29:14.507Z</time></trkpt><trkpt lat="43.6506289" lon="11.7386355"><ele>812.0</ele><time>2026-04-18T12:29:15.497Z</time></trkpt><trkpt lat="43.6505174" lon="11.738735"><ele>810.0</ele><time>2026-04-18T12:29:16.499Z</time></trkpt><trkpt lat="43.6504037" lon="11.7388216"><ele>808.0</ele><time>2026-04-18T12:29:17.503Z</time></trkpt><trkpt lat="43.6502928" lon="11.7389187"><ele>806.0</ele><time>2026-04-18T12:29:18.491Z</time></trkpt><trkpt lat="43.6501819" lon="11.7390079"><ele>806.0</ele><time>2026-04-18T12:29:19.5Z</time></trkpt><trkpt lat="43.6500622" lon="11.7390927"><ele>806.0</ele><time>2026-04-18T12:29:20.495Z</time></trkpt><trkpt lat="43.649937" lon="11.7391721"><ele>806.0</ele><time>2026-04-18T12:29:21.496Z</time></trkpt><trkpt lat="43.6498176" lon="11.7392449"><ele>806.0</ele><time>2026-04-18T12:29:22.497Z</time></trkpt><trkpt lat="43.6497076" lon="11.7393079"><ele>806.0</ele><time>2026-04-18T12:29:23.5Z</time></trkpt><trkpt lat="43.6496147" lon="11.7393649"><ele>806.0</ele><time>2026-04-18T12:29:24.489Z</time></trkpt><trkpt lat="43.6495707" lon="11.7394608"><ele>806.0</ele><time>2026-04-18T12:29:25.485Z</time></trkpt><trkpt lat="43.6495316" lon="11.7395917"><ele>806.0</ele><time>2026-04-18T12:29:26.487Z</time></trkpt><trkpt lat="43.6494925" lon="11.739736"><ele>806.0</ele><time>2026-04-18T12:29:27.496Z</time></trkpt><trkpt lat="43.6494286" lon="11.7398319"><ele>806.1999999999999</ele><time>2026-04-18T12:29:28.488Z</time></trkpt><trkpt lat="43.6493403" lon="11.7399046"><ele>806.4</ele><time>2026-04-18T12:29:29.487Z</time></trkpt><trkpt lat="43.6492522" lon="11.7399497"><ele>806.6</ele><time>2026-04-18T12:29:30.486Z</time></trkpt><trkpt lat="43.6491417" lon="11.7399604"><ele>806.8</ele><time>2026-04-18T12:29:31.49Z</time></trkpt><trkpt lat="43.6490266" lon="11.7399289"><ele>807.0</ele><time>2026-04-18T12:29:32.486Z</time></trkpt><trkpt lat="43.6489167" lon="11.7398955"><ele>807.0</ele><time>2026-04-18T12:29:33.509Z</time></trkpt><trkpt lat="43.64881" lon="11.7398864"><ele>807.0</ele><time>2026-04-18T12:29:34.503Z</time></trkpt><trkpt lat="43.6487002" lon="11.7398975"><ele>807.0</ele><time>2026-04-18T12:29:35.502Z</time></trkpt><trkpt lat="43.6485873" lon="11.7399196"><ele>807.0</ele><time>2026-04-18T12:29:36.492Z</time></trkpt><trkpt lat="43.6484908" lon="11.7399512"><ele>807.0</ele><time>2026-04-18T12:29:37.495Z</time></trkpt><trkpt lat="43.6483981" lon="11.7399918"><ele>804.6666666666666</ele><time>2026-04-18T12:29:38.498Z</time></trkpt><trkpt lat="43.6483127" lon="11.7400408"><ele>802.3333333333333</ele><time>2026-04-18T12:29:39.511Z</time></trkpt><trkpt lat="43.6482324" lon="11.7401092"><ele>800.0</ele><time>2026-04-18T12:29:40.487Z</time></trkpt><trkpt lat="43.6481639" lon="11.7401618"><ele>797.6666666666666</ele><time>2026-04-18T12:29:41.499Z</time></trkpt><trkpt lat="43.6480854" lon="11.7402091"><ele>795.3333333333333</ele><time>2026-04-18T12:29:42.496Z</time></trkpt><trkpt lat="43.6480175" lon="11.7401995"><ele>793.0</ele><time>2026-04-18T12:29:43.497Z</time></trkpt><trkpt lat="43.6479492" lon="11.7401439"><ele>793.0</ele><time>2026-04-18T12:29:44.493Z</time></trkpt><trkpt lat="43.647881" lon="11.7400745"><ele>793.0</ele><time>2026-04-18T12:29:45.491Z</time></trkpt><trkpt lat="43.6478002" lon="11.7400378"><ele>793.0</ele><time>2026-04-18T12:29:46.501Z</time></trkpt><trkpt lat="43.6477046" lon="11.7400276"><ele>793.0</ele><time>2026-04-18T12:29:47.49Z</time></trkpt><trkpt lat="43.6476209" lon="11.7400191"><ele>793.0</ele><time>2026-04-18T12:29:48.494Z</time></trkpt><trkpt lat="43.6475149" lon="11.740032"><ele>788.75</ele><time>2026-04-18T12:29:49.494Z</time></trkpt><trkpt lat="43.6474053" lon="11.7400734"><ele>784.5</ele><time>2026-04-18T12:29:50.509Z</time></trkpt><trkpt lat="43.6472967" lon="11.7401307"><ele>780.25</ele><time>2026-04-18T12:29:51.489Z</time></trkpt><trkpt lat="43.6471856" lon="11.7401973"><ele>776.0</ele><time>2026-04-18T12:29:52.492Z</time></trkpt><trkpt lat="43.6470721" lon="11.7402654"><ele>779.0</ele><time>2026-04-18T12:29:53.49Z</time></trkpt><trkpt lat="43.6469602" lon="11.7403415"><ele>782.0</ele><time>2026-04-18T12:29:54.49Z</time></trkpt><trkpt lat="43.6468538" lon="11.7404174"><ele>785.0</ele><time>2026-04-18T12:29:55.487Z</time></trkpt><trkpt lat="43.6467364" lon="11.7404832"><ele>788.0</ele><time>2026-04-18T12:29:56.5Z</time></trkpt><trkpt lat="43.6466175" lon="11.7405455"><ele>788.0</ele><time>2026-04-18T12:29:57.491Z</time></trkpt><trkpt lat="43.6465003" lon="11.7406117"><ele>788.0</ele><time>2026-04-18T12:29:58.488Z</time></trkpt><trkpt lat="43.6463856" lon="11.7406781"><ele>788.0</ele><time>2026-04-18T12:29:59.491Z</time></trkpt><trkpt lat="43.6462799" lon="11.7407378"><ele>788.0</ele><time>2026-04-18T12:30:00.491Z</time></trkpt><trkpt lat="43.6461791" lon="11.7408003"><ele>783.8</ele><time>2026-04-18T12:30:01.501Z</time></trkpt><trkpt lat="43.6460776" lon="11.7408483"><ele>779.5999999999999</ele><time>2026-04-18T12:30:02.494Z</time></trkpt><trkpt lat="43.6459712" lon="11.7408749"><ele>775.4000000000001</ele><time>2026-04-18T12:30:03.487Z</time></trkpt><trkpt lat="43.6458629" lon="11.7408949"><ele>771.2</ele><time>2026-04-18T12:30:04.501Z</time></trkpt><trkpt lat="43.6457506" lon="11.7409018"><ele>767.0</ele><time>2026-04-18T12:30:05.503Z</time></trkpt><trkpt lat="43.6456398" lon="11.7408992"><ele>767.0</ele><time>2026-04-18T12:30:06.486Z</time></trkpt><trkpt lat="43.6455221" lon="11.7408971"><ele>767.0</ele><time>2026-04-18T12:30:07.493Z</time></trkpt><trkpt lat="43.645406" lon="11.7409192"><ele>767.0</ele><time>2026-04-18T12:30:08.498Z</time></trkpt><trkpt lat="43.6452857" lon="11.7409793"><ele>767.0</ele><time>2026-04-18T12:30:09.492Z</time></trkpt><trkpt lat="43.6451686" lon="11.7410537"><ele>768.4000000000001</ele><time>2026-04-18T12:30:10.495Z</time></trkpt><trkpt lat="43.6450513" lon="11.7411116"><ele>769.8000000000001</ele><time>2026-04-18T12:30:11.49Z</time></trkpt><trkpt lat="43.6449434" lon="11.7411566"><ele>771.2</ele><time>2026-04-18T12:30:12.498Z</time></trkpt><trkpt lat="43.6448457" lon="11.7411875"><ele>772.6</ele><time>2026-04-18T12:30:13.499Z</time></trkpt><trkpt lat="43.644752" lon="11.7412064"><ele>774.0</ele><time>2026-04-18T12:30:14.497Z</time></trkpt><trkpt lat="43.64467" lon="11.7412303"><ele>774.0</ele><time>2026-04-18T12:30:15.493Z</time></trkpt><trkpt lat="43.6445927" lon="11.7412661"><ele>774.0</ele><time>2026-04-18T12:30:16.499Z</time></trkpt><trkpt lat="43.6445163" lon="11.7413165"><ele>774.0</ele><time>2026-04-18T12:30:17.495Z</time></trkpt><trkpt lat="43.6444367" lon="11.7413862"><ele>774.0</ele><time>2026-04-18T12:30:18.495Z</time></trkpt><trkpt lat="43.6443731" lon="11.7414682"><ele>774.0</ele><time>2026-04-18T12:30:19.5Z</time></trkpt><trkpt lat="43.6443107" lon="11.7415707"><ele>774.0</ele><time>2026-04-18T12:30:20.495Z</time></trkpt><trkpt lat="43.6442568" lon="11.7416764"><ele>768.6</ele><time>2026-04-18T12:30:21.498Z</time></trkpt><trkpt lat="43.644211" lon="11.7417891"><ele>763.2</ele><time>2026-04-18T12:30:22.498Z</time></trkpt><trkpt lat="43.6441839" lon="11.741935"><ele>757.8000000000001</ele><time>2026-04-18T12:30:23.488Z</time></trkpt><trkpt lat="43.644171" lon="11.7420825"><ele>752.4000000000001</ele><time>2026-04-18T12:30:24.491Z</time></trkpt><trkpt lat="43.6441577" lon="11.7422197"><ele>747.0</ele><time>2026-04-18T12:30:25.509Z</time></trkpt><trkpt lat="43.6441456" lon="11.7423468"><ele>747.0</ele><time>2026-04-18T12:30:26.493Z</time></trkpt><trkpt lat="43.6441395" lon="11.7424537"><ele>747.0</ele><time>2026-04-18T12:30:27.492Z</time></trkpt><trkpt lat="43.6441524" lon="11.7425475"><ele>747.0</ele><time>2026-04-18T12:30:28.501Z</time></trkpt><trkpt lat="43.6441946" lon="11.7426424"><ele>747.0</ele><time>2026-04-18T12:30:29.497Z</time></trkpt><trkpt lat="43.6442589" lon="11.7427221"><ele>747.0</ele><time>2026-04-18T12:30:30.493Z</time></trkpt><trkpt lat="43.6443286" lon="11.7428197"><ele>747.0</ele><time>2026-04-18T12:30:31.488Z</time></trkpt><trkpt lat="43.6443899" lon="11.7429283"><ele>747.8</ele><time>2026-04-18T12:30:32.516Z</time></trkpt><trkpt lat="43.6444613" lon="11.7430359"><ele>748.6</ele><time>2026-04-18T12:30:33.493Z</time></trkpt><trkpt lat="43.6445268" lon="11.7431368"><ele>749.4</ele><time>2026-04-18T12:30:34.504Z</time></trkpt><trkpt lat="43.6445951" lon="11.7432501"><ele>750.1999999999999</ele><time>2026-04-18T12:30:35.506Z</time></trkpt><trkpt lat="43.6446571" lon="11.7433742"><ele>751.0</ele><time>2026-04-18T12:30:36.495Z</time></trkpt><trkpt lat="43.644727" lon="11.7434763"><ele>748.5</ele><time>2026-04-18T12:30:37.495Z</time></trkpt><trkpt lat="43.6448021" lon="11.7435475"><ele>746.0</ele><time>2026-04-18T12:30:38.499Z</time></trkpt><trkpt lat="43.6448845" lon="11.7435832"><ele>743.5</ele><time>2026-04-18T12:30:39.499Z</time></trkpt><trkpt lat="43.6449742" lon="11.74358"><ele>741.0</ele><time>2026-04-18T12:30:40.494Z</time></trkpt><trkpt lat="43.6450523" lon="11.743608"><ele>738.5</ele><time>2026-04-18T12:30:41.512Z</time></trkpt><trkpt lat="43.6451179" lon="11.7436648"><ele>736.0</ele><time>2026-04-18T12:30:42.491Z</time></trkpt><trkpt lat="43.6451558" lon="11.7437393"><ele>736.0</ele><time>2026-04-18T12:30:43.493Z</time></trkpt><trkpt lat="43.6451627" lon="11.7438272"><ele>736.0</ele><time>2026-04-18T12:30:44.503Z</time></trkpt><trkpt lat="43.64517" lon="11.7439247"><ele>736.0</ele><time>2026-04-18T12:30:45.493Z</time></trkpt><trkpt lat="43.6451863" lon="11.7440599"><ele>736.0</ele><time>2026-04-18T12:30:46.488Z</time></trkpt><trkpt lat="43.6451963" lon="11.744195"><ele>736.0</ele><time>2026-04-18T12:30:47.499Z</time></trkpt><trkpt lat="43.6451768" lon="11.7443284"><ele>736.0</ele><time>2026-04-18T12:30:48.502Z</time></trkpt><trkpt lat="43.6451402" lon="11.7444406"><ele>734.1999999999999</ele><time>2026-04-18T12:30:49.497Z</time></trkpt><trkpt lat="43.6451038" lon="11.7445614"><ele>732.4</ele><time>2026-04-18T12:30:50.498Z</time></trkpt><trkpt lat="43.645079" lon="11.7446846"><ele>730.6</ele><time>2026-04-18T12:30:51.497Z</time></trkpt><trkpt lat="43.6450701" lon="11.744811"><ele>728.8</ele><time>2026-04-18T12:30:52.501Z</time></trkpt><trkpt lat="43.6450817" lon="11.7449289"><ele>727.0</ele><time>2026-04-18T12:30:53.503Z</time></trkpt><trkpt lat="43.6451102" lon="11.7450391"><ele>727.0</ele><time>2026-04-18T12:30:54.496Z</time></trkpt><trkpt lat="43.6451468" lon="11.7451297"><ele>727.0</ele><time>2026-04-18T12:30:55.504Z</time></trkpt><trkpt lat="43.6451748" lon="11.7452283"><ele>727.0</ele><time>2026-04-18T12:30:56.496Z</time></trkpt><trkpt lat="43.6451885" lon="11.7453214"><ele>727.0</ele><time>2026-04-18T12:30:57.496Z</time></trkpt><trkpt lat="43.6451244" lon="11.7454639"><ele>727.0</ele><time>2026-04-18T12:30:59.503Z</time></trkpt><trkpt lat="43.6450616" lon="11.7454851"><ele>727.0</ele><time>2026-04-18T12:31:00.506Z</time></trkpt><trkpt lat="43.6449941" lon="11.7454474"><ele>727.0</ele><time>2026-04-18T12:31:01.495Z</time></trkpt><trkpt lat="43.6449387" lon="11.7453822"><ele>727.0</ele><time>2026-04-18T12:31:02.512Z</time></trkpt><trkpt lat="43.6449178" lon="11.7452976"><ele>727.0</ele><time>2026-04-18T12:31:03.491Z</time></trkpt><trkpt lat="43.6449198" lon="11.7451924"><ele>727.0</ele><time>2026-04-18T12:31:04.502Z</time></trkpt><trkpt lat="43.6449109" lon="11.7450895"><ele>727.0</ele><time>2026-04-18T12:31:05.499Z</time></trkpt><trkpt lat="43.6448986" lon="11.7449615"><ele>727.0</ele><time>2026-04-18T12:31:06.498Z</time></trkpt><trkpt lat="43.6448868" lon="11.7448392"><ele>727.0</ele><time>2026-04-18T12:31:07.499Z</time></trkpt><trkpt lat="43.6448825" lon="11.74471"><ele>727.0</ele><time>2026-04-18T12:31:08.495Z</time></trkpt><trkpt lat="43.6448871" lon="11.7445889"><ele>727.0</ele><time>2026-04-18T12:31:09.494Z</time></trkpt><trkpt lat="43.6448816" lon="11.7444724"><ele>727.0</ele><time>2026-04-18T12:31:10.502Z</time></trkpt><trkpt lat="43.644854" lon="11.7443849"><ele>727.0</ele><time>2026-04-18T12:31:11.497Z</time></trkpt><trkpt lat="43.6448051" lon="11.7443149"><ele>727.0</ele><time>2026-04-18T12:31:12.511Z</time></trkpt><trkpt lat="43.6447318" lon="11.7442895"><ele>727.0</ele><time>2026-04-18T12:31:13.498Z</time></trkpt><trkpt lat="43.6446561" lon="11.7443113"><ele>727.0</ele><time>2026-04-18T12:31:14.501Z</time></trkpt><trkpt lat="43.6446088" lon="11.7443738"><ele>727.0</ele><time>2026-04-18T12:31:15.494Z</time></trkpt><trkpt lat="43.6445602" lon="11.7444381"><ele>727.0</ele><time>2026-04-18T12:31:16.501Z</time></trkpt><trkpt lat="43.6445114" lon="11.7444965"><ele>727.0</ele><time>2026-04-18T12:31:17.498Z</time></trkpt><trkpt lat="43.6444484" lon="11.7445427"><ele>727.0</ele><time>2026-04-18T12:31:18.498Z</time></trkpt><trkpt lat="43.6443623" lon="11.744532"><ele>727.0</ele><time>2026-04-18T12:31:19.503Z</time></trkpt><trkpt lat="43.6442948" lon="11.7444857"><ele>724.2</ele><time>2026-04-18T12:31:20.488Z</time></trkpt><trkpt lat="43.6442406" lon="11.7443938"><ele>721.4000000000001</ele><time>2026-04-18T12:31:21.489Z</time></trkpt><trkpt lat="43.6441974" lon="11.7442934"><ele>718.5999999999999</ele><time>2026-04-18T12:31:22.492Z</time></trkpt><trkpt lat="43.6441658" lon="11.744173"><ele>715.8</ele><time>2026-04-18T12:31:23.501Z</time></trkpt><trkpt lat="43.644134" lon="11.7440492"><ele>713.0</ele><time>2026-04-18T12:31:24.504Z</time></trkpt><trkpt lat="43.6440818" lon="11.7439388"><ele>713.0</ele><time>2026-04-18T12:31:25.491Z</time></trkpt><trkpt lat="43.6440172" lon="11.7438477"><ele>713.0</ele><time>2026-04-18T12:31:26.493Z</time></trkpt><trkpt lat="43.6439498" lon="11.7437906"><ele>713.0</ele><time>2026-04-18T12:31:27.497Z</time></trkpt><trkpt lat="43.643875" lon="11.7437569"><ele>713.0</ele><time>2026-04-18T12:31:28.499Z</time></trkpt><trkpt lat="43.6437945" lon="11.7437545"><ele>713.0</ele><time>2026-04-18T12:31:29.497Z</time></trkpt><trkpt lat="43.6437122" lon="11.7437812"><ele>713.0</ele><time>2026-04-18T12:31:30.503Z</time></trkpt><trkpt lat="43.6436294" lon="11.7438143"><ele>709.8333333333333</ele><time>2026-04-18T12:31:31.495Z</time></trkpt><trkpt lat="43.6435489" lon="11.7438575"><ele>706.6666666666666</ele><time>2026-04-18T12:31:32.502Z</time></trkpt><trkpt lat="43.643467" lon="11.7438824"><ele>703.5</ele><time>2026-04-18T12:31:33.51Z</time></trkpt><trkpt lat="43.6433876" lon="11.7439125"><ele>700.3333333333334</ele><time>2026-04-18T12:31:34.492Z</time></trkpt><trkpt lat="43.6433084" lon="11.7439222"><ele>697.1666666666667</ele><time>2026-04-18T12:31:35.501Z</time></trkpt><trkpt lat="43.6432183" lon="11.7439016"><ele>694.0</ele><time>2026-04-18T12:31:36.48Z</time></trkpt><trkpt lat="43.6431371" lon="11.7438363"><ele>694.0</ele><time>2026-04-18T12:31:37.499Z</time></trkpt><trkpt lat="43.643079" lon="11.7437334"><ele>694.0</ele><time>2026-04-18T12:31:38.501Z</time></trkpt><trkpt lat="43.6430531" lon="11.7436021"><ele>694.0</ele><time>2026-04-18T12:31:39.497Z</time></trkpt><trkpt lat="43.6430445" lon="11.7434689"><ele>694.0</ele><time>2026-04-18T12:31:40.495Z</time></trkpt><trkpt lat="43.6430433" lon="11.7433317"><ele>694.0</ele><time>2026-04-18T12:31:41.491Z</time></trkpt><trkpt lat="43.643045" lon="11.7431829"><ele>698.25</ele><time>2026-04-18T12:31:42.488Z</time></trkpt><trkpt lat="43.6430267" lon="11.7430337"><ele>702.5</ele><time>2026-04-18T12:31:43.505Z</time></trkpt><trkpt lat="43.6429797" lon="11.7428881"><ele>706.75</ele><time>2026-04-18T12:31:44.502Z</time></trkpt><trkpt lat="43.6429333" lon="11.7427339"><ele>711.0</ele><time>2026-04-18T12:31:45.495Z</time></trkpt><trkpt lat="43.6429032" lon="11.7425751"><ele>711.0</ele><time>2026-04-18T12:31:46.505Z</time></trkpt><trkpt lat="43.6429185" lon="11.7424306"><ele>711.0</ele><time>2026-04-18T12:31:47.491Z</time></trkpt><trkpt lat="43.6429403" lon="11.7423078"><ele>711.0</ele><time>2026-04-18T12:31:48.492Z</time></trkpt><trkpt lat="43.6429604" lon="11.7422201"><ele>711.0</ele><time>2026-04-18T12:31:49.507Z</time></trkpt><trkpt lat="43.6429407" lon="11.7420668"><ele>711.0</ele><time>2026-04-18T12:31:51.496Z</time></trkpt><trkpt lat="43.6428859" lon="11.7420142"><ele>711.0</ele><time>2026-04-18T12:31:52.495Z</time></trkpt><trkpt lat="43.6428177" lon="11.7420031"><ele>711.0</ele><time>2026-04-18T12:31:53.503Z</time></trkpt><trkpt lat="43.6427357" lon="11.7421446"><ele>711.0</ele><time>2026-04-18T12:31:55.502Z</time></trkpt><trkpt lat="43.6427507" lon="11.7422672"><ele>711.0</ele><time>2026-04-18T12:31:56.487Z</time></trkpt><trkpt lat="43.6427922" lon="11.7423886"><ele>711.0</ele><time>2026-04-18T12:31:57.488Z</time></trkpt><trkpt lat="43.6427993" lon="11.7425205"><ele>711.0</ele><time>2026-04-18T12:31:58.491Z</time></trkpt><trkpt lat="43.6427495" lon="11.7426521"><ele>705.5999999999999</ele><time>2026-04-18T12:31:59.498Z</time></trkpt><trkpt lat="43.6426896" lon="11.7427653"><ele>700.2</ele><time>2026-04-18T12:32:00.479Z</time></trkpt><trkpt lat="43.6426413" lon="11.7428767"><ele>694.8</ele><time>2026-04-18T12:32:01.501Z</time></trkpt><trkpt lat="43.6426035" lon="11.7429802"><ele>689.4000000000001</ele><time>2026-04-18T12:32:02.512Z</time></trkpt><trkpt lat="43.6425991" lon="11.7430981"><ele>684.0</ele><time>2026-04-18T12:32:03.499Z</time></trkpt><trkpt lat="43.6426139" lon="11.7432162"><ele>684.0</ele><time>2026-04-18T12:32:04.486Z</time></trkpt><trkpt lat="43.6426561" lon="11.7433541"><ele>684.0</ele><time>2026-04-18T12:32:05.491Z</time></trkpt><trkpt lat="43.6426891" lon="11.7435049"><ele>684.0</ele><time>2026-04-18T12:32:06.501Z</time></trkpt><trkpt lat="43.6427114" lon="11.7436595"><ele>684.0</ele><time>2026-04-18T12:32:07.497Z</time></trkpt><trkpt lat="43.6427403" lon="11.7438067"><ele>684.0</ele><time>2026-04-18T12:32:08.491Z</time></trkpt><trkpt lat="43.6427609" lon="11.7439551"><ele>681.75</ele><time>2026-04-18T12:32:09.482Z</time></trkpt><trkpt lat="43.6427898" lon="11.7441045"><ele>679.5</ele><time>2026-04-18T12:32:10.498Z</time></trkpt><trkpt lat="43.6428462" lon="11.7442644"><ele>677.25</ele><time>2026-04-18T12:32:11.503Z</time></trkpt><trkpt lat="43.6429009" lon="11.7444378"><ele>675.0</ele><time>2026-04-18T12:32:12.484Z</time></trkpt><trkpt lat="43.64295" lon="11.7446136"><ele>675.0</ele><time>2026-04-18T12:32:13.492Z</time></trkpt><trkpt lat="43.6429949" lon="11.7447878"><ele>675.0</ele><time>2026-04-18T12:32:14.498Z</time></trkpt><trkpt lat="43.6430454" lon="11.7449486"><ele>675.0</ele><time>2026-04-18T12:32:15.5Z</time></trkpt><trkpt lat="43.6430917" lon="11.7450988"><ele>675.0</ele><time>2026-04-18T12:32:16.491Z</time></trkpt><trkpt lat="43.6431372" lon="11.7452394"><ele>672.6</ele><time>2026-04-18T12:32:17.496Z</time></trkpt><trkpt lat="43.6431968" lon="11.7453444"><ele>670.2</ele><time>2026-04-18T12:32:18.503Z</time></trkpt><trkpt lat="43.6432751" lon="11.7454364"><ele>667.8</ele><time>2026-04-18T12:32:19.489Z</time></trkpt><trkpt lat="43.6433734" lon="11.7454999"><ele>665.4</ele><time>2026-04-18T12:32:20.506Z</time></trkpt><trkpt lat="43.6434645" lon="11.7455384"><ele>663.0</ele><time>2026-04-18T12:32:21.493Z</time></trkpt><trkpt lat="43.6435424" lon="11.7455849"><ele>663.0</ele><time>2026-04-18T12:32:22.501Z</time></trkpt><trkpt lat="43.6436002" lon="11.7456594"><ele>663.0</ele><time>2026-04-18T12:32:23.503Z</time></trkpt><trkpt lat="43.6436224" lon="11.7457713"><ele>663.0</ele><time>2026-04-18T12:32:24.502Z</time></trkpt><trkpt lat="43.6436138" lon="11.7459015"><ele>663.0</ele><time>2026-04-18T12:32:25.488Z</time></trkpt><trkpt lat="43.6435892" lon="11.7460414"><ele>663.0</ele><time>2026-04-18T12:32:26.494Z</time></trkpt><trkpt lat="43.6435658" lon="11.7461855"><ele>660.8</ele><time>2026-04-18T12:32:27.496Z</time></trkpt><trkpt lat="43.6435443" lon="11.7463379"><ele>658.5999999999999</ele><time>2026-04-18T12:32:28.497Z</time></trkpt><trkpt lat="43.6435344" lon="11.7464895"><ele>656.4000000000001</ele><time>2026-04-18T12:32:29.508Z</time></trkpt><trkpt lat="43.6435492" lon="11.7466113"><ele>654.2</ele><time>2026-04-18T12:32:30.499Z</time></trkpt><trkpt lat="43.6435656" lon="11.7467378"><ele>652.0</ele><time>2026-04-18T12:32:31.499Z</time></trkpt><trkpt lat="43.6435861" lon="11.746862"><ele>651.6666666666667</ele><time>2026-04-18T12:32:32.495Z</time></trkpt><trkpt lat="43.6435907" lon="11.7469837"><ele>651.3333333333334</ele><time>2026-04-18T12:32:33.488Z</time></trkpt><trkpt lat="43.6435868" lon="11.7471065"><ele>651.0</ele><time>2026-04-18T12:32:34.489Z</time></trkpt><trkpt lat="43.6435758" lon="11.7472248"><ele>650.6666666666666</ele><time>2026-04-18T12:32:35.493Z</time></trkpt><trkpt lat="43.643555" lon="11.7473498"><ele>650.3333333333333</ele><time>2026-04-18T12:32:36.487Z</time></trkpt><trkpt lat="43.6435335" lon="11.7474729"><ele>650.0</ele><time>2026-04-18T12:32:37.489Z</time></trkpt><trkpt lat="43.6435145" lon="11.7475933"><ele>650.0</ele><time>2026-04-18T12:32:38.499Z</time></trkpt><trkpt lat="43.6434948" lon="11.7477157"><ele>650.0</ele><time>2026-04-18T12:32:39.499Z</time></trkpt><trkpt lat="43.643472" lon="11.7478414"><ele>650.0</ele><time>2026-04-18T12:32:40.491Z</time></trkpt><trkpt lat="43.6434527" lon="11.7479719"><ele>650.0</ele><time>2026-04-18T12:32:41.486Z</time></trkpt><trkpt lat="43.6434453" lon="11.7480891"><ele>650.0</ele><time>2026-04-18T12:32:42.499Z</time></trkpt><trkpt lat="43.6434436" lon="11.7482029"><ele>650.0</ele><time>2026-04-18T12:32:43.509Z</time></trkpt><trkpt lat="43.6434429" lon="11.7483281"><ele>650.0</ele><time>2026-04-18T12:32:44.495Z</time></trkpt><trkpt lat="43.6434461" lon="11.7484615"><ele>650.0</ele><time>2026-04-18T12:32:45.494Z</time></trkpt><trkpt lat="43.6434552" lon="11.7485927"><ele>650.0</ele><time>2026-04-18T12:32:46.497Z</time></trkpt><trkpt lat="43.6434715" lon="11.7487164"><ele>650.0</ele><time>2026-04-18T12:32:47.52Z</time></trkpt><trkpt lat="43.6434651" lon="11.7488461"><ele>650.0</ele><time>2026-04-18T12:32:48.493Z</time></trkpt><trkpt lat="43.6434408" lon="11.7489915"><ele>650.0</ele><time>2026-04-18T12:32:49.506Z</time></trkpt><trkpt lat="43.6433975" lon="11.7491455"><ele>650.0</ele><time>2026-04-18T12:32:50.494Z</time></trkpt><trkpt lat="43.6433471" lon="11.7493179"><ele>650.0</ele><time>2026-04-18T12:32:51.492Z</time></trkpt><trkpt lat="43.6433039" lon="11.7494999"><ele>650.0</ele><time>2026-04-18T12:32:52.491Z</time></trkpt><trkpt lat="43.6432593" lon="11.749685"><ele>653.0</ele><time>2026-04-18T12:32:53.497Z</time></trkpt><trkpt lat="43.643222" lon="11.7498592"><ele>656.0</ele><time>2026-04-18T12:32:54.487Z</time></trkpt><trkpt lat="43.6431866" lon="11.7500388"><ele>659.0</ele><time>2026-04-18T12:32:55.503Z</time></trkpt><trkpt lat="43.6431328" lon="11.7501865"><ele>662.0</ele><time>2026-04-18T12:32:56.492Z</time></trkpt><trkpt lat="43.6430797" lon="11.7503221"><ele>665.25</ele><time>2026-04-18T12:32:57.486Z</time></trkpt><trkpt lat="43.6430206" lon="11.7504572"><ele>668.5</ele><time>2026-04-18T12:32:58.488Z</time></trkpt><trkpt lat="43.6429617" lon="11.7505998"><ele>671.75</ele><time>2026-04-18T12:32:59.489Z</time></trkpt><trkpt lat="43.6429115" lon="11.7507516"><ele>675.0</ele><time>2026-04-18T12:33:00.496Z</time></trkpt><trkpt lat="43.6428755" lon="11.750919"><ele>675.75</ele><time>2026-04-18T12:33:01.493Z</time></trkpt><trkpt lat="43.6428482" lon="11.7510951"><ele>676.5</ele><time>2026-04-18T12:33:02.487Z</time></trkpt><trkpt lat="43.6428222" lon="11.7512915"><ele>677.25</ele><time>2026-04-18T12:33:03.491Z</time></trkpt><trkpt lat="43.642796" lon="11.7514962"><ele>678.0</ele><time>2026-04-18T12:33:04.494Z</time></trkpt><trkpt lat="43.6427634" lon="11.7516957"><ele>671.4</ele><time>2026-04-18T12:33:05.493Z</time></trkpt><trkpt lat="43.6427334" lon="11.7518721"><ele>664.8</ele><time>2026-04-18T12:33:06.503Z</time></trkpt><trkpt lat="43.6427039" lon="11.752025"><ele>658.2</ele><time>2026-04-18T12:33:07.495Z</time></trkpt><trkpt lat="43.6426804" lon="11.7521564"><ele>651.6</ele><time>2026-04-18T12:33:08.492Z</time></trkpt><trkpt lat="43.6426616" lon="11.7522774"><ele>645.0</ele><time>2026-04-18T12:33:09.497Z</time></trkpt><trkpt lat="43.6426705" lon="11.7523823"><ele>645.0</ele><time>2026-04-18T12:33:10.507Z</time></trkpt><trkpt lat="43.6427067" lon="11.7524876"><ele>645.0</ele><time>2026-04-18T12:33:11.496Z</time></trkpt><trkpt lat="43.642763" lon="11.7525938"><ele>645.0</ele><time>2026-04-18T12:33:12.49Z</time></trkpt><trkpt lat="43.642822" lon="11.7527054"><ele>645.0</ele><time>2026-04-18T12:33:13.497Z</time></trkpt><trkpt lat="43.6428841" lon="11.7528155"><ele>645.0</ele><time>2026-04-18T12:33:14.506Z</time></trkpt><trkpt lat="43.6429672" lon="11.7529139"><ele>648.75</ele><time>2026-04-18T12:33:15.503Z</time></trkpt><trkpt lat="43.6430704" lon="11.7530207"><ele>652.5</ele><time>2026-04-18T12:33:16.496Z</time></trkpt><trkpt lat="43.6431778" lon="11.7531419"><ele>656.25</ele><time>2026-04-18T12:33:17.505Z</time></trkpt><trkpt lat="43.6432959" lon="11.7532794"><ele>660.0</ele><time>2026-04-18T12:33:18.489Z</time></trkpt><trkpt lat="43.6434263" lon="11.7534469"><ele>663.0</ele><time>2026-04-18T12:33:19.512Z</time></trkpt><trkpt lat="43.6435575" lon="11.7536254"><ele>666.0</ele><time>2026-04-18T12:33:20.5Z</time></trkpt><trkpt lat="43.6436901" lon="11.7538055"><ele>669.0</ele><time>2026-04-18T12:33:21.502Z</time></trkpt><trkpt lat="43.6438211" lon="11.753988"><ele>669.0</ele><time>2026-04-18T12:33:22.5Z</time></trkpt><trkpt lat="43.6439348" lon="11.7541619"><ele>669.0</ele><time>2026-04-18T12:33:23.508Z</time></trkpt><trkpt lat="43.6440334" lon="11.7543198"><ele>669.0</ele><time>2026-04-18T12:33:24.498Z</time></trkpt><trkpt lat="43.6441349" lon="11.7544656"><ele>666.2</ele><time>2026-04-18T12:33:25.514Z</time></trkpt><trkpt lat="43.6442194" lon="11.7545944"><ele>663.4000000000001</ele><time>2026-04-18T12:33:26.493Z</time></trkpt><trkpt lat="43.6442966" lon="11.7547161"><ele>660.6</ele><time>2026-04-18T12:33:27.492Z</time></trkpt><trkpt lat="43.6443509" lon="11.7548385"><ele>657.8</ele><time>2026-04-18T12:33:28.493Z</time></trkpt><trkpt lat="43.6443955" lon="11.7549445"><ele>655.0</ele><time>2026-04-18T12:33:29.5Z</time></trkpt><trkpt lat="43.6444443" lon="11.7550341"><ele>660.3333333333334</ele><time>2026-04-18T12:33:30.502Z</time></trkpt><trkpt lat="43.6444993" lon="11.7550999"><ele>665.6666666666667</ele><time>2026-04-18T12:33:31.508Z</time></trkpt><trkpt lat="43.6445574" lon="11.7551633"><ele>671.0</ele><time>2026-04-18T12:33:32.502Z</time></trkpt><trkpt lat="43.6446006" lon="11.7552304"><ele>676.3333333333334</ele><time>2026-04-18T12:33:33.507Z</time></trkpt><trkpt lat="43.6446434" lon="11.7553123"><ele>681.6666666666666</ele><time>2026-04-18T12:33:34.504Z</time></trkpt><trkpt lat="43.6446683" lon="11.7554185"><ele>687.0</ele><time>2026-04-18T12:33:35.494Z</time></trkpt><trkpt lat="43.6446634" lon="11.7555402"><ele>688.0</ele><time>2026-04-18T12:33:36.498Z</time></trkpt><trkpt lat="43.6446365" lon="11.7556579"><ele>689.0</ele><time>2026-04-18T12:33:37.493Z</time></trkpt><trkpt lat="43.644591" lon="11.7558159"><ele>690.0</ele><time>2026-04-18T12:33:38.51Z</time></trkpt><trkpt lat="43.644567" lon="11.7560072"><ele>691.0</ele><time>2026-04-18T12:33:39.491Z</time></trkpt><trkpt lat="43.6445269" lon="11.7562261"><ele>683.0</ele><time>2026-04-18T12:33:40.495Z</time></trkpt><trkpt lat="43.6444625" lon="11.7564347"><ele>675.0</ele><time>2026-04-18T12:33:41.5Z</time></trkpt><trkpt lat="43.6443782" lon="11.756613"><ele>667.0</ele><time>2026-04-18T12:33:42.503Z</time></trkpt><trkpt lat="43.6442963" lon="11.7567482"><ele>659.0</ele><time>2026-04-18T12:33:43.495Z</time></trkpt><trkpt lat="43.644237" lon="11.7569017"><ele>659.0</ele><time>2026-04-18T12:33:44.501Z</time></trkpt><trkpt lat="43.6442131" lon="11.75706"><ele>659.0</ele><time>2026-04-18T12:33:45.496Z</time></trkpt><trkpt lat="43.6442205" lon="11.7572164"><ele>659.0</ele><time>2026-04-18T12:33:46.502Z</time></trkpt><trkpt lat="43.6442289" lon="11.7573664"><ele>659.0</ele><time>2026-04-18T12:33:47.484Z</time></trkpt><trkpt lat="43.6442081" lon="11.7574796"><ele>659.0</ele><time>2026-04-18T12:33:48.498Z</time></trkpt><trkpt lat="43.6441484" lon="11.7575773"><ele>659.0</ele><time>2026-04-18T12:33:49.501Z</time></trkpt><trkpt lat="43.6440686" lon="11.7576607"><ele>659.0</ele><time>2026-04-18T12:33:50.496Z</time></trkpt><trkpt lat="43.6439949" lon="11.7577588"><ele>659.0</ele><time>2026-04-18T12:33:51.488Z</time></trkpt><trkpt lat="43.6439467" lon="11.7578864"><ele>659.0</ele><time>2026-04-18T12:33:52.498Z</time></trkpt><trkpt lat="43.6439219" lon="11.7580375"><ele>659.0</ele><time>2026-04-18T12:33:53.499Z</time></trkpt><trkpt lat="43.6439062" lon="11.7582107"><ele>661.0</ele><time>2026-04-18T12:33:54.496Z</time></trkpt><trkpt lat="43.6438991" lon="11.758399"><ele>663.0</ele><time>2026-04-18T12:33:55.494Z</time></trkpt><trkpt lat="43.6438991" lon="11.7585973"><ele>665.0</ele><time>2026-04-18T12:33:56.494Z</time></trkpt><trkpt lat="43.6438981" lon="11.7587832"><ele>667.0</ele><time>2026-04-18T12:33:57.485Z</time></trkpt><trkpt lat="43.6438957" lon="11.7589596"><ele>668.0</ele><time>2026-04-18T12:33:58.491Z</time></trkpt><trkpt lat="43.6438771" lon="11.7591158"><ele>669.0</ele><time>2026-04-18T12:33:59.489Z</time></trkpt><trkpt lat="43.6438643" lon="11.7592629"><ele>670.0</ele><time>2026-04-18T12:34:00.491Z</time></trkpt><trkpt lat="43.6438436" lon="11.7593972"><ele>671.0</ele><time>2026-04-18T12:34:01.501Z</time></trkpt><trkpt lat="43.6438213" lon="11.7595227"><ele>672.0</ele><time>2026-04-18T12:34:02.492Z</time></trkpt><trkpt lat="43.6438081" lon="11.7596221"><ele>672.3333333333334</ele><time>2026-04-18T12:34:03.489Z</time></trkpt><trkpt lat="43.6438017" lon="11.7597224"><ele>672.6666666666666</ele><time>2026-04-18T12:34:04.491Z</time></trkpt><trkpt lat="43.6438107" lon="11.7598135"><ele>673.0</ele><time>2026-04-18T12:34:05.491Z</time></trkpt><trkpt lat="43.6438362" lon="11.7598956"><ele>673.3333333333333</ele><time>2026-04-18T12:34:06.495Z</time></trkpt><trkpt lat="43.6438901" lon="11.7599899"><ele>673.6666666666666</ele><time>2026-04-18T12:34:07.486Z</time></trkpt><trkpt lat="43.643964" lon="11.7600808"><ele>674.0</ele><time>2026-04-18T12:34:08.503Z</time></trkpt><trkpt lat="43.6440426" lon="11.7601598"><ele>674.0</ele><time>2026-04-18T12:34:09.5Z</time></trkpt><trkpt lat="43.6441126" lon="11.7602271"><ele>674.0</ele><time>2026-04-18T12:34:10.5Z</time></trkpt><trkpt lat="43.6441568" lon="11.7602896"><ele>674.0</ele><time>2026-04-18T12:34:11.502Z</time></trkpt><trkpt lat="43.6440778" lon="11.7602087"><ele>674.0</ele><time>2026-04-18T12:34:45.499Z</time></trkpt><trkpt lat="43.6440192" lon="11.7601624"><ele>674.0</ele><time>2026-04-18T12:34:46.501Z</time></trkpt><trkpt lat="43.6439493" lon="11.7601113"><ele>674.0</ele><time>2026-04-18T12:34:47.505Z</time></trkpt><trkpt lat="43.6438786" lon="11.7600383"><ele>674.0</ele><time>2026-04-18T12:34:48.493Z</time></trkpt><trkpt lat="43.6438181" lon="11.7599422"><ele>674.0</ele><time>2026-04-18T12:34:49.495Z</time></trkpt><trkpt lat="43.6437738" lon="11.7598231"><ele>674.0</ele><time>2026-04-18T12:34:50.507Z</time></trkpt><trkpt lat="43.6437595" lon="11.7596908"><ele>674.0</ele><time>2026-04-18T12:34:51.498Z</time></trkpt><trkpt lat="43.6437799" lon="11.7595195"><ele>674.0</ele><time>2026-04-18T12:34:52.509Z</time></trkpt><trkpt lat="43.6438099" lon="11.7593284"><ele>673.3333333333333</ele><time>2026-04-18T12:34:53.501Z</time></trkpt><trkpt lat="43.6438445" lon="11.7591169"><ele>672.6666666666666</ele><time>2026-04-18T12:34:54.494Z</time></trkpt><trkpt lat="43.6438838" lon="11.758902"><ele>672.0</ele><time>2026-04-18T12:34:55.489Z</time></trkpt><trkpt lat="43.6439004" lon="11.7586634"><ele>670.3333333333334</ele><time>2026-04-18T12:34:56.503Z</time></trkpt><trkpt lat="43.6439051" lon="11.7584115"><ele>668.6666666666667</ele><time>2026-04-18T12:34:57.509Z</time></trkpt><trkpt lat="43.6439262" lon="11.7581915"><ele>667.0</ele><time>2026-04-18T12:34:58.491Z</time></trkpt><trkpt lat="43.6439706" lon="11.75801"><ele>667.0</ele><time>2026-04-18T12:34:59.493Z</time></trkpt><trkpt lat="43.6440098" lon="11.757854"><ele>667.0</ele><time>2026-04-18T12:35:00.5Z</time></trkpt><trkpt lat="43.6440713" lon="11.7577029"><ele>667.0</ele><time>2026-04-18T12:35:01.495Z</time></trkpt><trkpt lat="43.6441537" lon="11.7575782"><ele>667.0</ele><time>2026-04-18T12:35:02.496Z</time></trkpt><trkpt lat="43.6442233" lon="11.7574739"><ele>665.4000000000001</ele><time>2026-04-18T12:35:03.491Z</time></trkpt><trkpt lat="43.6442807" lon="11.7573836"><ele>663.8000000000001</ele><time>2026-04-18T12:35:04.491Z</time></trkpt><trkpt lat="43.6443028" lon="11.7572734"><ele>662.2</ele><time>2026-04-18T12:35:05.497Z</time></trkpt><trkpt lat="43.6442959" lon="11.7571263"><ele>660.6</ele><time>2026-04-18T12:35:06.49Z</time></trkpt><trkpt lat="43.6442942" lon="11.7569879"><ele>659.0</ele><time>2026-04-18T12:35:07.485Z</time></trkpt><trkpt lat="43.6443119" lon="11.7568627"><ele>658.6</ele><time>2026-04-18T12:35:08.495Z</time></trkpt><trkpt lat="43.644347" lon="11.7567597"><ele>658.2</ele><time>2026-04-18T12:35:09.513Z</time></trkpt><trkpt lat="43.6443904" lon="11.7566479"><ele>657.8000000000001</ele><time>2026-04-18T12:35:10.502Z</time></trkpt><trkpt lat="43.6444543" lon="11.7565244"><ele>657.4000000000001</ele><time>2026-04-18T12:35:11.5Z</time></trkpt><trkpt lat="43.6445037" lon="11.7563851"><ele>657.0</ele><time>2026-04-18T12:35:12.493Z</time></trkpt><trkpt lat="43.6445432" lon="11.7562174"><ele>663.8</ele><time>2026-04-18T12:35:13.497Z</time></trkpt><trkpt lat="43.6445668" lon="11.7560468"><ele>670.6</ele><time>2026-04-18T12:35:14.498Z</time></trkpt><trkpt lat="43.644588" lon="11.7558963"><ele>677.4</ele><time>2026-04-18T12:35:15.493Z</time></trkpt><trkpt lat="43.6446089" lon="11.755767"><ele>684.1999999999999</ele><time>2026-04-18T12:35:16.493Z</time></trkpt><trkpt lat="43.6446277" lon="11.7556592"><ele>691.0</ele><time>2026-04-18T12:35:17.5Z</time></trkpt><trkpt lat="43.6446618" lon="11.7555531"><ele>691.0</ele><time>2026-04-18T12:35:18.495Z</time></trkpt><trkpt lat="43.644686" lon="11.7554677"><ele>691.0</ele><time>2026-04-18T12:35:19.497Z</time></trkpt><trkpt lat="43.6446691" lon="11.7553123"><ele>691.0</ele><time>2026-04-18T12:35:21.497Z</time></trkpt><trkpt lat="43.6446676" lon="11.7552245"><ele>691.0</ele><time>2026-04-18T12:35:23.493Z</time></trkpt><trkpt lat="43.6447075" lon="11.755156"><ele>691.0</ele><time>2026-04-18T12:35:25.499Z</time></trkpt><trkpt lat="43.6447702" lon="11.7551881"><ele>691.0</ele><time>2026-04-18T12:35:28.496Z</time></trkpt><trkpt lat="43.6447939" lon="11.7553188"><ele>691.0</ele><time>2026-04-18T12:35:31.486Z</time></trkpt><trkpt lat="43.6447812" lon="11.755435"><ele>691.0</ele><time>2026-04-18T12:35:32.503Z</time></trkpt><trkpt lat="43.6447647" lon="11.7555626"><ele>691.0</ele><time>2026-04-18T12:35:33.497Z</time></trkpt><trkpt lat="43.64475" lon="11.7556838"><ele>691.0</ele><time>2026-04-18T12:35:34.497Z</time></trkpt><trkpt lat="43.6447415" lon="11.7558066"><ele>691.0</ele><time>2026-04-18T12:35:35.498Z</time></trkpt><trkpt lat="43.6447442" lon="11.7559042"><ele>691.0</ele><time>2026-04-18T12:35:36.491Z</time></trkpt><trkpt lat="43.6447571" lon="11.75602"><ele>692.5999999999999</ele><time>2026-04-18T12:35:37.493Z</time></trkpt><trkpt lat="43.6447842" lon="11.7561484"><ele>694.2</ele><time>2026-04-18T12:35:38.496Z</time></trkpt><trkpt lat="43.6448103" lon="11.7562733"><ele>695.8</ele><time>2026-04-18T12:35:39.498Z</time></trkpt><trkpt lat="43.644829" lon="11.7563816"><ele>697.4000000000001</ele><time>2026-04-18T12:35:40.495Z</time></trkpt><trkpt lat="43.6448054" lon="11.7565275"><ele>699.0</ele><time>2026-04-18T12:35:42.505Z</time></trkpt><trkpt lat="43.6447652" lon="11.7566833"><ele>699.0</ele><time>2026-04-18T12:35:44.49Z</time></trkpt><trkpt lat="43.6447401" lon="11.7568667"><ele>699.0</ele><time>2026-04-18T12:35:46.502Z</time></trkpt><trkpt lat="43.6447372" lon="11.7570352"><ele>699.0</ele><time>2026-04-18T12:35:48.495Z</time></trkpt><trkpt lat="43.6447799" lon="11.7571802"><ele>699.0</ele><time>2026-04-18T12:35:50.496Z</time></trkpt><trkpt lat="43.6448645" lon="11.757301"><ele>699.5</ele><time>2026-04-18T12:35:52.501Z</time></trkpt><trkpt lat="43.6449078" lon="11.7573643"><ele>700.0</ele><time>2026-04-18T12:35:53.499Z</time></trkpt><trkpt lat="43.644949" lon="11.757431"><ele>700.5</ele><time>2026-04-18T12:35:54.5Z</time></trkpt><trkpt lat="43.6449854" lon="11.7575204"><ele>701.0</ele><time>2026-04-18T12:35:55.502Z</time></trkpt><trkpt lat="43.6450019" lon="11.7576066"><ele>701.5</ele><time>2026-04-18T12:35:56.508Z</time></trkpt><trkpt lat="43.6450086" lon="11.7577816"><ele>702.0</ele><time>2026-04-18T12:35:58.494Z</time></trkpt><trkpt lat="43.6449955" lon="11.7578756"><ele>704.0</ele><time>2026-04-18T12:35:59.497Z</time></trkpt><trkpt lat="43.6449875" lon="11.7579791"><ele>706.0</ele><time>2026-04-18T12:36:00.494Z</time></trkpt><trkpt lat="43.644965" lon="11.7580753"><ele>708.0</ele><time>2026-04-18T12:36:01.502Z</time></trkpt><trkpt lat="43.6449351" lon="11.7581582"><ele>710.0</ele><time>2026-04-18T12:36:02.493Z</time></trkpt><trkpt lat="43.6448981" lon="11.7582405"><ele>712.0</ele><time>2026-04-18T12:36:03.491Z</time></trkpt><trkpt lat="43.6448753" lon="11.7583427"><ele>714.0</ele><time>2026-04-18T12:36:04.493Z</time></trkpt><trkpt lat="43.6448411" lon="11.7584592"><ele>714.8333333333334</ele><time>2026-04-18T12:36:05.49Z</time></trkpt><trkpt lat="43.6448168" lon="11.7585758"><ele>715.6666666666666</ele><time>2026-04-18T12:36:06.495Z</time></trkpt><trkpt lat="43.6448114" lon="11.7586721"><ele>716.5</ele><time>2026-04-18T12:36:07.489Z</time></trkpt><trkpt lat="43.6448284" lon="11.7587827"><ele>717.3333333333333</ele><time>2026-04-18T12:36:08.493Z</time></trkpt><trkpt lat="43.6448499" lon="11.758901"><ele>718.1666666666666</ele><time>2026-04-18T12:36:09.499Z</time></trkpt><trkpt lat="43.6448773" lon="11.7590197"><ele>719.0</ele><time>2026-04-18T12:36:10.507Z</time></trkpt><trkpt lat="43.6449181" lon="11.7591368"><ele>719.0</ele><time>2026-04-18T12:36:11.503Z</time></trkpt><trkpt lat="43.6449587" lon="11.7592673"><ele>719.0</ele><time>2026-04-18T12:36:12.507Z</time></trkpt><trkpt lat="43.6450169" lon="11.7594048"><ele>719.0</ele><time>2026-04-18T12:36:13.507Z</time></trkpt><trkpt lat="43.6450747" lon="11.7595444"><ele>719.0</ele><time>2026-04-18T12:36:14.501Z</time></trkpt><trkpt lat="43.6451265" lon="11.7596617"><ele>719.0</ele><time>2026-04-18T12:36:15.496Z</time></trkpt><trkpt lat="43.6451603" lon="11.7597463"><ele>720.7142857142857</ele><time>2026-04-18T12:36:16.509Z</time></trkpt><trkpt lat="43.6452006" lon="11.7598184"><ele>722.4285714285714</ele><time>2026-04-18T12:36:17.505Z</time></trkpt><trkpt lat="43.6452594" lon="11.759864"><ele>724.1428571428571</ele><time>2026-04-18T12:36:18.503Z</time></trkpt><trkpt lat="43.6453217" lon="11.7598864"><ele>725.8571428571429</ele><time>2026-04-18T12:36:19.497Z</time></trkpt><trkpt lat="43.6453913" lon="11.7599024"><ele>727.5714285714286</ele><time>2026-04-18T12:36:20.516Z</time></trkpt><trkpt lat="43.6454647" lon="11.759938"><ele>729.2857142857142</ele><time>2026-04-18T12:36:21.498Z</time></trkpt><trkpt lat="43.6455455" lon="11.759979"><ele>731.0</ele><time>2026-04-18T12:36:22.503Z</time></trkpt><trkpt lat="43.6456322" lon="11.7600018"><ele>731.0</ele><time>2026-04-18T12:36:23.499Z</time></trkpt><trkpt lat="43.6457179" lon="11.7599905"><ele>731.0</ele><time>2026-04-18T12:36:24.504Z</time></trkpt><trkpt lat="43.6458024" lon="11.7599662"><ele>731.0</ele><time>2026-04-18T12:36:25.492Z</time></trkpt><trkpt lat="43.6458846" lon="11.7599397"><ele>731.0</ele><time>2026-04-18T12:36:26.494Z</time></trkpt><trkpt lat="43.6459598" lon="11.7599354"><ele>731.0</ele><time>2026-04-18T12:36:27.504Z</time></trkpt><trkpt lat="43.6460706" lon="11.7600122"><ele>731.0</ele><time>2026-04-18T12:36:29.49Z</time></trkpt><trkpt lat="43.6461252" lon="11.7600629"><ele>731.0</ele><time>2026-04-18T12:36:30.499Z</time></trkpt><trkpt lat="43.6461782" lon="11.7601334"><ele>731.0</ele><time>2026-04-18T12:36:31.499Z</time></trkpt><trkpt lat="43.6462282" lon="11.7602263"><ele>731.0</ele><time>2026-04-18T12:36:32.504Z</time></trkpt><trkpt lat="43.6462695" lon="11.7603171"><ele>731.0</ele><time>2026-04-18T12:36:33.5Z</time></trkpt><trkpt lat="43.6462845" lon="11.7604039"><ele>731.0</ele><time>2026-04-18T12:36:34.508Z</time></trkpt><trkpt lat="43.6463363" lon="11.7605249"><ele>733.5</ele><time>2026-04-18T12:36:36.515Z</time></trkpt><trkpt lat="43.6464101" lon="11.7605478"><ele>736.0</ele><time>2026-04-18T12:36:58.492Z</time></trkpt><trkpt lat="43.6464813" lon="11.7604969"><ele>738.5</ele><time>2026-04-18T12:37:00.492Z</time></trkpt><trkpt lat="43.6465389" lon="11.7604556"><ele>741.0</ele><time>2026-04-18T12:37:02.495Z</time></trkpt><trkpt lat="43.6464845" lon="11.7605127"><ele>743.5</ele><time>2026-04-18T12:37:42.492Z</time></trkpt><trkpt lat="43.6463981" lon="11.7605284"><ele>746.0</ele><time>2026-04-18T12:37:46.499Z</time></trkpt><trkpt lat="43.6463143" lon="11.7605274"><ele>746.0</ele><time>2026-04-18T12:37:49.502Z</time></trkpt><trkpt lat="43.6462785" lon="11.7604451"><ele>746.0</ele><time>2026-04-18T12:37:57.491Z</time></trkpt><trkpt lat="43.6462629" lon="11.7603069"><ele>746.0</ele><time>2026-04-18T12:37:59.499Z</time></trkpt><trkpt lat="43.6462172" lon="11.7601773"><ele>746.0</ele><time>2026-04-18T12:38:01.496Z</time></trkpt><trkpt lat="43.6461362" lon="11.7600659"><ele>746.0</ele><time>2026-04-18T12:38:03.499Z</time></trkpt><trkpt lat="43.6460322" lon="11.7600152"><ele>743.0</ele><time>2026-04-18T12:38:05.481Z</time></trkpt><trkpt lat="43.6459246" lon="11.7599987"><ele>740.0</ele><time>2026-04-18T12:38:07.504Z</time></trkpt><trkpt lat="43.6458296" lon="11.7600173"><ele>737.0</ele><time>2026-04-18T12:38:09.501Z</time></trkpt><trkpt lat="43.6457286" lon="11.7600583"><ele>734.0</ele><time>2026-04-18T12:38:11.502Z</time></trkpt><trkpt lat="43.6456038" lon="11.7600634"><ele>731.0</ele><time>2026-04-18T12:38:13.498Z</time></trkpt><trkpt lat="43.6455346" lon="11.7600469"><ele>731.0</ele><time>2026-04-18T12:38:14.496Z</time></trkpt><trkpt lat="43.6454704" lon="11.7600302"><ele>731.0</ele><time>2026-04-18T12:38:15.499Z</time></trkpt><trkpt lat="43.6453571" lon="11.7599789"><ele>731.0</ele><time>2026-04-18T12:38:17.51Z</time></trkpt><trkpt lat="43.6452449" lon="11.7599451"><ele>731.0</ele><time>2026-04-18T12:38:19.5Z</time></trkpt><trkpt lat="43.6451595" lon="11.7598952"><ele>731.0</ele><time>2026-04-18T12:38:21.505Z</time></trkpt><trkpt lat="43.6450942" lon="11.7598014"><ele>729.0</ele><time>2026-04-18T12:38:23.492Z</time></trkpt><trkpt lat="43.6450396" lon="11.7596669"><ele>727.0</ele><time>2026-04-18T12:38:25.495Z</time></trkpt><trkpt lat="43.6450084" lon="11.7595828"><ele>725.0</ele><time>2026-04-18T12:38:26.503Z</time></trkpt><trkpt lat="43.6449811" lon="11.7594953"><ele>723.0</ele><time>2026-04-18T12:38:27.507Z</time></trkpt><trkpt lat="43.6449511" lon="11.7593988"><ele>721.0</ele><time>2026-04-18T12:38:28.491Z</time></trkpt><trkpt lat="43.6449187" lon="11.7593022"><ele>719.0</ele><time>2026-04-18T12:38:29.498Z</time></trkpt><trkpt lat="43.6448787" lon="11.7592153"><ele>719.0</ele><time>2026-04-18T12:38:30.507Z</time></trkpt><trkpt lat="43.6448521" lon="11.7591199"><ele>719.0</ele><time>2026-04-18T12:38:31.515Z</time></trkpt><trkpt lat="43.6448285" lon="11.7590272"><ele>719.0</ele><time>2026-04-18T12:38:32.508Z</time></trkpt><trkpt lat="43.6448043" lon="11.7589281"><ele>719.0</ele><time>2026-04-18T12:38:33.493Z</time></trkpt><trkpt lat="43.6447884" lon="11.7588233"><ele>719.0</ele><time>2026-04-18T12:38:34.502Z</time></trkpt><trkpt lat="43.6447738" lon="11.7587274"><ele>719.0</ele><time>2026-04-18T12:38:35.496Z</time></trkpt><trkpt lat="43.6447802" lon="11.7585839"><ele>718.0</ele><time>2026-04-18T12:38:37.497Z</time></trkpt><trkpt lat="43.6448099" lon="11.7584774"><ele>717.0</ele><time>2026-04-18T12:38:39.493Z</time></trkpt><trkpt lat="43.6448557" lon="11.758334"><ele>716.0</ele><time>2026-04-18T12:38:41.491Z</time></trkpt><trkpt lat="43.6449157" lon="11.7581881"><ele>715.0</ele><time>2026-04-18T12:38:43.492Z</time></trkpt><trkpt lat="43.6449765" lon="11.75804"><ele>714.0</ele><time>2026-04-18T12:38:45.487Z</time></trkpt><trkpt lat="43.6449994" lon="11.7579576"><ele>714.0</ele><time>2026-04-18T12:38:46.488Z</time></trkpt><trkpt lat="43.645027" lon="11.75779"><ele>714.0</ele><time>2026-04-18T12:38:48.493Z</time></trkpt><trkpt lat="43.6450315" lon="11.7576537"><ele>714.0</ele><time>2026-04-18T12:38:50.494Z</time></trkpt><trkpt lat="43.6449586" lon="11.7575139"><ele>714.0</ele><time>2026-04-18T12:38:52.492Z</time></trkpt><trkpt lat="43.6449115" lon="11.7574487"><ele>714.0</ele><time>2026-04-18T12:38:53.504Z</time></trkpt><trkpt lat="43.6448189" lon="11.7573423"><ele>711.6</ele><time>2026-04-18T12:38:55.495Z</time></trkpt><trkpt lat="43.6447215" lon="11.7572575"><ele>709.2</ele><time>2026-04-18T12:38:57.487Z</time></trkpt><trkpt lat="43.6446543" lon="11.7571708"><ele>706.8000000000001</ele><time>2026-04-18T12:38:59.496Z</time></trkpt><trkpt lat="43.6446189" lon="11.7570365"><ele>704.4000000000001</ele><time>2026-04-18T12:39:01.48Z</time></trkpt><trkpt lat="43.6446275" lon="11.7568944"><ele>702.0</ele><time>2026-04-18T12:39:03.503Z</time></trkpt><trkpt lat="43.6446427" lon="11.7567449"><ele>701.5</ele><time>2026-04-18T12:39:05.492Z</time></trkpt><trkpt lat="43.6446592" lon="11.7566578"><ele>701.0</ele><time>2026-04-18T12:39:06.5Z</time></trkpt><trkpt lat="43.6446796" lon="11.7565661"><ele>700.5</ele><time>2026-04-18T12:39:07.488Z</time></trkpt><trkpt lat="43.6447016" lon="11.7564787"><ele>700.0</ele><time>2026-04-18T12:39:08.497Z</time></trkpt><trkpt lat="43.6447235" lon="11.7563314"><ele>699.5</ele><time>2026-04-18T12:39:10.498Z</time></trkpt><trkpt lat="43.6447265" lon="11.7561853"><ele>699.0</ele><time>2026-04-18T12:39:12.493Z</time></trkpt><trkpt lat="43.644719" lon="11.7560976"><ele>697.4000000000001</ele><time>2026-04-18T12:39:13.495Z</time></trkpt><trkpt lat="43.6447061" lon="11.756009"><ele>695.8</ele><time>2026-04-18T12:39:14.495Z</time></trkpt><trkpt lat="43.6446921" lon="11.7558467"><ele>694.2</ele><time>2026-04-18T12:39:16.501Z</time></trkpt><trkpt lat="43.6446869" lon="11.7556853"><ele>692.5999999999999</ele><time>2026-04-18T12:39:18.504Z</time></trkpt><trkpt lat="43.6447007" lon="11.7555433"><ele>691.0</ele><time>2026-04-18T12:39:20.49Z</time></trkpt><trkpt lat="43.6447209" lon="11.7554056"><ele>691.0</ele><time>2026-04-18T12:39:22.485Z</time></trkpt><trkpt lat="43.6447172" lon="11.7552504"><ele>691.0</ele><time>2026-04-18T12:39:24.497Z</time></trkpt><trkpt lat="43.6446713" lon="11.7551568"><ele>691.0</ele><time>2026-04-18T12:39:26.489Z</time></trkpt><trkpt lat="43.6446078" lon="11.7552018"><ele>691.0</ele><time>2026-04-18T12:39:29.495Z</time></trkpt><trkpt lat="43.6446274" lon="11.755302"><ele>691.0</ele><time>2026-04-18T12:39:31.491Z</time></trkpt><trkpt lat="43.6446433" lon="11.7553958"><ele>691.0</ele><time>2026-04-18T12:39:32.495Z</time></trkpt><trkpt lat="43.6446662" lon="11.7554796"><ele>691.0</ele><time>2026-04-18T12:39:33.491Z</time></trkpt><trkpt lat="43.6446542" lon="11.7555894"><ele>691.0</ele><time>2026-04-18T12:39:34.496Z</time></trkpt><trkpt lat="43.6446222" lon="11.7557432"><ele>691.0</ele><time>2026-04-18T12:39:35.49Z</time></trkpt><trkpt lat="43.6445811" lon="11.7559262"><ele>691.0</ele><time>2026-04-18T12:39:36.49Z</time></trkpt><trkpt lat="43.644547" lon="11.7561209"><ele>693.0</ele><time>2026-04-18T12:39:37.5Z</time></trkpt><trkpt lat="43.6445151" lon="11.7563253"><ele>695.0</ele><time>2026-04-18T12:39:38.484Z</time></trkpt><trkpt lat="43.644459" lon="11.7565135"><ele>697.0</ele><time>2026-04-18T12:39:39.49Z</time></trkpt><trkpt lat="43.6443753" lon="11.7566622"><ele>699.0</ele><time>2026-04-18T12:39:40.487Z</time></trkpt><trkpt lat="43.6443016" lon="11.7567791"><ele>691.0</ele><time>2026-04-18T12:39:41.496Z</time></trkpt><trkpt lat="43.6442425" lon="11.7569236"><ele>683.0</ele><time>2026-04-18T12:39:42.501Z</time></trkpt><trkpt lat="43.6442143" lon="11.7570803"><ele>675.0</ele><time>2026-04-18T12:39:43.502Z</time></trkpt><trkpt lat="43.6442123" lon="11.7572261"><ele>667.0</ele><time>2026-04-18T12:39:44.498Z</time></trkpt><trkpt lat="43.6442268" lon="11.7573517"><ele>659.0</ele><time>2026-04-18T12:39:45.485Z</time></trkpt><trkpt lat="43.644207" lon="11.757477"><ele>659.0</ele><time>2026-04-18T12:39:46.5Z</time></trkpt><trkpt lat="43.6441398" lon="11.7575718"><ele>659.0</ele><time>2026-04-18T12:39:47.504Z</time></trkpt><trkpt lat="43.644058" lon="11.757665"><ele>659.0</ele><time>2026-04-18T12:39:48.492Z</time></trkpt><trkpt lat="43.6439797" lon="11.7577946"><ele>659.0</ele><time>2026-04-18T12:39:49.499Z</time></trkpt><trkpt lat="43.6439221" lon="11.7579608"><ele>661.0</ele><time>2026-04-18T12:39:50.499Z</time></trkpt><trkpt lat="43.6439002" lon="11.7581536"><ele>663.0</ele><time>2026-04-18T12:39:51.497Z</time></trkpt><trkpt lat="43.643898" lon="11.7583514"><ele>665.0</ele><time>2026-04-18T12:39:52.491Z</time></trkpt><trkpt lat="43.6439116" lon="11.7585443"><ele>667.0</ele><time>2026-04-18T12:39:53.487Z</time></trkpt><trkpt lat="43.6439219" lon="11.7587186"><ele>668.25</ele><time>2026-04-18T12:39:54.485Z</time></trkpt><trkpt lat="43.6439159" lon="11.7588815"><ele>669.5</ele><time>2026-04-18T12:39:55.482Z</time></trkpt><trkpt lat="43.6438972" lon="11.7590453"><ele>670.75</ele><time>2026-04-18T12:39:56.484Z</time></trkpt><trkpt lat="43.6438679" lon="11.7592142"><ele>672.0</ele><time>2026-04-18T12:39:57.476Z</time></trkpt><trkpt lat="43.643841" lon="11.7593812"><ele>672.4000000000001</ele><time>2026-04-18T12:39:58.497Z</time></trkpt><trkpt lat="43.6438196" lon="11.7595394"><ele>672.8000000000001</ele><time>2026-04-18T12:39:59.491Z</time></trkpt><trkpt lat="43.6438033" lon="11.7596727"><ele>673.2</ele><time>2026-04-18T12:40:00.484Z</time></trkpt><trkpt lat="43.6438101" lon="11.7597964"><ele>673.6</ele><time>2026-04-18T12:40:01.493Z</time></trkpt><trkpt lat="43.6438465" lon="11.7599156"><ele>674.0</ele><time>2026-04-18T12:40:02.492Z</time></trkpt><trkpt lat="43.6439081" lon="11.7600187"><ele>674.0</ele><time>2026-04-18T12:40:03.494Z</time></trkpt><trkpt lat="43.6439936" lon="11.7601051"><ele>674.0</ele><time>2026-04-18T12:40:04.488Z</time></trkpt><trkpt lat="43.6440921" lon="11.7601902"><ele>674.0</ele><time>2026-04-18T12:40:05.491Z</time></trkpt><trkpt lat="43.6441832" lon="11.7602901"><ele>674.0</ele><time>2026-04-18T12:40:06.486Z</time></trkpt><trkpt lat="43.6442615" lon="11.7604057"><ele>675.4000000000001</ele><time>2026-04-18T12:40:07.501Z</time></trkpt><trkpt lat="43.6443187" lon="11.7605354"><ele>676.8</ele><time>2026-04-18T12:40:08.507Z</time></trkpt><trkpt lat="43.6443531" lon="11.7606577"><ele>678.2</ele><time>2026-04-18T12:40:09.498Z</time></trkpt><trkpt lat="43.6444044" lon="11.7607567"><ele>679.5999999999999</ele><time>2026-04-18T12:40:10.506Z</time></trkpt><trkpt lat="43.6444861" lon="11.7608365"><ele>681.0</ele><time>2026-04-18T12:40:11.491Z</time></trkpt><trkpt lat="43.6445683" lon="11.7608857"><ele>681.0</ele><time>2026-04-18T12:40:12.486Z</time></trkpt><trkpt lat="43.6446344" lon="11.7609395"><ele>681.0</ele><time>2026-04-18T12:40:13.498Z</time></trkpt><trkpt lat="43.6446816" lon="11.7610295"><ele>681.0</ele><time>2026-04-18T12:40:14.491Z</time></trkpt><trkpt lat="43.6447018" lon="11.7611526"><ele>681.0</ele><time>2026-04-18T12:40:15.502Z</time></trkpt><trkpt lat="43.6447098" lon="11.7613218"><ele>681.0</ele><time>2026-04-18T12:40:16.491Z</time></trkpt><trkpt lat="43.6447238" lon="11.7615163"><ele>681.5</ele><time>2026-04-18T12:40:17.488Z</time></trkpt><trkpt lat="43.6447432" lon="11.7616952"><ele>682.0</ele><time>2026-04-18T12:40:18.483Z</time></trkpt><trkpt lat="43.6447359" lon="11.7618744"><ele>682.5</ele><time>2026-04-18T12:40:19.484Z</time></trkpt><trkpt lat="43.6447023" lon="11.7620708"><ele>683.0</ele><time>2026-04-18T12:40:20.509Z</time></trkpt><trkpt lat="43.6446357" lon="11.7622431"><ele>683.0</ele><time>2026-04-18T12:40:21.49Z</time></trkpt><trkpt lat="43.6445752" lon="11.7624174"><ele>683.0</ele><time>2026-04-18T12:40:22.502Z</time></trkpt><trkpt lat="43.64453" lon="11.7625935"><ele>683.0</ele><time>2026-04-18T12:40:23.489Z</time></trkpt><trkpt lat="43.644506" lon="11.7627718"><ele>683.0</ele><time>2026-04-18T12:40:24.502Z</time></trkpt><trkpt lat="43.6444992" lon="11.7629369"><ele>682.75</ele><time>2026-04-18T12:40:25.509Z</time></trkpt><trkpt lat="43.6445011" lon="11.7631038"><ele>682.5</ele><time>2026-04-18T12:40:26.492Z</time></trkpt><trkpt lat="43.6445191" lon="11.7632766"><ele>682.25</ele><time>2026-04-18T12:40:27.493Z</time></trkpt><trkpt lat="43.6445404" lon="11.7634696"><ele>682.0</ele><time>2026-04-18T12:40:28.499Z</time></trkpt><trkpt lat="43.6445585" lon="11.763657"><ele>682.0</ele><time>2026-04-18T12:40:29.495Z</time></trkpt><trkpt lat="43.6445693" lon="11.7638511"><ele>682.0</ele><time>2026-04-18T12:40:30.496Z</time></trkpt><trkpt lat="43.6445929" lon="11.7640497"><ele>682.0</ele><time>2026-04-18T12:40:31.489Z</time></trkpt><trkpt lat="43.6446278" lon="11.7642426"><ele>682.0</ele><time>2026-04-18T12:40:32.492Z</time></trkpt><trkpt lat="43.6446526" lon="11.764432"><ele>683.25</ele><time>2026-04-18T12:40:33.501Z</time></trkpt><trkpt lat="43.6446448" lon="11.7646339"><ele>684.5</ele><time>2026-04-18T12:40:34.498Z</time></trkpt><trkpt lat="43.6446231" lon="11.7648364"><ele>685.75</ele><time>2026-04-18T12:40:35.496Z</time></trkpt><trkpt lat="43.6445984" lon="11.7650173"><ele>687.0</ele><time>2026-04-18T12:40:36.497Z</time></trkpt><trkpt lat="43.6445853" lon="11.7651832"><ele>688.4000000000001</ele><time>2026-04-18T12:40:37.495Z</time></trkpt><trkpt lat="43.6445586" lon="11.765334"><ele>689.8000000000001</ele><time>2026-04-18T12:40:38.495Z</time></trkpt><trkpt lat="43.6445015" lon="11.765458"><ele>691.2</ele><time>2026-04-18T12:40:39.491Z</time></trkpt><trkpt lat="43.6444321" lon="11.7655558"><ele>692.6</ele><time>2026-04-18T12:40:40.5Z</time></trkpt><trkpt lat="43.6443697" lon="11.7656752"><ele>694.0</ele><time>2026-04-18T12:40:41.479Z</time></trkpt><trkpt lat="43.6443243" lon="11.7658199"><ele>687.0</ele><time>2026-04-18T12:40:42.49Z</time></trkpt><trkpt lat="43.64431" lon="11.7659415"><ele>680.0</ele><time>2026-04-18T12:40:43.476Z</time></trkpt><trkpt lat="43.6442951" lon="11.7660589"><ele>673.0</ele><time>2026-04-18T12:40:44.488Z</time></trkpt><trkpt lat="43.6442678" lon="11.7661871"><ele>666.0</ele><time>2026-04-18T12:40:45.489Z</time></trkpt><trkpt lat="43.6442513" lon="11.7663056"><ele>659.0</ele><time>2026-04-18T12:40:46.494Z</time></trkpt><trkpt lat="43.6442434" lon="11.7664252"><ele>652.0</ele><time>2026-04-18T12:40:47.484Z</time></trkpt><trkpt lat="43.6442532" lon="11.7665583"><ele>652.0</ele><time>2026-04-18T12:40:48.484Z</time></trkpt><trkpt lat="43.6442677" lon="11.7667131"><ele>652.0</ele><time>2026-04-18T12:40:49.494Z</time></trkpt><trkpt lat="43.6442839" lon="11.7668747"><ele>652.0</ele><time>2026-04-18T12:40:50.487Z</time></trkpt><trkpt lat="43.6442828" lon="11.7670394"><ele>652.0</ele><time>2026-04-18T12:40:51.487Z</time></trkpt><trkpt lat="43.6442801" lon="11.7672198"><ele>653.0</ele><time>2026-04-18T12:40:52.488Z</time></trkpt><trkpt lat="43.6442755" lon="11.7673982"><ele>654.0</ele><time>2026-04-18T12:40:53.487Z</time></trkpt><trkpt lat="43.6442687" lon="11.7675903"><ele>655.0</ele><time>2026-04-18T12:40:54.489Z</time></trkpt><trkpt lat="43.6442698" lon="11.7677735"><ele>656.0</ele><time>2026-04-18T12:40:55.502Z</time></trkpt><trkpt lat="43.6442579" lon="11.7679502"><ele>656.5</ele><time>2026-04-18T12:40:56.487Z</time></trkpt><trkpt lat="43.6442475" lon="11.7681221"><ele>657.0</ele><time>2026-04-18T12:40:57.482Z</time></trkpt><trkpt lat="43.6442399" lon="11.768287"><ele>657.5</ele><time>2026-04-18T12:40:58.482Z</time></trkpt><trkpt lat="43.6442306" lon="11.7684375"><ele>658.0</ele><time>2026-04-18T12:40:59.491Z</time></trkpt><trkpt lat="43.6442016" lon="11.7685743"><ele>661.5</ele><time>2026-04-18T12:41:00.489Z</time></trkpt><trkpt lat="43.6441446" lon="11.7686741"><ele>665.0</ele><time>2026-04-18T12:41:01.489Z</time></trkpt><trkpt lat="43.6440472" lon="11.768746"><ele>668.5</ele><time>2026-04-18T12:41:02.492Z</time></trkpt><trkpt lat="43.6439218" lon="11.7688008"><ele>672.0</ele><time>2026-04-18T12:41:03.493Z</time></trkpt><trkpt lat="43.6438183" lon="11.7688914"><ele>672.0</ele><time>2026-04-18T12:41:04.488Z</time></trkpt><trkpt lat="43.643747" lon="11.769022"><ele>672.0</ele><time>2026-04-18T12:41:05.485Z</time></trkpt><trkpt lat="43.6437104" lon="11.7691682"><ele>672.0</ele><time>2026-04-18T12:41:06.482Z</time></trkpt><trkpt lat="43.6437034" lon="11.7693365"><ele>672.0</ele><time>2026-04-18T12:41:07.5Z</time></trkpt><trkpt lat="43.6437247" lon="11.7695214"><ele>672.5</ele><time>2026-04-18T12:41:08.485Z</time></trkpt><trkpt lat="43.6437521" lon="11.7697277"><ele>673.0</ele><time>2026-04-18T12:41:09.489Z</time></trkpt><trkpt lat="43.6437778" lon="11.7699279"><ele>673.5</ele><time>2026-04-18T12:41:10.491Z</time></trkpt><trkpt lat="43.6437995" lon="11.7701207"><ele>674.0</ele><time>2026-04-18T12:41:11.493Z</time></trkpt><trkpt lat="43.6438234" lon="11.770296"><ele>672.25</ele><time>2026-04-18T12:41:12.486Z</time></trkpt><trkpt lat="43.6438432" lon="11.7704672"><ele>670.5</ele><time>2026-04-18T12:41:13.489Z</time></trkpt><trkpt lat="43.6438723" lon="11.7706313"><ele>668.75</ele><time>2026-04-18T12:41:14.495Z</time></trkpt><trkpt lat="43.6439045" lon="11.7707997"><ele>667.0</ele><time>2026-04-18T12:41:15.49Z</time></trkpt><trkpt lat="43.6439249" lon="11.7709668"><ele>667.75</ele><time>2026-04-18T12:41:16.493Z</time></trkpt><trkpt lat="43.643923" lon="11.7711523"><ele>668.5</ele><time>2026-04-18T12:41:17.502Z</time></trkpt><trkpt lat="43.6439065" lon="11.7713379"><ele>669.25</ele><time>2026-04-18T12:41:18.503Z</time></trkpt><trkpt lat="43.6439035" lon="11.771513"><ele>670.0</ele><time>2026-04-18T12:41:19.487Z</time></trkpt><trkpt lat="43.6439032" lon="11.7716871"><ele>670.0</ele><time>2026-04-18T12:41:20.49Z</time></trkpt><trkpt lat="43.6438813" lon="11.771847"><ele>670.0</ele><time>2026-04-18T12:41:21.499Z</time></trkpt><trkpt lat="43.6438273" lon="11.7719997"><ele>670.0</ele><time>2026-04-18T12:41:22.491Z</time></trkpt><trkpt lat="43.6437522" lon="11.7721381"><ele>670.0</ele><time>2026-04-18T12:41:23.493Z</time></trkpt><trkpt lat="43.6436922" lon="11.7722843"><ele>673.0</ele><time>2026-04-18T12:41:24.498Z</time></trkpt><trkpt lat="43.6436753" lon="11.7724323"><ele>676.0</ele><time>2026-04-18T12:41:25.491Z</time></trkpt><trkpt lat="43.6436914" lon="11.772599"><ele>679.0</ele><time>2026-04-18T12:41:26.488Z</time></trkpt><trkpt lat="43.643689" lon="11.7727697"><ele>682.0</ele><time>2026-04-18T12:41:27.489Z</time></trkpt><trkpt lat="43.6436882" lon="11.7729424"><ele>684.75</ele><time>2026-04-18T12:41:28.481Z</time></trkpt><trkpt lat="43.6436675" lon="11.7731311"><ele>687.5</ele><time>2026-04-18T12:41:29.495Z</time></trkpt><trkpt lat="43.643637" lon="11.77333"><ele>690.25</ele><time>2026-04-18T12:41:30.49Z</time></trkpt><trkpt lat="43.6436051" lon="11.773523"><ele>693.0</ele><time>2026-04-18T12:41:31.483Z</time></trkpt><trkpt lat="43.6435782" lon="11.7737126"><ele>685.75</ele><time>2026-04-18T12:41:32.489Z</time></trkpt><trkpt lat="43.6435559" lon="11.7738908"><ele>678.5</ele><time>2026-04-18T12:41:33.489Z</time></trkpt><trkpt lat="43.6435254" lon="11.7740586"><ele>671.25</ele><time>2026-04-18T12:41:34.494Z</time></trkpt><trkpt lat="43.643475" lon="11.7742136"><ele>664.0</ele><time>2026-04-18T12:41:35.499Z</time></trkpt><trkpt lat="43.6434171" lon="11.774362"><ele>664.0</ele><time>2026-04-18T12:41:36.499Z</time></trkpt><trkpt lat="43.6433611" lon="11.7745088"><ele>664.0</ele><time>2026-04-18T12:41:37.497Z</time></trkpt><trkpt lat="43.6433317" lon="11.7746625"><ele>664.0</ele><time>2026-04-18T12:41:38.489Z</time></trkpt><trkpt lat="43.643313" lon="11.774821"><ele>664.0</ele><time>2026-04-18T12:41:39.489Z</time></trkpt><trkpt lat="43.6433069" lon="11.7749933"><ele>664.0</ele><time>2026-04-18T12:41:40.499Z</time></trkpt><trkpt lat="43.6433075" lon="11.7751611"><ele>664.0</ele><time>2026-04-18T12:41:41.486Z</time></trkpt><trkpt lat="43.643304" lon="11.775335"><ele>664.0</ele><time>2026-04-18T12:41:42.489Z</time></trkpt><trkpt lat="43.6433032" lon="11.775509"><ele>664.0</ele><time>2026-04-18T12:41:43.48Z</time></trkpt><trkpt lat="43.6433016" lon="11.7756771"><ele>665.5</ele><time>2026-04-18T12:41:44.481Z</time></trkpt><trkpt lat="43.6432984" lon="11.7758584"><ele>667.0</ele><time>2026-04-18T12:41:45.489Z</time></trkpt><trkpt lat="43.643293" lon="11.7760401"><ele>668.5</ele><time>2026-04-18T12:41:46.487Z</time></trkpt><trkpt lat="43.6432807" lon="11.7762272"><ele>670.0</ele><time>2026-04-18T12:41:47.494Z</time></trkpt><trkpt lat="43.6432797" lon="11.776436"><ele>670.3333333333334</ele><time>2026-04-18T12:41:48.486Z</time></trkpt><trkpt lat="43.6432764" lon="11.7766558"><ele>670.6666666666666</ele><time>2026-04-18T12:41:49.488Z</time></trkpt><trkpt lat="43.6432602" lon="11.7768753"><ele>671.0</ele><time>2026-04-18T12:41:50.498Z</time></trkpt><trkpt lat="43.6432329" lon="11.7770813"><ele>671.25</ele><time>2026-04-18T12:41:51.489Z</time></trkpt><trkpt lat="43.6432053" lon="11.7772645"><ele>671.5</ele><time>2026-04-18T12:41:52.499Z</time></trkpt><trkpt lat="43.6431704" lon="11.777436"><ele>671.75</ele><time>2026-04-18T12:41:53.49Z</time></trkpt><trkpt lat="43.6431319" lon="11.7776075"><ele>672.0</ele><time>2026-04-18T12:41:54.49Z</time></trkpt><trkpt lat="43.6430882" lon="11.7777729"><ele>672.0</ele><time>2026-04-18T12:41:55.482Z</time></trkpt><trkpt lat="43.643032" lon="11.7779268"><ele>672.0</ele><time>2026-04-18T12:41:56.493Z</time></trkpt><trkpt lat="43.64297" lon="11.7780716"><ele>672.0</ele><time>2026-04-18T12:41:57.495Z</time></trkpt><trkpt lat="43.6429228" lon="11.7782109"><ele>672.0</ele><time>2026-04-18T12:41:58.494Z</time></trkpt><trkpt lat="43.642877" lon="11.7783376"><ele>672.0</ele><time>2026-04-18T12:41:59.496Z</time></trkpt><trkpt lat="43.6428367" lon="11.7784669"><ele>672.0</ele><time>2026-04-18T12:42:00.499Z</time></trkpt><trkpt lat="43.6427829" lon="11.7785903"><ele>672.0</ele><time>2026-04-18T12:42:01.496Z</time></trkpt><trkpt lat="43.6427303" lon="11.7787222"><ele>672.0</ele><time>2026-04-18T12:42:02.498Z</time></trkpt><trkpt lat="43.6426886" lon="11.7788444"><ele>672.0</ele><time>2026-04-18T12:42:03.498Z</time></trkpt><trkpt lat="43.642656" lon="11.7789615"><ele>671.5</ele><time>2026-04-18T12:42:04.499Z</time></trkpt><trkpt lat="43.6426211" lon="11.7790739"><ele>671.0</ele><time>2026-04-18T12:42:05.488Z</time></trkpt><trkpt lat="43.6425919" lon="11.77918"><ele>670.5</ele><time>2026-04-18T12:42:06.49Z</time></trkpt><trkpt lat="43.6425716" lon="11.7792917"><ele>670.0</ele><time>2026-04-18T12:42:07.497Z</time></trkpt><trkpt lat="43.6425688" lon="11.7794102"><ele>669.5</ele><time>2026-04-18T12:42:08.49Z</time></trkpt><trkpt lat="43.6425755" lon="11.7795241"><ele>669.0</ele><time>2026-04-18T12:42:09.508Z</time></trkpt><trkpt lat="43.6426128" lon="11.7796337"><ele>669.0</ele><time>2026-04-18T12:42:10.494Z</time></trkpt><trkpt lat="43.6426645" lon="11.7797256"><ele>669.0</ele><time>2026-04-18T12:42:11.493Z</time></trkpt><trkpt lat="43.6427327" lon="11.7798069"><ele>669.0</ele><time>2026-04-18T12:42:12.492Z</time></trkpt><trkpt lat="43.6428144" lon="11.7798683"><ele>669.0</ele><time>2026-04-18T12:42:13.493Z</time></trkpt><trkpt lat="43.6429045" lon="11.7799159"><ele>669.0</ele><time>2026-04-18T12:42:14.492Z</time></trkpt><trkpt lat="43.6430001" lon="11.7799605"><ele>666.6</ele><time>2026-04-18T12:42:15.485Z</time></trkpt><trkpt lat="43.6430898" lon="11.7799882"><ele>664.2</ele><time>2026-04-18T12:42:16.49Z</time></trkpt><trkpt lat="43.6431668" lon="11.7799737"><ele>661.8000000000001</ele><time>2026-04-18T12:42:17.495Z</time></trkpt><trkpt lat="43.6432521" lon="11.7799167"><ele>659.4000000000001</ele><time>2026-04-18T12:42:18.488Z</time></trkpt><trkpt lat="43.6433227" lon="11.7798176"><ele>657.0</ele><time>2026-04-18T12:42:19.489Z</time></trkpt><trkpt lat="43.6433956" lon="11.7797139"><ele>657.0</ele><time>2026-04-18T12:42:20.487Z</time></trkpt><trkpt lat="43.6434781" lon="11.7796186"><ele>657.0</ele><time>2026-04-18T12:42:21.485Z</time></trkpt><trkpt lat="43.6435635" lon="11.7795407"><ele>657.0</ele><time>2026-04-18T12:42:22.491Z</time></trkpt><trkpt lat="43.6436597" lon="11.7794883"><ele>657.0</ele><time>2026-04-18T12:42:23.502Z</time></trkpt><trkpt lat="43.6437641" lon="11.7794546"><ele>657.0</ele><time>2026-04-18T12:42:24.488Z</time></trkpt><trkpt lat="43.6438657" lon="11.779444"><ele>654.6</ele><time>2026-04-18T12:42:25.488Z</time></trkpt><trkpt lat="43.6439669" lon="11.7794315"><ele>652.2</ele><time>2026-04-18T12:42:26.497Z</time></trkpt><trkpt lat="43.6440736" lon="11.7794138"><ele>649.8</ele><time>2026-04-18T12:42:27.487Z</time></trkpt><trkpt lat="43.6441881" lon="11.7793984"><ele>647.4</ele><time>2026-04-18T12:42:28.49Z</time></trkpt><trkpt lat="43.6443102" lon="11.7793841"><ele>645.0</ele><time>2026-04-18T12:42:29.496Z</time></trkpt><trkpt lat="43.6444357" lon="11.779371"><ele>646.75</ele><time>2026-04-18T12:42:30.496Z</time></trkpt><trkpt lat="43.6445529" lon="11.7793602"><ele>648.5</ele><time>2026-04-18T12:42:31.489Z</time></trkpt><trkpt lat="43.644671" lon="11.7793515"><ele>650.25</ele><time>2026-04-18T12:42:32.491Z</time></trkpt><trkpt lat="43.6447908" lon="11.7793429"><ele>652.0</ele><time>2026-04-18T12:42:33.497Z</time></trkpt><trkpt lat="43.6449065" lon="11.7793298"><ele>652.0</ele><time>2026-04-18T12:42:34.496Z</time></trkpt><trkpt lat="43.6450283" lon="11.7793192"><ele>652.0</ele><time>2026-04-18T12:42:35.5Z</time></trkpt><trkpt lat="43.6451495" lon="11.7793224"><ele>652.0</ele><time>2026-04-18T12:42:36.494Z</time></trkpt><trkpt lat="43.6452792" lon="11.7793517"><ele>652.0</ele><time>2026-04-18T12:42:37.494Z</time></trkpt><trkpt lat="43.6454157" lon="11.779393"><ele>647.25</ele><time>2026-04-18T12:42:38.488Z</time></trkpt><trkpt lat="43.6455536" lon="11.7794404"><ele>642.5</ele><time>2026-04-18T12:42:39.486Z</time></trkpt><trkpt lat="43.6456872" lon="11.7794884"><ele>637.75</ele><time>2026-04-18T12:42:40.5Z</time></trkpt><trkpt lat="43.6458213" lon="11.7795551"><ele>633.0</ele><time>2026-04-18T12:42:41.492Z</time></trkpt><trkpt lat="43.6459503" lon="11.7796153"><ele>633.0</ele><time>2026-04-18T12:42:42.487Z</time></trkpt><trkpt lat="43.6460724" lon="11.7796784"><ele>633.0</ele><time>2026-04-18T12:42:43.495Z</time></trkpt><trkpt lat="43.6461991" lon="11.7797598"><ele>633.0</ele><time>2026-04-18T12:42:44.489Z</time></trkpt><trkpt lat="43.6463234" lon="11.7798263"><ele>633.0</ele><time>2026-04-18T12:42:45.481Z</time></trkpt><trkpt lat="43.6464548" lon="11.7798913"><ele>633.25</ele><time>2026-04-18T12:42:46.501Z</time></trkpt><trkpt lat="43.6465899" lon="11.7799613"><ele>633.5</ele><time>2026-04-18T12:42:47.49Z</time></trkpt><trkpt lat="43.6467212" lon="11.7800493"><ele>633.75</ele><time>2026-04-18T12:42:48.486Z</time></trkpt><trkpt lat="43.6468423" lon="11.7801353"><ele>634.0</ele><time>2026-04-18T12:42:49.496Z</time></trkpt><trkpt lat="43.646961" lon="11.7802222"><ele>630.8</ele><time>2026-04-18T12:42:50.485Z</time></trkpt><trkpt lat="43.6470602" lon="11.7803259"><ele>627.5999999999999</ele><time>2026-04-18T12:42:51.494Z</time></trkpt><trkpt lat="43.6471564" lon="11.7804173"><ele>624.4</ele><time>2026-04-18T12:42:52.497Z</time></trkpt><trkpt lat="43.6472446" lon="11.7804767"><ele>621.1999999999999</ele><time>2026-04-18T12:42:53.495Z</time></trkpt><trkpt lat="43.6473236" lon="11.7805082"><ele>618.0</ele><time>2026-04-18T12:42:54.483Z</time></trkpt><trkpt lat="43.6474089" lon="11.7805095"><ele>618.0</ele><time>2026-04-18T12:42:55.481Z</time></trkpt><trkpt lat="43.6474907" lon="11.7804712"><ele>618.0</ele><time>2026-04-18T12:42:56.496Z</time></trkpt><trkpt lat="43.64758" lon="11.7804149"><ele>618.0</ele><time>2026-04-18T12:42:57.484Z</time></trkpt><trkpt lat="43.6476713" lon="11.7803509"><ele>618.0</ele><time>2026-04-18T12:42:58.497Z</time></trkpt><trkpt lat="43.6477638" lon="11.7802863"><ele>618.0</ele><time>2026-04-18T12:42:59.493Z</time></trkpt><trkpt lat="43.6478616" lon="11.7802314"><ele>618.0</ele><time>2026-04-18T12:43:00.491Z</time></trkpt><trkpt lat="43.6479552" lon="11.7801793"><ele>618.0</ele><time>2026-04-18T12:43:01.507Z</time></trkpt><trkpt lat="43.6480474" lon="11.7801428"><ele>618.0</ele><time>2026-04-18T12:43:02.503Z</time></trkpt><trkpt lat="43.6481395" lon="11.7801403"><ele>618.0</ele><time>2026-04-18T12:43:03.492Z</time></trkpt><trkpt lat="43.6482244" lon="11.7802"><ele>618.0</ele><time>2026-04-18T12:43:04.493Z</time></trkpt><trkpt lat="43.6482848" lon="11.7803066"><ele>616.1999999999999</ele><time>2026-04-18T12:43:05.494Z</time></trkpt><trkpt lat="43.6483345" lon="11.7804427"><ele>614.4</ele><time>2026-04-18T12:43:06.495Z</time></trkpt><trkpt lat="43.6483345" lon="11.7805759"><ele>612.5999999999999</ele><time>2026-04-18T12:43:07.493Z</time></trkpt><trkpt lat="43.6483043" lon="11.7807101"><ele>610.8</ele><time>2026-04-18T12:43:08.493Z</time></trkpt><trkpt lat="43.6482565" lon="11.7808212"><ele>609.0</ele><time>2026-04-18T12:43:09.5Z</time></trkpt><trkpt lat="43.6481845" lon="11.7809579"><ele>606.6</ele><time>2026-04-18T12:43:11.502Z</time></trkpt><trkpt lat="43.6481341" lon="11.7810241"><ele>604.2</ele><time>2026-04-18T12:43:12.498Z</time></trkpt><trkpt lat="43.648073" lon="11.781095"><ele>601.8000000000001</ele><time>2026-04-18T12:43:13.501Z</time></trkpt><trkpt lat="43.6479967" lon="11.7811496"><ele>599.4</ele><time>2026-04-18T12:43:14.491Z</time></trkpt><trkpt lat="43.6479019" lon="11.7811802"><ele>597.0</ele><time>2026-04-18T12:43:15.486Z</time></trkpt><trkpt lat="43.6477849" lon="11.7811851"><ele>597.0</ele><time>2026-04-18T12:43:16.487Z</time></trkpt><trkpt lat="43.6476526" lon="11.781179"><ele>597.0</ele><time>2026-04-18T12:43:17.498Z</time></trkpt><trkpt lat="43.647515" lon="11.7811853"><ele>597.0</ele><time>2026-04-18T12:43:18.488Z</time></trkpt><trkpt lat="43.6473657" lon="11.7812178"><ele>597.0</ele><time>2026-04-18T12:43:19.5Z</time></trkpt><trkpt lat="43.6471933" lon="11.7812795"><ele>597.0</ele><time>2026-04-18T12:43:20.486Z</time></trkpt><trkpt lat="43.6470222" lon="11.7813488"><ele>597.0</ele><time>2026-04-18T12:43:21.499Z</time></trkpt><trkpt lat="43.6468705" lon="11.7814174"><ele>597.0</ele><time>2026-04-18T12:43:22.489Z</time></trkpt><trkpt lat="43.6467293" lon="11.7814801"><ele>597.8333333333334</ele><time>2026-04-18T12:43:23.487Z</time></trkpt><trkpt lat="43.6466222" lon="11.7815347"><ele>598.6666666666666</ele><time>2026-04-18T12:43:24.504Z</time></trkpt><trkpt lat="43.646549" lon="11.7815671"><ele>599.5</ele><time>2026-04-18T12:43:25.497Z</time></trkpt><trkpt lat="43.6464894" lon="11.7815971"><ele>600.3333333333333</ele><time>2026-04-18T12:43:26.499Z</time></trkpt><trkpt lat="43.6464379" lon="11.7816701"><ele>601.1666666666666</ele><time>2026-04-18T12:43:27.488Z</time></trkpt><trkpt lat="43.6464151" lon="11.7817866"><ele>602.0</ele><time>2026-04-18T12:43:28.488Z</time></trkpt><trkpt lat="43.6464308" lon="11.7818934"><ele>598.0</ele><time>2026-04-18T12:43:29.486Z</time></trkpt><trkpt lat="43.6464936" lon="11.7819975"><ele>594.0</ele><time>2026-04-18T12:43:30.492Z</time></trkpt><trkpt lat="43.646594" lon="11.7820495"><ele>590.0</ele><time>2026-04-18T12:43:31.494Z</time></trkpt><trkpt lat="43.6466963" lon="11.7820459"><ele>586.0</ele><time>2026-04-18T12:43:32.492Z</time></trkpt><trkpt lat="43.6468007" lon="11.7820201"><ele>582.0</ele><time>2026-04-18T12:43:33.497Z</time></trkpt><trkpt lat="43.6469106" lon="11.7819897"><ele>581.0</ele><time>2026-04-18T12:43:34.494Z</time></trkpt><trkpt lat="43.6470284" lon="11.7819755"><ele>580.0</ele><time>2026-04-18T12:43:35.486Z</time></trkpt><trkpt lat="43.6471488" lon="11.7819616"><ele>579.0</ele><time>2026-04-18T12:43:36.488Z</time></trkpt><trkpt lat="43.6472781" lon="11.7819421"><ele>578.0</ele><time>2026-04-18T12:43:37.494Z</time></trkpt><trkpt lat="43.6474136" lon="11.7819192"><ele>578.0</ele><time>2026-04-18T12:43:38.497Z</time></trkpt><trkpt lat="43.6475484" lon="11.7819026"><ele>578.0</ele><time>2026-04-18T12:43:39.492Z</time></trkpt><trkpt lat="43.6476776" lon="11.7818828"><ele>578.0</ele><time>2026-04-18T12:43:40.495Z</time></trkpt><trkpt lat="43.647801" lon="11.7818601"><ele>578.0</ele><time>2026-04-18T12:43:41.475Z</time></trkpt><trkpt lat="43.6479297" lon="11.781834"><ele>580.5</ele><time>2026-04-18T12:43:42.48Z</time></trkpt><trkpt lat="43.6480567" lon="11.781785"><ele>583.0</ele><time>2026-04-18T12:43:43.494Z</time></trkpt><trkpt lat="43.6481864" lon="11.7817131"><ele>585.5</ele><time>2026-04-18T12:43:44.486Z</time></trkpt><trkpt lat="43.6483114" lon="11.7816226"><ele>588.0</ele><time>2026-04-18T12:43:45.483Z</time></trkpt><trkpt lat="43.6484447" lon="11.7815227"><ele>588.0</ele><time>2026-04-18T12:43:46.491Z</time></trkpt><trkpt lat="43.6485664" lon="11.7814285"><ele>588.0</ele><time>2026-04-18T12:43:47.502Z</time></trkpt><trkpt lat="43.648681" lon="11.7813334"><ele>588.0</ele><time>2026-04-18T12:43:48.489Z</time></trkpt><trkpt lat="43.6487735" lon="11.7812689"><ele>588.0</ele><time>2026-04-18T12:43:49.491Z</time></trkpt><trkpt lat="43.6488364" lon="11.7812287"><ele>588.0</ele><time>2026-04-18T12:43:50.476Z</time></trkpt><trkpt lat="43.6489433" lon="11.7812778"><ele>584.1999999999999</ele><time>2026-04-18T12:43:52.481Z</time></trkpt><trkpt lat="43.648957" lon="11.781364"><ele>580.4</ele><time>2026-04-18T12:43:53.492Z</time></trkpt><trkpt lat="43.648935" lon="11.7814577"><ele>576.5999999999999</ele><time>2026-04-18T12:43:54.489Z</time></trkpt><trkpt lat="43.6488708" lon="11.7815398"><ele>572.8</ele><time>2026-04-18T12:43:55.486Z</time></trkpt><trkpt lat="43.64878" lon="11.7816101"><ele>569.0</ele><time>2026-04-18T12:43:56.494Z</time></trkpt><trkpt lat="43.6486646" lon="11.7817143"><ele>568.6666666666666</ele><time>2026-04-18T12:43:57.481Z</time></trkpt><trkpt lat="43.6485287" lon="11.7818502"><ele>568.3333333333334</ele><time>2026-04-18T12:43:58.506Z</time></trkpt><trkpt lat="43.6484162" lon="11.781999"><ele>568.0</ele><time>2026-04-18T12:43:59.484Z</time></trkpt><trkpt lat="43.6483013" lon="11.7821555"><ele>568.0</ele><time>2026-04-18T12:44:00.49Z</time></trkpt><trkpt lat="43.6481701" lon="11.7822944"><ele>568.0</ele><time>2026-04-18T12:44:01.499Z</time></trkpt><trkpt lat="43.6480328" lon="11.7824419"><ele>568.0</ele><time>2026-04-18T12:44:02.488Z</time></trkpt><trkpt lat="43.6478946" lon="11.7825872"><ele>565.0</ele><time>2026-04-18T12:44:03.502Z</time></trkpt><trkpt lat="43.6477526" lon="11.7827321"><ele>562.0</ele><time>2026-04-18T12:44:04.489Z</time></trkpt><trkpt lat="43.647615" lon="11.7828685"><ele>559.0</ele><time>2026-04-18T12:44:05.48Z</time></trkpt><trkpt lat="43.6474842" lon="11.7829906"><ele>559.0</ele><time>2026-04-18T12:44:06.485Z</time></trkpt><trkpt lat="43.6473563" lon="11.7831125"><ele>559.0</ele><time>2026-04-18T12:44:07.496Z</time></trkpt><trkpt lat="43.6472347" lon="11.7832281"><ele>559.0</ele><time>2026-04-18T12:44:08.485Z</time></trkpt><trkpt lat="43.6471348" lon="11.7833377"><ele>559.0</ele><time>2026-04-18T12:44:09.485Z</time></trkpt><trkpt lat="43.6470415" lon="11.7834221"><ele>559.8</ele><time>2026-04-18T12:44:10.478Z</time></trkpt><trkpt lat="43.6469485" lon="11.7835032"><ele>560.5999999999999</ele><time>2026-04-18T12:44:11.489Z</time></trkpt><trkpt lat="43.6468625" lon="11.7835873"><ele>561.4</ele><time>2026-04-18T12:44:12.499Z</time></trkpt><trkpt lat="43.6467961" lon="11.7836966"><ele>562.1999999999999</ele><time>2026-04-18T12:44:13.487Z</time></trkpt><trkpt lat="43.6467533" lon="11.7838119"><ele>563.0</ele><time>2026-04-18T12:44:14.488Z</time></trkpt><trkpt lat="43.646742" lon="11.7839375"><ele>561.4</ele><time>2026-04-18T12:44:15.493Z</time></trkpt><trkpt lat="43.6467377" lon="11.7840738"><ele>559.8</ele><time>2026-04-18T12:44:16.479Z</time></trkpt><trkpt lat="43.6467537" lon="11.7842022"><ele>558.2</ele><time>2026-04-18T12:44:17.492Z</time></trkpt><trkpt lat="43.646767" lon="11.7843309"><ele>556.6</ele><time>2026-04-18T12:44:18.518Z</time></trkpt><trkpt lat="43.6467796" lon="11.7844547"><ele>555.0</ele><time>2026-04-18T12:44:19.479Z</time></trkpt><trkpt lat="43.6467929" lon="11.7845795"><ele>553.8</ele><time>2026-04-18T12:44:20.501Z</time></trkpt><trkpt lat="43.6468285" lon="11.7846929"><ele>552.6</ele><time>2026-04-18T12:44:21.5Z</time></trkpt><trkpt lat="43.6469049" lon="11.7847833"><ele>551.4</ele><time>2026-04-18T12:44:22.476Z</time></trkpt><trkpt lat="43.6469947" lon="11.7848234"><ele>550.2</ele><time>2026-04-18T12:44:23.491Z</time></trkpt><trkpt lat="43.6470945" lon="11.7848441"><ele>549.0</ele><time>2026-04-18T12:44:24.483Z</time></trkpt><trkpt lat="43.6471947" lon="11.7848641"><ele>549.0</ele><time>2026-04-18T12:44:25.481Z</time></trkpt><trkpt lat="43.6472909" lon="11.7848816"><ele>549.0</ele><time>2026-04-18T12:44:26.481Z</time></trkpt><trkpt lat="43.6473639" lon="11.7848877"><ele>549.0</ele><time>2026-04-18T12:44:27.488Z</time></trkpt><trkpt lat="43.6474677" lon="11.7848959"><ele>549.0</ele><time>2026-04-18T12:44:29.494Z</time></trkpt><trkpt lat="43.6475506" lon="11.7848523"><ele>549.0</ele><time>2026-04-18T12:44:31.478Z</time></trkpt><trkpt lat="43.647599" lon="11.7847475"><ele>549.0</ele><time>2026-04-18T12:44:33.496Z</time></trkpt><trkpt lat="43.6476148" lon="11.7846216"><ele>549.0</ele><time>2026-04-18T12:44:35.498Z</time></trkpt><trkpt lat="43.6476131" lon="11.7845197"><ele>549.0</ele><time>2026-04-18T12:44:36.482Z</time></trkpt><trkpt lat="43.6476152" lon="11.784406"><ele>549.0</ele><time>2026-04-18T12:44:37.492Z</time></trkpt><trkpt lat="43.6476246" lon="11.7843006"><ele>549.0</ele><time>2026-04-18T12:44:38.497Z</time></trkpt><trkpt lat="43.6476602" lon="11.7842236"><ele>549.0</ele><time>2026-04-18T12:44:39.494Z</time></trkpt><trkpt lat="43.6477268" lon="11.7841713"><ele>547.6</ele><time>2026-04-18T12:44:40.474Z</time></trkpt><trkpt lat="43.6478057" lon="11.7841619"><ele>546.2</ele><time>2026-04-18T12:44:41.49Z</time></trkpt><trkpt lat="43.647895" lon="11.7841852"><ele>544.8000000000001</ele><time>2026-04-18T12:44:42.485Z</time></trkpt><trkpt lat="43.6480047" lon="11.7842482"><ele>543.4</ele><time>2026-04-18T12:44:43.484Z</time></trkpt><trkpt lat="43.6481233" lon="11.7842977"><ele>542.0</ele><time>2026-04-18T12:44:44.493Z</time></trkpt><trkpt lat="43.6482578" lon="11.7843631"><ele>540.25</ele><time>2026-04-18T12:44:45.488Z</time></trkpt><trkpt lat="43.6483967" lon="11.7844255"><ele>538.5</ele><time>2026-04-18T12:44:46.492Z</time></trkpt><trkpt lat="43.648531" lon="11.7844904"><ele>536.75</ele><time>2026-04-18T12:44:47.484Z</time></trkpt><trkpt lat="43.6486588" lon="11.7845426"><ele>535.0</ele><time>2026-04-18T12:44:48.49Z</time></trkpt><trkpt lat="43.6487682" lon="11.7845851"><ele>534.2</ele><time>2026-04-18T12:44:49.489Z</time></trkpt><trkpt lat="43.6488628" lon="11.7846215"><ele>533.4</ele><time>2026-04-18T12:44:50.5Z</time></trkpt><trkpt lat="43.6489543" lon="11.7846134"><ele>532.6</ele><time>2026-04-18T12:44:51.485Z</time></trkpt><trkpt lat="43.6490264" lon="11.7845562"><ele>531.8</ele><time>2026-04-18T12:44:52.486Z</time></trkpt><trkpt lat="43.6490919" lon="11.7844433"><ele>531.0</ele><time>2026-04-18T12:44:53.489Z</time></trkpt><trkpt lat="43.649129" lon="11.7843096"><ele>531.0</ele><time>2026-04-18T12:44:54.496Z</time></trkpt><trkpt lat="43.6491447" lon="11.7841804"><ele>531.0</ele><time>2026-04-18T12:44:55.494Z</time></trkpt><trkpt lat="43.6491738" lon="11.784064"><ele>531.0</ele><time>2026-04-18T12:44:56.488Z</time></trkpt><trkpt lat="43.6492268" lon="11.7839671"><ele>531.0</ele><time>2026-04-18T12:44:57.488Z</time></trkpt><trkpt lat="43.6492947" lon="11.783865"><ele>531.0</ele><time>2026-04-18T12:44:58.493Z</time></trkpt><trkpt lat="43.6493855" lon="11.7838013"><ele>529.5</ele><time>2026-04-18T12:44:59.484Z</time></trkpt><trkpt lat="43.6494744" lon="11.7837621"><ele>528.0</ele><time>2026-04-18T12:45:00.481Z</time></trkpt><trkpt lat="43.6495619" lon="11.7837308"><ele>526.5</ele><time>2026-04-18T12:45:01.483Z</time></trkpt><trkpt lat="43.6496453" lon="11.7837067"><ele>525.0</ele><time>2026-04-18T12:45:02.489Z</time></trkpt><trkpt lat="43.6497259" lon="11.7836818"><ele>523.5</ele><time>2026-04-18T12:45:03.494Z</time></trkpt><trkpt lat="43.6498008" lon="11.7836858"><ele>522.0</ele><time>2026-04-18T12:45:04.497Z</time></trkpt><trkpt lat="43.6498818" lon="11.7837313"><ele>522.0</ele><time>2026-04-18T12:45:05.497Z</time></trkpt><trkpt lat="43.6499619" lon="11.7838119"><ele>522.0</ele><time>2026-04-18T12:45:06.491Z</time></trkpt><trkpt lat="43.6500279" lon="11.7839228"><ele>522.0</ele><time>2026-04-18T12:45:07.49Z</time></trkpt><trkpt lat="43.6500944" lon="11.7840441"><ele>522.0</ele><time>2026-04-18T12:45:08.498Z</time></trkpt><trkpt lat="43.6501548" lon="11.7841615"><ele>522.0</ele><time>2026-04-18T12:45:09.489Z</time></trkpt><trkpt lat="43.6502066" lon="11.7842681"><ele>521.6</ele><time>2026-04-18T12:45:10.496Z</time></trkpt><trkpt lat="43.6502591" lon="11.784375"><ele>521.2</ele><time>2026-04-18T12:45:11.494Z</time></trkpt><trkpt lat="43.6503035" lon="11.7844863"><ele>520.8</ele><time>2026-04-18T12:45:12.486Z</time></trkpt><trkpt lat="43.6503407" lon="11.7846063"><ele>520.4</ele><time>2026-04-18T12:45:13.506Z</time></trkpt><trkpt lat="43.6503726" lon="11.7847268"><ele>520.0</ele><time>2026-04-18T12:45:14.49Z</time></trkpt><trkpt lat="43.6504011" lon="11.7848385"><ele>520.0</ele><time>2026-04-18T12:45:15.489Z</time></trkpt><trkpt lat="43.6504302" lon="11.7849555"><ele>520.0</ele><time>2026-04-18T12:45:16.492Z</time></trkpt><trkpt lat="43.6504565" lon="11.7850659"><ele>520.0</ele><time>2026-04-18T12:45:17.499Z</time></trkpt><trkpt lat="43.6504931" lon="11.7851725"><ele>520.0</ele><time>2026-04-18T12:45:18.479Z</time></trkpt><trkpt lat="43.6505262" lon="11.785279"><ele>520.0</ele><time>2026-04-18T12:45:19.484Z</time></trkpt><trkpt lat="43.6505543" lon="11.7853941"><ele>520.0</ele><time>2026-04-18T12:45:20.491Z</time></trkpt><trkpt lat="43.6505796" lon="11.7855225"><ele>518.2</ele><time>2026-04-18T12:45:21.497Z</time></trkpt><trkpt lat="43.6506082" lon="11.7856506"><ele>516.4</ele><time>2026-04-18T12:45:22.497Z</time></trkpt><trkpt lat="43.6506318" lon="11.7857772"><ele>514.6</ele><time>2026-04-18T12:45:23.491Z</time></trkpt><trkpt lat="43.6506578" lon="11.7859052"><ele>512.8</ele><time>2026-04-18T12:45:24.491Z</time></trkpt><trkpt lat="43.650685" lon="11.786026"><ele>511.0</ele><time>2026-04-18T12:45:25.49Z</time></trkpt><trkpt lat="43.6507169" lon="11.7861457"><ele>508.4</ele><time>2026-04-18T12:45:26.495Z</time></trkpt><trkpt lat="43.6507692" lon="11.7862423"><ele>505.8</ele><time>2026-04-18T12:45:27.489Z</time></trkpt><trkpt lat="43.6508378" lon="11.7863023"><ele>503.19999999999993</ele><time>2026-04-18T12:45:28.493Z</time></trkpt><trkpt lat="43.6509464" lon="11.7863287"><ele>500.59999999999997</ele><time>2026-04-18T12:45:30.491Z</time></trkpt><trkpt lat="43.6510256" lon="11.7862753"><ele>498.0</ele><time>2026-04-18T12:45:32.493Z</time></trkpt><trkpt lat="43.6511097" lon="11.7862201"><ele>496.6666666666667</ele><time>2026-04-18T12:45:34.493Z</time></trkpt><trkpt lat="43.6511882" lon="11.7861557"><ele>495.33333333333337</ele><time>2026-04-18T12:45:36.501Z</time></trkpt><trkpt lat="43.6512649" lon="11.7860201"><ele>494.0</ele><time>2026-04-18T12:45:38.487Z</time></trkpt><trkpt lat="43.6512829" lon="11.7859253"><ele>492.6666666666667</ele><time>2026-04-18T12:45:39.496Z</time></trkpt><trkpt lat="43.6512966" lon="11.7858306"><ele>491.33333333333337</ele><time>2026-04-18T12:45:40.492Z</time></trkpt><trkpt lat="43.6513054" lon="11.7857338"><ele>490.0</ele><time>2026-04-18T12:45:41.494Z</time></trkpt><trkpt lat="43.6513062" lon="11.7856357"><ele>490.00000000000006</ele><time>2026-04-18T12:45:42.486Z</time></trkpt><trkpt lat="43.6513121" lon="11.7855368"><ele>490.0</ele><time>2026-04-18T12:45:43.492Z</time></trkpt><trkpt lat="43.6513273" lon="11.7854286"><ele>490.0</ele><time>2026-04-18T12:45:44.484Z</time></trkpt><trkpt lat="43.6513632" lon="11.7853335"><ele>490.0</ele><time>2026-04-18T12:45:45.492Z</time></trkpt><trkpt lat="43.6514244" lon="11.7852605"><ele>490.00000000000006</ele><time>2026-04-18T12:45:46.489Z</time></trkpt><trkpt lat="43.651503" lon="11.785233"><ele>490.0</ele><time>2026-04-18T12:45:47.486Z</time></trkpt><trkpt lat="43.6515853" lon="11.7852248"><ele>490.0</ele><time>2026-04-18T12:45:48.502Z</time></trkpt><trkpt lat="43.6516802" lon="11.7852272"><ele>490.0</ele><time>2026-04-18T12:45:49.49Z</time></trkpt><trkpt lat="43.6517718" lon="11.7851897"><ele>490.0</ele><time>2026-04-18T12:45:50.485Z</time></trkpt><trkpt lat="43.6518503" lon="11.7851087"><ele>490.0</ele><time>2026-04-18T12:45:51.5Z</time></trkpt><trkpt lat="43.6519114" lon="11.7850087"><ele>490.0</ele><time>2026-04-18T12:45:52.485Z</time></trkpt><trkpt lat="43.6519535" lon="11.7848885"><ele>487.5</ele><time>2026-04-18T12:45:53.495Z</time></trkpt><trkpt lat="43.6519769" lon="11.7847265"><ele>485.0</ele><time>2026-04-18T12:45:54.489Z</time></trkpt><trkpt lat="43.6519963" lon="11.7845559"><ele>482.5</ele><time>2026-04-18T12:45:55.487Z</time></trkpt><trkpt lat="43.6520263" lon="11.7843837"><ele>480.0</ele><time>2026-04-18T12:45:56.481Z</time></trkpt><trkpt lat="43.6520541" lon="11.7842114"><ele>480.0</ele><time>2026-04-18T12:45:57.496Z</time></trkpt><trkpt lat="43.6520841" lon="11.78405"><ele>480.0</ele><time>2026-04-18T12:45:58.485Z</time></trkpt><trkpt lat="43.6521183" lon="11.7838961"><ele>480.0</ele><time>2026-04-18T12:45:59.491Z</time></trkpt><trkpt lat="43.6521689" lon="11.7837689"><ele>480.0</ele><time>2026-04-18T12:46:00.497Z</time></trkpt><trkpt lat="43.6522206" lon="11.7836655"><ele>480.0</ele><time>2026-04-18T12:46:01.486Z</time></trkpt><trkpt lat="43.652286" lon="11.7835848"><ele>480.0</ele><time>2026-04-18T12:46:02.49Z</time></trkpt><trkpt lat="43.6523713" lon="11.7835351"><ele>480.0</ele><time>2026-04-18T12:46:03.484Z</time></trkpt><trkpt lat="43.6524603" lon="11.783523"><ele>480.0</ele><time>2026-04-18T12:46:04.492Z</time></trkpt><trkpt lat="43.6525462" lon="11.7835371"><ele>480.0</ele><time>2026-04-18T12:46:05.486Z</time></trkpt><trkpt lat="43.6526389" lon="11.7835796"><ele>480.0</ele><time>2026-04-18T12:46:06.496Z</time></trkpt><trkpt lat="43.6527281" lon="11.783647"><ele>478.5</ele><time>2026-04-18T12:46:07.498Z</time></trkpt><trkpt lat="43.6528044" lon="11.7837213"><ele>477.0</ele><time>2026-04-18T12:46:08.493Z</time></trkpt><trkpt lat="43.6528823" lon="11.7837902"><ele>475.5</ele><time>2026-04-18T12:46:09.485Z</time></trkpt><trkpt lat="43.6529531" lon="11.783853"><ele>474.0</ele><time>2026-04-18T12:46:10.491Z</time></trkpt><trkpt lat="43.6530178" lon="11.7839399"><ele>472.5</ele><time>2026-04-18T12:46:11.488Z</time></trkpt><trkpt lat="43.6530602" lon="11.7840384"><ele>471.0</ele><time>2026-04-18T12:46:12.501Z</time></trkpt><trkpt lat="43.6530872" lon="11.7841558"><ele>471.0</ele><time>2026-04-18T12:46:13.495Z</time></trkpt><trkpt lat="43.6530859" lon="11.7842809"><ele>471.0</ele><time>2026-04-18T12:46:14.486Z</time></trkpt><trkpt lat="43.6530545" lon="11.7843929"><ele>471.0</ele><time>2026-04-18T12:46:15.493Z</time></trkpt><trkpt lat="43.6530023" lon="11.7844975"><ele>471.0</ele><time>2026-04-18T12:46:16.499Z</time></trkpt><trkpt lat="43.6529444" lon="11.7846106"><ele>471.0</ele><time>2026-04-18T12:46:17.497Z</time></trkpt><trkpt lat="43.652886" lon="11.7847325"><ele>471.6</ele><time>2026-04-18T12:46:18.491Z</time></trkpt><trkpt lat="43.652824" lon="11.7848514"><ele>472.20000000000005</ele><time>2026-04-18T12:46:19.496Z</time></trkpt><trkpt lat="43.6527643" lon="11.784972"><ele>472.79999999999995</ele><time>2026-04-18T12:46:20.496Z</time></trkpt><trkpt lat="43.6527086" lon="11.785091"><ele>473.4</ele><time>2026-04-18T12:46:21.499Z</time></trkpt><trkpt lat="43.6526565" lon="11.7852153"><ele>474.0</ele><time>2026-04-18T12:46:22.486Z</time></trkpt><trkpt lat="43.6526047" lon="11.7853312"><ele>472.4</ele><time>2026-04-18T12:46:23.495Z</time></trkpt><trkpt lat="43.652554" lon="11.7854424"><ele>470.79999999999995</ele><time>2026-04-18T12:46:24.492Z</time></trkpt><trkpt lat="43.6525044" lon="11.7855592"><ele>469.20000000000005</ele><time>2026-04-18T12:46:25.491Z</time></trkpt><trkpt lat="43.6524585" lon="11.7856693"><ele>467.6</ele><time>2026-04-18T12:46:26.492Z</time></trkpt><trkpt lat="43.6524084" lon="11.7857818"><ele>466.0</ele><time>2026-04-18T12:46:27.493Z</time></trkpt><trkpt lat="43.6523654" lon="11.7858934"><ele>466.00000000000006</ele><time>2026-04-18T12:46:28.487Z</time></trkpt><trkpt lat="43.6523227" lon="11.7860055"><ele>466.0</ele><time>2026-04-18T12:46:29.494Z</time></trkpt><trkpt lat="43.652268" lon="11.786108"><ele>466.0</ele><time>2026-04-18T12:46:30.496Z</time></trkpt><trkpt lat="43.6522139" lon="11.7862028"><ele>466.0</ele><time>2026-04-18T12:46:31.488Z</time></trkpt><trkpt lat="43.6521757" lon="11.786303"><ele>466.00000000000006</ele><time>2026-04-18T12:46:32.498Z</time></trkpt><trkpt lat="43.6521552" lon="11.7864132"><ele>466.0</ele><time>2026-04-18T12:46:33.483Z</time></trkpt><trkpt lat="43.6521584" lon="11.7865194"><ele>464.57142857142856</ele><time>2026-04-18T12:46:34.504Z</time></trkpt><trkpt lat="43.6521853" lon="11.7866166"><ele>463.1428571428571</ele><time>2026-04-18T12:46:35.497Z</time></trkpt><trkpt lat="43.6522235" lon="11.7867066"><ele>461.71428571428567</ele><time>2026-04-18T12:46:36.494Z</time></trkpt><trkpt lat="43.6522629" lon="11.7868012"><ele>460.2857142857143</ele><time>2026-04-18T12:46:37.49Z</time></trkpt><trkpt lat="43.6523041" lon="11.7868907"><ele>458.8571428571428</ele><time>2026-04-18T12:46:38.492Z</time></trkpt><trkpt lat="43.6523454" lon="11.7869686"><ele>457.4285714285714</ele><time>2026-04-18T12:46:39.493Z</time></trkpt><trkpt lat="43.6523934" lon="11.7870326"><ele>456.0</ele><time>2026-04-18T12:46:40.493Z</time></trkpt><trkpt lat="43.6524527" lon="11.7870859"><ele>455.6666666666667</ele><time>2026-04-18T12:46:41.491Z</time></trkpt><trkpt lat="43.6525244" lon="11.7871332"><ele>455.33333333333337</ele><time>2026-04-18T12:46:42.487Z</time></trkpt><trkpt lat="43.6525868" lon="11.7871683"><ele>455.0</ele><time>2026-04-18T12:46:43.482Z</time></trkpt><trkpt lat="43.6526476" lon="11.7872047"><ele>454.6666666666667</ele><time>2026-04-18T12:46:44.482Z</time></trkpt><trkpt lat="43.6527595" lon="11.7872729"><ele>454.33333333333337</ele><time>2026-04-18T12:46:46.484Z</time></trkpt><trkpt lat="43.6528188" lon="11.787308"><ele>454.0</ele><time>2026-04-18T12:46:47.482Z</time></trkpt><trkpt lat="43.6529295" lon="11.7873705"><ele>453.0</ele><time>2026-04-18T12:46:49.484Z</time></trkpt><trkpt lat="43.653037" lon="11.7874431"><ele>452.0</ele><time>2026-04-18T12:46:51.491Z</time></trkpt><trkpt lat="43.6531294" lon="11.7875009"><ele>451.0</ele><time>2026-04-18T12:46:53.499Z</time></trkpt><trkpt lat="43.6532254" lon="11.7875531"><ele>450.0</ele><time>2026-04-18T12:46:55.494Z</time></trkpt><trkpt lat="43.6533175" lon="11.7876127"><ele>449.0</ele><time>2026-04-18T12:46:57.491Z</time></trkpt><trkpt lat="43.6534066" lon="11.7877263"><ele>448.85714285714283</ele><time>2026-04-18T12:46:59.489Z</time></trkpt><trkpt lat="43.6534428" lon="11.7878183"><ele>448.71428571428567</ele><time>2026-04-18T12:47:01.496Z</time></trkpt><trkpt lat="43.6534332" lon="11.7879253"><ele>448.57142857142856</ele><time>2026-04-18T12:47:04.484Z</time></trkpt><trkpt lat="43.6534387" lon="11.7880168"><ele>448.42857142857144</ele><time>2026-04-18T12:47:35.496Z</time></trkpt><trkpt lat="43.6533989" lon="11.7880847"><ele>448.2857142857143</ele><time>2026-04-18T12:47:38.493Z</time></trkpt><trkpt lat="43.6533233" lon="11.788093"><ele>448.1428571428571</ele><time>2026-04-18T12:47:40.491Z</time></trkpt><trkpt lat="43.6533142" lon="11.787977"><ele>448.0</ele><time>2026-04-18T12:47:43.493Z</time></trkpt><trkpt lat="43.653374" lon="11.7878888"><ele>448.00000000000006</ele><time>2026-04-18T12:47:45.5Z</time></trkpt><trkpt lat="43.6534507" lon="11.7878884"><ele>448.0</ele><time>2026-04-18T12:47:47.485Z</time></trkpt><trkpt lat="43.6535257" lon="11.7879264"><ele>448.0</ele><time>2026-04-18T12:47:49.489Z</time></trkpt><trkpt lat="43.6536047" lon="11.7880168"><ele>448.0</ele><time>2026-04-18T12:47:51.491Z</time></trkpt><trkpt lat="43.6536928" lon="11.7880945"><ele>448.00000000000006</ele><time>2026-04-18T12:47:53.485Z</time></trkpt><trkpt lat="43.653738" lon="11.788165"><ele>448.0</ele><time>2026-04-18T12:47:55.499Z</time></trkpt><trkpt lat="43.6537467" lon="11.7882907"><ele>447.50000000000006</ele><time>2026-04-18T12:47:57.492Z</time></trkpt><trkpt lat="43.6537481" lon="11.7884192"><ele>447.0</ele><time>2026-04-18T12:47:59.489Z</time></trkpt><trkpt lat="43.6537444" lon="11.7885162"><ele>446.5</ele><time>2026-04-18T12:48:01.487Z</time></trkpt><trkpt lat="43.653738" lon="11.788627"><ele>446.0</ele><time>2026-04-18T12:48:03.494Z</time></trkpt><trkpt lat="43.6537411" lon="11.7887444"><ele>445.50000000000006</ele><time>2026-04-18T12:48:05.493Z</time></trkpt><trkpt lat="43.6537401" lon="11.7888401"><ele>445.0</ele><time>2026-04-18T12:48:07.497Z</time></trkpt><trkpt lat="43.6537491" lon="11.7889284"><ele>445.0</ele><time>2026-04-18T12:48:14.491Z</time></trkpt><trkpt lat="43.6537521" lon="11.7888183"><ele>445.0</ele><time>2026-04-18T12:48:34.494Z</time></trkpt><trkpt lat="43.6537171" lon="11.7887255"><ele>445.0</ele><time>2026-04-18T12:48:36.499Z</time></trkpt><trkpt lat="43.6537402" lon="11.7885868"><ele>445.0</ele><time>2026-04-18T12:48:38.485Z</time></trkpt><trkpt lat="43.6537568" lon="11.7884516"><ele>445.0</ele><time>2026-04-18T12:48:40.488Z</time></trkpt><trkpt lat="43.653769" lon="11.7882816"><ele>445.00000000000006</ele><time>2026-04-18T12:48:42.489Z</time></trkpt><trkpt lat="43.6537767" lon="11.7881396"><ele>445.0</ele><time>2026-04-18T12:48:44.486Z</time></trkpt><trkpt lat="43.6538056" lon="11.788018"><ele>445.0</ele><time>2026-04-18T12:48:47.481Z</time></trkpt><trkpt lat="43.6538517" lon="11.7879241"><ele>445.0</ele><time>2026-04-18T12:48:49.505Z</time></trkpt><trkpt lat="43.6539301" lon="11.7878771"><ele>445.00000000000006</ele><time>2026-04-18T12:48:52.489Z</time></trkpt><trkpt lat="43.6539989" lon="11.7878997"><ele>445.0</ele><time>2026-04-18T12:48:54.479Z</time></trkpt><trkpt lat="43.6540955" lon="11.787968"><ele>445.0</ele><time>2026-04-18T12:48:56.487Z</time></trkpt><trkpt lat="43.654167" lon="11.788037"><ele>445.0</ele><time>2026-04-18T12:48:58.486Z</time></trkpt><trkpt lat="43.6541998" lon="11.7881199"><ele>445.0</ele><time>2026-04-18T12:49:02.492Z</time></trkpt><trkpt lat="43.6541366" lon="11.788043"><ele>445.0</ele><time>2026-04-18T12:49:25.482Z</time></trkpt><trkpt lat="43.6540814" lon="11.78798"><ele>445.0</ele><time>2026-04-18T12:49:27.493Z</time></trkpt><trkpt lat="43.6540256" lon="11.7879296"><ele>445.0</ele><time>2026-04-18T12:49:29.491Z</time></trkpt><trkpt lat="43.6539628" lon="11.7879022"><ele>445.0</ele><time>2026-04-18T12:49:32.486Z</time></trkpt><trkpt lat="43.6538728" lon="11.7879062"><ele>445.0</ele><time>2026-04-18T12:51:11.487Z</time></trkpt><trkpt lat="43.6538206" lon="11.787983"><ele>445.0</ele><time>2026-04-18T12:51:13.486Z</time></trkpt><trkpt lat="43.6537809" lon="11.7880926"><ele>445.0</ele><time>2026-04-18T12:51:15.499Z</time></trkpt><trkpt lat="43.6537009" lon="11.7880946"><ele>445.0</ele><time>2026-04-18T12:51:18.496Z</time></trkpt><trkpt lat="43.653635" lon="11.7879867"><ele>445.0</ele><time>2026-04-18T12:51:20.498Z</time></trkpt><trkpt lat="43.6535392" lon="11.787891"><ele>445.42857142857144</ele><time>2026-04-18T12:51:22.495Z</time></trkpt><trkpt lat="43.6534734" lon="11.7878635"><ele>445.85714285714283</ele><time>2026-04-18T12:51:24.486Z</time></trkpt><trkpt lat="43.6533894" lon="11.7878358"><ele>446.2857142857143</ele><time>2026-04-18T12:51:27.501Z</time></trkpt><trkpt lat="43.6533669" lon="11.7879252"><ele>446.7142857142857</ele><time>2026-04-18T12:51:29.495Z</time></trkpt><trkpt lat="43.6533963" lon="11.7880028"><ele>447.1428571428571</ele><time>2026-04-18T12:51:31.488Z</time></trkpt><trkpt lat="43.6533956" lon="11.7880981"><ele>447.57142857142856</ele><time>2026-04-18T12:51:50.479Z</time></trkpt><trkpt lat="43.65331" lon="11.788113"><ele>448.0</ele><time>2026-04-18T12:51:53.489Z</time></trkpt><trkpt lat="43.6533217" lon="11.7879995"><ele>448.00000000000006</ele><time>2026-04-18T12:51:56.502Z</time></trkpt><trkpt lat="43.6533767" lon="11.7878986"><ele>448.0</ele><time>2026-04-18T12:51:58.494Z</time></trkpt><trkpt lat="43.6534012" lon="11.7877842"><ele>448.0</ele><time>2026-04-18T12:52:01.483Z</time></trkpt><trkpt lat="43.6533652" lon="11.7876899"><ele>448.0</ele><time>2026-04-18T12:52:03.481Z</time></trkpt><trkpt lat="43.65332" lon="11.7875992"><ele>448.00000000000006</ele><time>2026-04-18T12:52:05.5Z</time></trkpt><trkpt lat="43.6532415" lon="11.7875096"><ele>448.0</ele><time>2026-04-18T12:52:07.501Z</time></trkpt><trkpt lat="43.6531379" lon="11.7874513"><ele>448.1666666666667</ele><time>2026-04-18T12:52:09.498Z</time></trkpt><trkpt lat="43.6530737" lon="11.7874171"><ele>448.33333333333337</ele><time>2026-04-18T12:52:10.496Z</time></trkpt><trkpt lat="43.6530062" lon="11.7873757"><ele>448.5</ele><time>2026-04-18T12:52:11.482Z</time></trkpt><trkpt lat="43.6529212" lon="11.7873347"><ele>448.66666666666663</ele><time>2026-04-18T12:52:12.493Z</time></trkpt><trkpt lat="43.6528305" lon="11.7872933"><ele>448.8333333333333</ele><time>2026-04-18T12:52:13.49Z</time></trkpt><trkpt lat="43.6527438" lon="11.7872455"><ele>449.0</ele><time>2026-04-18T12:52:14.485Z</time></trkpt><trkpt lat="43.6526527" lon="11.7871829"><ele>450.0</ele><time>2026-04-18T12:52:15.504Z</time></trkpt><trkpt lat="43.652556" lon="11.787127"><ele>451.0</ele><time>2026-04-18T12:52:16.485Z</time></trkpt><trkpt lat="43.6524671" lon="11.787059"><ele>452.0</ele><time>2026-04-18T12:52:17.491Z</time></trkpt><trkpt lat="43.6523875" lon="11.786986"><ele>453.0</ele><time>2026-04-18T12:52:18.488Z</time></trkpt><trkpt lat="43.652323" lon="11.7868911"><ele>454.0</ele><time>2026-04-18T12:52:19.484Z</time></trkpt><trkpt lat="43.6522674" lon="11.7867752"><ele>454.4</ele><time>2026-04-18T12:52:20.495Z</time></trkpt><trkpt lat="43.6522149" lon="11.786642"><ele>454.79999999999995</ele><time>2026-04-18T12:52:21.495Z</time></trkpt><trkpt lat="43.6521796" lon="11.7865008"><ele>455.20000000000005</ele><time>2026-04-18T12:52:22.509Z</time></trkpt><trkpt lat="43.6521718" lon="11.7863481"><ele>455.6</ele><time>2026-04-18T12:52:23.484Z</time></trkpt><trkpt lat="43.6522075" lon="11.7862037"><ele>456.0</ele><time>2026-04-18T12:52:24.495Z</time></trkpt><trkpt lat="43.6522726" lon="11.7860414"><ele>459.33333333333337</ele><time>2026-04-18T12:52:25.503Z</time></trkpt><trkpt lat="43.6523479" lon="11.7858804"><ele>462.6666666666667</ele><time>2026-04-18T12:52:26.489Z</time></trkpt><trkpt lat="43.6524309" lon="11.785706"><ele>466.0</ele><time>2026-04-18T12:52:27.493Z</time></trkpt><trkpt lat="43.6525099" lon="11.7855122"><ele>466.0</ele><time>2026-04-18T12:52:28.489Z</time></trkpt><trkpt lat="43.6525902" lon="11.7853279"><ele>466.0</ele><time>2026-04-18T12:52:29.498Z</time></trkpt><trkpt lat="43.6526671" lon="11.7851688"><ele>466.0</ele><time>2026-04-18T12:52:30.484Z</time></trkpt><trkpt lat="43.6527435" lon="11.7850346"><ele>466.0</ele><time>2026-04-18T12:52:31.504Z</time></trkpt><trkpt lat="43.6528201" lon="11.7849074"><ele>465.4</ele><time>2026-04-18T12:52:32.484Z</time></trkpt><trkpt lat="43.6528873" lon="11.7847679"><ele>464.8</ele><time>2026-04-18T12:52:33.485Z</time></trkpt><trkpt lat="43.6529493" lon="11.7846448"><ele>464.19999999999993</ele><time>2026-04-18T12:52:34.487Z</time></trkpt><trkpt lat="43.6530113" lon="11.784532"><ele>463.59999999999997</ele><time>2026-04-18T12:52:35.495Z</time></trkpt><trkpt lat="43.6530608" lon="11.7844216"><ele>463.0</ele><time>2026-04-18T12:52:36.495Z</time></trkpt><trkpt lat="43.6530943" lon="11.7843107"><ele>464.59999999999997</ele><time>2026-04-18T12:52:37.479Z</time></trkpt><trkpt lat="43.6531145" lon="11.7841989"><ele>466.19999999999993</ele><time>2026-04-18T12:52:38.486Z</time></trkpt><trkpt lat="43.6530975" lon="11.7840774"><ele>467.8</ele><time>2026-04-18T12:52:39.497Z</time></trkpt><trkpt lat="43.6530432" lon="11.7839633"><ele>469.4</ele><time>2026-04-18T12:52:40.488Z</time></trkpt><trkpt lat="43.6529666" lon="11.7838506"><ele>471.0</ele><time>2026-04-18T12:52:41.492Z</time></trkpt><trkpt lat="43.6528738" lon="11.7837598"><ele>473.25</ele><time>2026-04-18T12:52:42.484Z</time></trkpt><trkpt lat="43.6527701" lon="11.7836657"><ele>475.5</ele><time>2026-04-18T12:52:43.489Z</time></trkpt><trkpt lat="43.6526681" lon="11.7835928"><ele>477.75</ele><time>2026-04-18T12:52:44.507Z</time></trkpt><trkpt lat="43.6525651" lon="11.783533"><ele>480.0</ele><time>2026-04-18T12:52:45.485Z</time></trkpt><trkpt lat="43.6524528" lon="11.7835122"><ele>480.0</ele><time>2026-04-18T12:52:46.48Z</time></trkpt><trkpt lat="43.6523529" lon="11.7835428"><ele>480.0</ele><time>2026-04-18T12:52:47.479Z</time></trkpt><trkpt lat="43.6522573" lon="11.7836227"><ele>480.0</ele><time>2026-04-18T12:52:48.484Z</time></trkpt><trkpt lat="43.6521813" lon="11.7837398"><ele>480.0</ele><time>2026-04-18T12:52:49.49Z</time></trkpt><trkpt lat="43.6521208" lon="11.7839152"><ele>480.0</ele><time>2026-04-18T12:52:50.488Z</time></trkpt><trkpt lat="43.6520834" lon="11.7841147"><ele>480.0</ele><time>2026-04-18T12:52:51.489Z</time></trkpt><trkpt lat="43.6520487" lon="11.7842991"><ele>480.0</ele><time>2026-04-18T12:52:52.484Z</time></trkpt><trkpt lat="43.6520196" lon="11.7844836"><ele>480.0</ele><time>2026-04-18T12:52:53.494Z</time></trkpt><trkpt lat="43.6519913" lon="11.7846459"><ele>478.8</ele><time>2026-04-18T12:52:54.487Z</time></trkpt><trkpt lat="43.6519632" lon="11.784793"><ele>477.6</ele><time>2026-04-18T12:52:55.488Z</time></trkpt><trkpt lat="43.6519336" lon="11.7849222"><ele>476.4</ele><time>2026-04-18T12:52:56.487Z</time></trkpt><trkpt lat="43.6518846" lon="11.7850373"><ele>475.2</ele><time>2026-04-18T12:52:57.487Z</time></trkpt><trkpt lat="43.6518113" lon="11.7851352"><ele>474.0</ele><time>2026-04-18T12:52:58.486Z</time></trkpt><trkpt lat="43.651725" lon="11.7852022"><ele>477.2</ele><time>2026-04-18T12:52:59.487Z</time></trkpt><trkpt lat="43.6516267" lon="11.785232"><ele>480.4</ele><time>2026-04-18T12:53:00.487Z</time></trkpt><trkpt lat="43.6515236" lon="11.7852377"><ele>483.6</ele><time>2026-04-18T12:53:01.488Z</time></trkpt><trkpt lat="43.6514322" lon="11.785252"><ele>486.8</ele><time>2026-04-18T12:53:02.489Z</time></trkpt><trkpt lat="43.651355" lon="11.7853102"><ele>490.0</ele><time>2026-04-18T12:53:03.482Z</time></trkpt><trkpt lat="43.6513195" lon="11.7854099"><ele>490.00000000000006</ele><time>2026-04-18T12:53:04.492Z</time></trkpt><trkpt lat="43.6513064" lon="11.7855206"><ele>490.0</ele><time>2026-04-18T12:53:05.497Z</time></trkpt><trkpt lat="43.6513096" lon="11.7856462"><ele>490.0</ele><time>2026-04-18T12:53:06.495Z</time></trkpt><trkpt lat="43.6513071" lon="11.7857562"><ele>490.0</ele><time>2026-04-18T12:53:07.481Z</time></trkpt><trkpt lat="43.651304" lon="11.7858535"><ele>490.00000000000006</ele><time>2026-04-18T12:53:08.49Z</time></trkpt><trkpt lat="43.6512902" lon="11.785941"><ele>490.0</ele><time>2026-04-18T12:53:09.495Z</time></trkpt><trkpt lat="43.6512598" lon="11.7860334"><ele>491.6</ele><time>2026-04-18T12:53:10.495Z</time></trkpt><trkpt lat="43.6512152" lon="11.7861157"><ele>493.2</ele><time>2026-04-18T12:53:11.495Z</time></trkpt><trkpt lat="43.6511098" lon="11.7861719"><ele>494.79999999999995</ele><time>2026-04-18T12:53:13.483Z</time></trkpt><trkpt lat="43.6510097" lon="11.7861106"><ele>496.4</ele><time>2026-04-18T12:53:15.488Z</time></trkpt><trkpt lat="43.6509616" lon="11.7860326"><ele>498.0</ele><time>2026-04-18T12:53:16.496Z</time></trkpt><trkpt lat="43.6509317" lon="11.7859275"><ele>501.25</ele><time>2026-04-18T12:53:17.497Z</time></trkpt><trkpt lat="43.6509207" lon="11.7857986"><ele>504.5</ele><time>2026-04-18T12:53:18.487Z</time></trkpt><trkpt lat="43.650928" lon="11.785649"><ele>507.75</ele><time>2026-04-18T12:53:19.488Z</time></trkpt><trkpt lat="43.650932" lon="11.7854766"><ele>511.0</ele><time>2026-04-18T12:53:20.491Z</time></trkpt><trkpt lat="43.6509215" lon="11.7852814"><ele>510.0</ele><time>2026-04-18T12:53:21.489Z</time></trkpt><trkpt lat="43.6509088" lon="11.7851103"><ele>509.0</ele><time>2026-04-18T12:53:22.48Z</time></trkpt><trkpt lat="43.6509269" lon="11.7849655"><ele>508.0</ele><time>2026-04-18T12:53:23.487Z</time></trkpt><trkpt lat="43.6509666" lon="11.784843"><ele>507.0</ele><time>2026-04-18T12:53:24.483Z</time></trkpt><trkpt lat="43.6510454" lon="11.7847451"><ele>506.0</ele><time>2026-04-18T12:53:25.487Z</time></trkpt><trkpt lat="43.6511484" lon="11.7846593"><ele>506.0</ele><time>2026-04-18T12:53:26.482Z</time></trkpt><trkpt lat="43.6512526" lon="11.7845726"><ele>506.0</ele><time>2026-04-18T12:53:27.491Z</time></trkpt><trkpt lat="43.6513297" lon="11.7844648"><ele>506.0</ele><time>2026-04-18T12:53:28.489Z</time></trkpt><trkpt lat="43.6513763" lon="11.7843446"><ele>506.0</ele><time>2026-04-18T12:53:29.49Z</time></trkpt><trkpt lat="43.651401" lon="11.7842074"><ele>506.0</ele><time>2026-04-18T12:53:30.484Z</time></trkpt><trkpt lat="43.6514284" lon="11.7840706"><ele>507.75</ele><time>2026-04-18T12:53:31.49Z</time></trkpt><trkpt lat="43.6514551" lon="11.7839147"><ele>509.5</ele><time>2026-04-18T12:53:32.503Z</time></trkpt><trkpt lat="43.6514828" lon="11.7837619"><ele>511.25</ele><time>2026-04-18T12:53:33.489Z</time></trkpt><trkpt lat="43.6515022" lon="11.783606"><ele>513.0</ele><time>2026-04-18T12:53:34.482Z</time></trkpt><trkpt lat="43.6514957" lon="11.7834478"><ele>513.0</ele><time>2026-04-18T12:53:35.494Z</time></trkpt><trkpt lat="43.6514646" lon="11.7832806"><ele>513.0</ele><time>2026-04-18T12:53:36.483Z</time></trkpt><trkpt lat="43.6514112" lon="11.7830952"><ele>513.0</ele><time>2026-04-18T12:53:37.478Z</time></trkpt><trkpt lat="43.651348" lon="11.7829097"><ele>513.0</ele><time>2026-04-18T12:53:38.486Z</time></trkpt><trkpt lat="43.6512901" lon="11.7827317"><ele>513.0</ele><time>2026-04-18T12:53:39.488Z</time></trkpt><trkpt lat="43.6512624" lon="11.7825852"><ele>513.0</ele><time>2026-04-18T12:53:40.494Z</time></trkpt><trkpt lat="43.651268" lon="11.7824278"><ele>513.0</ele><time>2026-04-18T12:53:41.488Z</time></trkpt><trkpt lat="43.6513011" lon="11.7822662"><ele>513.0</ele><time>2026-04-18T12:53:42.476Z</time></trkpt><trkpt lat="43.6513396" lon="11.7820784"><ele>513.0</ele><time>2026-04-18T12:53:43.488Z</time></trkpt><trkpt lat="43.6513791" lon="11.7818989"><ele>513.0</ele><time>2026-04-18T12:53:44.491Z</time></trkpt><trkpt lat="43.6514305" lon="11.7816996"><ele>513.0</ele><time>2026-04-18T12:53:45.494Z</time></trkpt><trkpt lat="43.6514876" lon="11.7815101"><ele>513.0</ele><time>2026-04-18T12:53:46.493Z</time></trkpt><trkpt lat="43.6515526" lon="11.7813535"><ele>513.5</ele><time>2026-04-18T12:53:47.482Z</time></trkpt><trkpt lat="43.6516344" lon="11.7812325"><ele>514.0</ele><time>2026-04-18T12:53:48.486Z</time></trkpt><trkpt lat="43.6517274" lon="11.7811509"><ele>514.5</ele><time>2026-04-18T12:53:49.501Z</time></trkpt><trkpt lat="43.6518395" lon="11.7810675"><ele>515.0</ele><time>2026-04-18T12:53:50.493Z</time></trkpt><trkpt lat="43.6519571" lon="11.7809413"><ele>515.0</ele><time>2026-04-18T12:53:51.494Z</time></trkpt><trkpt lat="43.6520623" lon="11.7807994"><ele>515.0</ele><time>2026-04-18T12:53:52.49Z</time></trkpt><trkpt lat="43.6521765" lon="11.7806729"><ele>515.0</ele><time>2026-04-18T12:53:53.484Z</time></trkpt><trkpt lat="43.6522983" lon="11.7805684"><ele>515.0</ele><time>2026-04-18T12:53:54.493Z</time></trkpt><trkpt lat="43.6524117" lon="11.7804787"><ele>515.0</ele><time>2026-04-18T12:53:55.486Z</time></trkpt><trkpt lat="43.6525125" lon="11.7803813"><ele>515.0</ele><time>2026-04-18T12:53:56.493Z</time></trkpt><trkpt lat="43.6525809" lon="11.7802732"><ele>515.0</ele><time>2026-04-18T12:53:57.499Z</time></trkpt><trkpt lat="43.6526293" lon="11.7801251"><ele>515.0</ele><time>2026-04-18T12:53:58.479Z</time></trkpt><trkpt lat="43.652652" lon="11.7799644"><ele>518.75</ele><time>2026-04-18T12:53:59.48Z</time></trkpt><trkpt lat="43.6526532" lon="11.7797763"><ele>522.5</ele><time>2026-04-18T12:54:00.49Z</time></trkpt><trkpt lat="43.6526459" lon="11.7795827"><ele>526.25</ele><time>2026-04-18T12:54:01.493Z</time></trkpt><trkpt lat="43.6526346" lon="11.7793681"><ele>530.0</ele><time>2026-04-18T12:54:02.477Z</time></trkpt><trkpt lat="43.6526213" lon="11.7791627"><ele>529.8</ele><time>2026-04-18T12:54:03.489Z</time></trkpt><trkpt lat="43.6526347" lon="11.7790049"><ele>529.6</ele><time>2026-04-18T12:54:04.474Z</time></trkpt><trkpt lat="43.6526849" lon="11.7788795"><ele>529.4</ele><time>2026-04-18T12:54:05.48Z</time></trkpt><trkpt lat="43.6527623" lon="11.7787948"><ele>529.2</ele><time>2026-04-18T12:54:06.495Z</time></trkpt><trkpt lat="43.6528335" lon="11.7787476"><ele>529.0</ele><time>2026-04-18T12:54:07.495Z</time></trkpt><trkpt lat="43.6529163" lon="11.7787189"><ele>529.0</ele><time>2026-04-18T12:54:08.48Z</time></trkpt><trkpt lat="43.6530027" lon="11.778754"><ele>529.0</ele><time>2026-04-18T12:54:09.482Z</time></trkpt><trkpt lat="43.6530908" lon="11.7788371"><ele>529.0</ele><time>2026-04-18T12:54:10.483Z</time></trkpt><trkpt lat="43.6531968" lon="11.7789151"><ele>529.0</ele><time>2026-04-18T12:54:11.48Z</time></trkpt><trkpt lat="43.6533108" lon="11.7789724"><ele>529.0</ele><time>2026-04-18T12:54:12.48Z</time></trkpt><trkpt lat="43.6534293" lon="11.7790176"><ele>529.0</ele><time>2026-04-18T12:54:13.486Z</time></trkpt><trkpt lat="43.6535558" lon="11.7790576"><ele>529.0</ele><time>2026-04-18T12:54:14.49Z</time></trkpt><trkpt lat="43.6536863" lon="11.7791001"><ele>529.0</ele><time>2026-04-18T12:54:15.492Z</time></trkpt><trkpt lat="43.6538134" lon="11.7791364"><ele>529.0</ele><time>2026-04-18T12:54:16.487Z</time></trkpt><trkpt lat="43.653934" lon="11.7791778"><ele>531.2</ele><time>2026-04-18T12:54:17.484Z</time></trkpt><trkpt lat="43.6540545" lon="11.7792158"><ele>533.4</ele><time>2026-04-18T12:54:18.485Z</time></trkpt><trkpt lat="43.6541673" lon="11.7792549"><ele>535.6</ele><time>2026-04-18T12:54:19.49Z</time></trkpt><trkpt lat="43.6542706" lon="11.779274"><ele>537.8</ele><time>2026-04-18T12:54:20.491Z</time></trkpt><trkpt lat="43.6543704" lon="11.7792955"><ele>540.0</ele><time>2026-04-18T12:54:21.496Z</time></trkpt><trkpt lat="43.6544543" lon="11.779301"><ele>540.0</ele><time>2026-04-18T12:54:22.488Z</time></trkpt><trkpt lat="43.6545287" lon="11.7792811"><ele>540.0</ele><time>2026-04-18T12:54:23.5Z</time></trkpt><trkpt lat="43.6545721" lon="11.7792092"><ele>540.0</ele><time>2026-04-18T12:54:24.493Z</time></trkpt><trkpt lat="43.6545923" lon="11.7791165"><ele>540.0</ele><time>2026-04-18T12:54:25.487Z</time></trkpt><trkpt lat="43.6545572" lon="11.7790226"><ele>540.0</ele><time>2026-04-18T12:54:26.503Z</time></trkpt><trkpt lat="43.6544854" lon="11.7789568"><ele>540.0</ele><time>2026-04-18T12:54:27.493Z</time></trkpt><trkpt lat="43.6544052" lon="11.7789305"><ele>540.0</ele><time>2026-04-18T12:54:28.489Z</time></trkpt><trkpt lat="43.654319" lon="11.7789021"><ele>540.0</ele><time>2026-04-18T12:54:29.486Z</time></trkpt><trkpt lat="43.6542401" lon="11.7788708"><ele>540.0</ele><time>2026-04-18T12:54:30.489Z</time></trkpt><trkpt lat="43.6541619" lon="11.7788242"><ele>540.0</ele><time>2026-04-18T12:54:31.486Z</time></trkpt><trkpt lat="43.6540857" lon="11.7787517"><ele>540.0</ele><time>2026-04-18T12:54:32.498Z</time></trkpt><trkpt lat="43.6540106" lon="11.7786702"><ele>540.0</ele><time>2026-04-18T12:54:33.491Z</time></trkpt><trkpt lat="43.653939" lon="11.7785915"><ele>542.1666666666666</ele><time>2026-04-18T12:54:34.491Z</time></trkpt><trkpt lat="43.6538847" lon="11.7785137"><ele>544.3333333333334</ele><time>2026-04-18T12:54:35.49Z</time></trkpt><trkpt lat="43.6538614" lon="11.7784168"><ele>546.5</ele><time>2026-04-18T12:54:36.487Z</time></trkpt><trkpt lat="43.6538727" lon="11.7783154"><ele>548.6666666666667</ele><time>2026-04-18T12:54:37.491Z</time></trkpt><trkpt lat="43.6539152" lon="11.7782306"><ele>550.8333333333334</ele><time>2026-04-18T12:54:38.496Z</time></trkpt><trkpt lat="43.6539852" lon="11.7781889"><ele>553.0</ele><time>2026-04-18T12:54:39.485Z</time></trkpt><trkpt lat="43.6540576" lon="11.7781902"><ele>553.0</ele><time>2026-04-18T12:54:40.488Z</time></trkpt><trkpt lat="43.654137" lon="11.77822"><ele>553.0</ele><time>2026-04-18T12:54:41.504Z</time></trkpt><trkpt lat="43.6542211" lon="11.7782456"><ele>553.0</ele><time>2026-04-18T12:54:42.494Z</time></trkpt><trkpt lat="43.6543182" lon="11.7782728"><ele>553.0</ele><time>2026-04-18T12:54:43.485Z</time></trkpt><trkpt lat="43.654416" lon="11.7783052"><ele>553.0</ele><time>2026-04-18T12:54:44.482Z</time></trkpt><trkpt lat="43.6545032" lon="11.778334"><ele>552.4</ele><time>2026-04-18T12:54:45.498Z</time></trkpt><trkpt lat="43.6545771" lon="11.7783505"><ele>551.8</ele><time>2026-04-18T12:54:46.485Z</time></trkpt><trkpt lat="43.6546631" lon="11.7782648"><ele>551.2</ele><time>2026-04-18T12:54:48.477Z</time></trkpt><trkpt lat="43.654637" lon="11.7781087"><ele>550.6</ele><time>2026-04-18T12:54:50.488Z</time></trkpt><trkpt lat="43.6545662" lon="11.7780688"><ele>550.0</ele><time>2026-04-18T12:54:51.487Z</time></trkpt><trkpt lat="43.654483" lon="11.7780382"><ele>550.6</ele><time>2026-04-18T12:54:52.481Z</time></trkpt><trkpt lat="43.6544169" lon="11.7780693"><ele>551.2</ele><time>2026-04-18T12:54:53.491Z</time></trkpt><trkpt lat="43.6542872" lon="11.7780257"><ele>551.8</ele><time>2026-04-18T12:54:55.49Z</time></trkpt><trkpt lat="43.654191" lon="11.7779123"><ele>552.4</ele><time>2026-04-18T12:54:56.486Z</time></trkpt><trkpt lat="43.6540973" lon="11.777826"><ele>553.0</ele><time>2026-04-18T12:54:57.48Z</time></trkpt><trkpt lat="43.6540009" lon="11.7777747"><ele>553.0</ele><time>2026-04-18T12:54:58.486Z</time></trkpt><trkpt lat="43.6539084" lon="11.777739"><ele>553.0</ele><time>2026-04-18T12:54:59.491Z</time></trkpt><trkpt lat="43.6538409" lon="11.777695"><ele>553.0</ele><time>2026-04-18T12:55:00.489Z</time></trkpt><trkpt lat="43.6537847" lon="11.7775625"><ele>553.0</ele><time>2026-04-18T12:55:02.494Z</time></trkpt><trkpt lat="43.6538218" lon="11.7774262"><ele>553.0</ele><time>2026-04-18T12:55:04.486Z</time></trkpt><trkpt lat="43.6539143" lon="11.7774073"><ele>555.6</ele><time>2026-04-18T12:55:06.5Z</time></trkpt><trkpt lat="43.6539834" lon="11.7774426"><ele>558.1999999999999</ele><time>2026-04-18T12:55:07.499Z</time></trkpt><trkpt lat="43.6540752" lon="11.7774795"><ele>560.8</ele><time>2026-04-18T12:55:08.494Z</time></trkpt><trkpt lat="43.6541726" lon="11.777479"><ele>563.4</ele><time>2026-04-18T12:55:09.493Z</time></trkpt><trkpt lat="43.6542637" lon="11.7774463"><ele>566.0</ele><time>2026-04-18T12:55:10.494Z</time></trkpt><trkpt lat="43.654337" lon="11.7773726"><ele>566.0</ele><time>2026-04-18T12:55:11.485Z</time></trkpt><trkpt lat="43.6543787" lon="11.7772515"><ele>566.0</ele><time>2026-04-18T12:55:12.504Z</time></trkpt><trkpt lat="43.6544" lon="11.7771139"><ele>566.0</ele><time>2026-04-18T12:55:13.496Z</time></trkpt><trkpt lat="43.6544053" lon="11.7769686"><ele>566.0</ele><time>2026-04-18T12:55:14.496Z</time></trkpt><trkpt lat="43.6543999" lon="11.7767859"><ele>566.0</ele><time>2026-04-18T12:55:15.492Z</time></trkpt><trkpt lat="43.6544149" lon="11.7765939"><ele>567.75</ele><time>2026-04-18T12:55:16.501Z</time></trkpt><trkpt lat="43.6544629" lon="11.776402"><ele>569.5</ele><time>2026-04-18T12:55:17.484Z</time></trkpt><trkpt lat="43.654512" lon="11.776213"><ele>571.25</ele><time>2026-04-18T12:55:18.488Z</time></trkpt><trkpt lat="43.6545614" lon="11.7760327"><ele>573.0</ele><time>2026-04-18T12:55:19.484Z</time></trkpt><trkpt lat="43.6546167" lon="11.7758873"><ele>574.5</ele><time>2026-04-18T12:55:20.502Z</time></trkpt><trkpt lat="43.6546713" lon="11.7757444"><ele>576.0</ele><time>2026-04-18T12:55:21.481Z</time></trkpt><trkpt lat="43.6547135" lon="11.7755821"><ele>577.5</ele><time>2026-04-18T12:55:22.481Z</time></trkpt><trkpt lat="43.6547257" lon="11.7754257"><ele>579.0</ele><time>2026-04-18T12:55:23.488Z</time></trkpt><trkpt lat="43.6546974" lon="11.7752945"><ele>580.6666666666666</ele><time>2026-04-18T12:55:24.487Z</time></trkpt><trkpt lat="43.6546546" lon="11.7751729"><ele>582.3333333333334</ele><time>2026-04-18T12:55:25.504Z</time></trkpt><trkpt lat="43.6545935" lon="11.7750828"><ele>584.0</ele><time>2026-04-18T12:55:26.5Z</time></trkpt><trkpt lat="43.6545562" lon="11.7749902"><ele>585.6666666666667</ele><time>2026-04-18T12:55:27.481Z</time></trkpt><trkpt lat="43.6545538" lon="11.7748795"><ele>587.3333333333334</ele><time>2026-04-18T12:55:28.491Z</time></trkpt><trkpt lat="43.6545713" lon="11.7747874"><ele>589.0</ele><time>2026-04-18T12:55:29.487Z</time></trkpt><trkpt lat="43.6546728" lon="11.7747164"><ele>589.0</ele><time>2026-04-18T12:55:31.486Z</time></trkpt><trkpt lat="43.6548044" lon="11.7747345"><ele>589.0</ele><time>2026-04-18T12:55:33.477Z</time></trkpt><trkpt lat="43.65487" lon="11.7747437"><ele>589.0</ele><time>2026-04-18T12:55:34.5Z</time></trkpt><trkpt lat="43.6549996" lon="11.7747123"><ele>589.0</ele><time>2026-04-18T12:55:36.499Z</time></trkpt><trkpt lat="43.6550551" lon="11.7746636"><ele>589.0</ele><time>2026-04-18T12:55:37.482Z</time></trkpt><trkpt lat="43.6551196" lon="11.7746109"><ele>589.0</ele><time>2026-04-18T12:55:38.498Z</time></trkpt><trkpt lat="43.6552118" lon="11.7745838"><ele>589.0</ele><time>2026-04-18T12:55:39.481Z</time></trkpt><trkpt lat="43.6553171" lon="11.7745743"><ele>589.0</ele><time>2026-04-18T12:55:40.483Z</time></trkpt><trkpt lat="43.6554216" lon="11.7745735"><ele>589.0</ele><time>2026-04-18T12:55:41.486Z</time></trkpt><trkpt lat="43.655504" lon="11.7745646"><ele>589.0</ele><time>2026-04-18T12:55:42.493Z</time></trkpt><trkpt lat="43.6555759" lon="11.7745298"><ele>588.6666666666667</ele><time>2026-04-18T12:55:43.486Z</time></trkpt><trkpt lat="43.6556466" lon="11.7744591"><ele>588.3333333333334</ele><time>2026-04-18T12:55:45.484Z</time></trkpt><trkpt lat="43.6556364" lon="11.7743231"><ele>588.0</ele><time>2026-04-18T12:55:47.48Z</time></trkpt><trkpt lat="43.6555955" lon="11.7742378"><ele>587.6666666666666</ele><time>2026-04-18T12:55:48.473Z</time></trkpt><trkpt lat="43.6555084" lon="11.7742037"><ele>587.3333333333333</ele><time>2026-04-18T12:55:49.497Z</time></trkpt><trkpt lat="43.6554197" lon="11.7741722"><ele>587.0</ele><time>2026-04-18T12:55:50.484Z</time></trkpt><trkpt lat="43.6553156" lon="11.7741353"><ele>591.5</ele><time>2026-04-18T12:55:51.487Z</time></trkpt><trkpt lat="43.6551983" lon="11.7740979"><ele>596.0</ele><time>2026-04-18T12:55:52.485Z</time></trkpt><trkpt lat="43.6550902" lon="11.7740595"><ele>600.5</ele><time>2026-04-18T12:55:53.492Z</time></trkpt><trkpt lat="43.654983" lon="11.7740261"><ele>605.0</ele><time>2026-04-18T12:55:54.488Z</time></trkpt><trkpt lat="43.6548796" lon="11.7739582"><ele>605.0</ele><time>2026-04-18T12:55:55.488Z</time></trkpt><trkpt lat="43.6547806" lon="11.7738766"><ele>605.0</ele><time>2026-04-18T12:55:56.481Z</time></trkpt><trkpt lat="43.6546839" lon="11.77379"><ele>605.0</ele><time>2026-04-18T12:55:57.482Z</time></trkpt><trkpt lat="43.6545893" lon="11.7736922"><ele>605.0</ele><time>2026-04-18T12:55:58.49Z</time></trkpt><trkpt lat="43.6545004" lon="11.7735856"><ele>606.6</ele><time>2026-04-18T12:55:59.488Z</time></trkpt><trkpt lat="43.6544243" lon="11.7734768"><ele>608.2</ele><time>2026-04-18T12:56:00.483Z</time></trkpt><trkpt lat="43.6543564" lon="11.7733642"><ele>609.8</ele><time>2026-04-18T12:56:01.491Z</time></trkpt><trkpt lat="43.6542977" lon="11.7732826"><ele>611.4</ele><time>2026-04-18T12:56:02.488Z</time></trkpt><trkpt lat="43.6542323" lon="11.7732195"><ele>613.0</ele><time>2026-04-18T12:56:03.494Z</time></trkpt><trkpt lat="43.6541455" lon="11.7731739"><ele>613.0</ele><time>2026-04-18T12:56:04.493Z</time></trkpt><trkpt lat="43.6540549" lon="11.7731359"><ele>613.0</ele><time>2026-04-18T12:56:05.483Z</time></trkpt><trkpt lat="43.6539735" lon="11.7730981"><ele>613.0</ele><time>2026-04-18T12:56:06.49Z</time></trkpt><trkpt lat="43.6539282" lon="11.7729872"><ele>613.0</ele><time>2026-04-18T12:56:08.493Z</time></trkpt><trkpt lat="43.6539901" lon="11.7728507"><ele>613.0</ele><time>2026-04-18T12:56:10.49Z</time></trkpt><trkpt lat="43.6541238" lon="11.7728439"><ele>613.0</ele><time>2026-04-18T12:56:12.485Z</time></trkpt><trkpt lat="43.6542062" lon="11.7728582"><ele>613.0</ele><time>2026-04-18T12:56:13.484Z</time></trkpt><trkpt lat="43.6542879" lon="11.7728593"><ele>613.0</ele><time>2026-04-18T12:56:14.485Z</time></trkpt><trkpt lat="43.6543821" lon="11.7728489"><ele>613.0</ele><time>2026-04-18T12:56:15.485Z</time></trkpt><trkpt lat="43.6544828" lon="11.7728381"><ele>613.0</ele><time>2026-04-18T12:56:16.502Z</time></trkpt><trkpt lat="43.6545952" lon="11.7728126"><ele>614.75</ele><time>2026-04-18T12:56:17.481Z</time></trkpt><trkpt lat="43.6547183" lon="11.7727943"><ele>616.5</ele><time>2026-04-18T12:56:18.495Z</time></trkpt><trkpt lat="43.6548346" lon="11.772777"><ele>618.25</ele><time>2026-04-18T12:56:19.497Z</time></trkpt><trkpt lat="43.6549402" lon="11.7727742"><ele>620.0</ele><time>2026-04-18T12:56:20.488Z</time></trkpt><trkpt lat="43.6550543" lon="11.7728226"><ele>620.0</ele><time>2026-04-18T12:56:21.485Z</time></trkpt><trkpt lat="43.655151" lon="11.772894"><ele>620.0</ele><time>2026-04-18T12:56:22.49Z</time></trkpt><trkpt lat="43.6552323" lon="11.7729634"><ele>620.0</ele><time>2026-04-18T12:56:23.484Z</time></trkpt><trkpt lat="43.6553013" lon="11.773004"><ele>620.0</ele><time>2026-04-18T12:56:24.487Z</time></trkpt><trkpt lat="43.6554177" lon="11.7729375"><ele>620.0</ele><time>2026-04-18T12:56:26.491Z</time></trkpt><trkpt lat="43.6554566" lon="11.7728461"><ele>619.4</ele><time>2026-04-18T12:56:27.484Z</time></trkpt><trkpt lat="43.6555074" lon="11.7727406"><ele>618.8</ele><time>2026-04-18T12:56:28.485Z</time></trkpt><trkpt lat="43.6555667" lon="11.772629"><ele>618.2</ele><time>2026-04-18T12:56:29.486Z</time></trkpt><trkpt lat="43.6556437" lon="11.7725218"><ele>617.6</ele><time>2026-04-18T12:56:30.481Z</time></trkpt><trkpt lat="43.6557289" lon="11.7724205"><ele>617.0</ele><time>2026-04-18T12:56:31.493Z</time></trkpt><trkpt lat="43.6558288" lon="11.7723374"><ele>618.0</ele><time>2026-04-18T12:56:32.487Z</time></trkpt><trkpt lat="43.6559381" lon="11.7722507"><ele>619.0</ele><time>2026-04-18T12:56:33.487Z</time></trkpt><trkpt lat="43.6560414" lon="11.7721593"><ele>620.0</ele><time>2026-04-18T12:56:34.485Z</time></trkpt><trkpt lat="43.6561316" lon="11.7720669"><ele>621.0</ele><time>2026-04-18T12:56:35.471Z</time></trkpt><trkpt lat="43.6562035" lon="11.7719687"><ele>621.0</ele><time>2026-04-18T12:56:36.485Z</time></trkpt><trkpt lat="43.6562541" lon="11.7718625"><ele>621.0</ele><time>2026-04-18T12:56:37.492Z</time></trkpt><trkpt lat="43.6562811" lon="11.7717515"><ele>621.0</ele><time>2026-04-18T12:56:38.479Z</time></trkpt><trkpt lat="43.6562974" lon="11.7715677"><ele>621.0</ele><time>2026-04-18T12:56:40.488Z</time></trkpt><trkpt lat="43.6562836" lon="11.7714594"><ele>621.0</ele><time>2026-04-18T12:56:41.487Z</time></trkpt><trkpt lat="43.6562485" lon="11.7713449"><ele>623.6</ele><time>2026-04-18T12:56:42.491Z</time></trkpt><trkpt lat="43.6561992" lon="11.7712216"><ele>626.2</ele><time>2026-04-18T12:56:43.492Z</time></trkpt><trkpt lat="43.6561594" lon="11.7710822"><ele>628.8</ele><time>2026-04-18T12:56:44.507Z</time></trkpt><trkpt lat="43.6561238" lon="11.770941"><ele>631.4</ele><time>2026-04-18T12:56:45.492Z</time></trkpt><trkpt lat="43.6560881" lon="11.7707812"><ele>634.0</ele><time>2026-04-18T12:56:46.485Z</time></trkpt><trkpt lat="43.6560501" lon="11.7706078"><ele>638.25</ele><time>2026-04-18T12:56:47.483Z</time></trkpt><trkpt lat="43.6560068" lon="11.7704141"><ele>642.5</ele><time>2026-04-18T12:56:48.482Z</time></trkpt><trkpt lat="43.6559614" lon="11.7702206"><ele>646.75</ele><time>2026-04-18T12:56:49.486Z</time></trkpt><trkpt lat="43.6559179" lon="11.7700537"><ele>651.0</ele><time>2026-04-18T12:56:50.48Z</time></trkpt><trkpt lat="43.655883" lon="11.7698958"><ele>653.5</ele><time>2026-04-18T12:56:51.496Z</time></trkpt><trkpt lat="43.6558616" lon="11.7697232"><ele>656.0</ele><time>2026-04-18T12:56:52.491Z</time></trkpt><trkpt lat="43.6558392" lon="11.7695554"><ele>658.5</ele><time>2026-04-18T12:56:53.487Z</time></trkpt><trkpt lat="43.6558" lon="11.7694129"><ele>661.0</ele><time>2026-04-18T12:56:54.497Z</time></trkpt><trkpt lat="43.6557465" lon="11.7693021"><ele>662.3333333333334</ele><time>2026-04-18T12:56:55.479Z</time></trkpt><trkpt lat="43.655697" lon="11.7692407"><ele>663.6666666666667</ele><time>2026-04-18T12:56:56.483Z</time></trkpt><trkpt lat="43.6556467" lon="11.7691437"><ele>665.0</ele><time>2026-04-18T12:56:58.492Z</time></trkpt><trkpt lat="43.6555996" lon="11.7690846"><ele>666.3333333333334</ele><time>2026-04-18T12:57:00.495Z</time></trkpt><trkpt lat="43.6555442" lon="11.7690026"><ele>667.6666666666666</ele><time>2026-04-18T12:57:02.485Z</time></trkpt><trkpt lat="43.6554614" lon="11.7689059"><ele>669.0</ele><time>2026-04-18T12:57:04.498Z</time></trkpt><trkpt lat="43.6553889" lon="11.7688903"><ele>669.0</ele><time>2026-04-18T12:57:06.481Z</time></trkpt><trkpt lat="43.6553289" lon="11.7689436"><ele>669.0</ele><time>2026-04-18T12:57:16.49Z</time></trkpt><trkpt lat="43.6552524" lon="11.7690178"><ele>669.0</ele><time>2026-04-18T12:57:18.496Z</time></trkpt><trkpt lat="43.6551966" lon="11.7690581"><ele>669.0</ele><time>2026-04-18T12:57:19.493Z</time></trkpt><trkpt lat="43.6551112" lon="11.7691253"><ele>669.0</ele><time>2026-04-18T12:57:21.492Z</time></trkpt><trkpt lat="43.6551862" lon="11.7690991"><ele>669.0</ele><time>2026-04-18T12:58:03.506Z</time></trkpt><trkpt lat="43.6552707" lon="11.7690369"><ele>669.0</ele><time>2026-04-18T12:58:05.499Z</time></trkpt><trkpt lat="43.6553308" lon="11.7689931"><ele>669.0</ele><time>2026-04-18T12:58:06.487Z</time></trkpt><trkpt lat="43.6554261" lon="11.7689643"><ele>669.0</ele><time>2026-04-18T12:58:08.496Z</time></trkpt><trkpt lat="43.65549" lon="11.7690354"><ele>669.0</ele><time>2026-04-18T12:58:10.484Z</time></trkpt><trkpt lat="43.6555404" lon="11.769135"><ele>669.0</ele><time>2026-04-18T12:58:12.492Z</time></trkpt><trkpt lat="43.6556076" lon="11.7691012"><ele>669.0</ele><time>2026-04-18T12:58:16.494Z</time></trkpt><trkpt lat="43.6556093" lon="11.7689806"><ele>669.0</ele><time>2026-04-18T12:58:19.489Z</time></trkpt><trkpt lat="43.6555562" lon="11.768913"><ele>669.0</ele><time>2026-04-18T12:58:21.511Z</time></trkpt><trkpt lat="43.6555911" lon="11.768768"><ele>669.0</ele><time>2026-04-18T12:58:23.494Z</time></trkpt><trkpt lat="43.6556351" lon="11.7686984"><ele>669.0</ele><time>2026-04-18T12:58:24.494Z</time></trkpt><trkpt lat="43.6557225" lon="11.7686036"><ele>669.0</ele><time>2026-04-18T12:58:26.495Z</time></trkpt><trkpt lat="43.6558036" lon="11.7685294"><ele>670.4000000000001</ele><time>2026-04-18T12:58:28.487Z</time></trkpt><trkpt lat="43.6558898" lon="11.7684349"><ele>671.8</ele><time>2026-04-18T12:58:30.489Z</time></trkpt><trkpt lat="43.6559737" lon="11.7683243"><ele>673.2</ele><time>2026-04-18T12:58:32.478Z</time></trkpt><trkpt lat="43.6560731" lon="11.7682237"><ele>674.5999999999999</ele><time>2026-04-18T12:58:34.488Z</time></trkpt><trkpt lat="43.6561352" lon="11.7681688"><ele>676.0</ele><time>2026-04-18T12:58:35.495Z</time></trkpt><trkpt lat="43.6562045" lon="11.7681221"><ele>676.0</ele><time>2026-04-18T12:58:36.478Z</time></trkpt><trkpt lat="43.656279" lon="11.7680667"><ele>676.0</ele><time>2026-04-18T12:58:37.493Z</time></trkpt><trkpt lat="43.6563465" lon="11.7680146"><ele>676.0</ele><time>2026-04-18T12:58:38.488Z</time></trkpt><trkpt lat="43.6564132" lon="11.7679456"><ele>676.0</ele><time>2026-04-18T12:58:39.493Z</time></trkpt><trkpt lat="43.6564929" lon="11.7678438"><ele>676.0</ele><time>2026-04-18T12:58:40.492Z</time></trkpt><trkpt lat="43.6565811" lon="11.7677326"><ele>680.0</ele><time>2026-04-18T12:58:41.49Z</time></trkpt><trkpt lat="43.6566678" lon="11.7676128"><ele>684.0</ele><time>2026-04-18T12:58:42.492Z</time></trkpt><trkpt lat="43.6567462" lon="11.7674891"><ele>688.0</ele><time>2026-04-18T12:58:43.478Z</time></trkpt><trkpt lat="43.6568247" lon="11.7673739"><ele>692.0</ele><time>2026-04-18T12:58:44.489Z</time></trkpt><trkpt lat="43.6569056" lon="11.7672602"><ele>691.0</ele><time>2026-04-18T12:58:45.479Z</time></trkpt><trkpt lat="43.6569894" lon="11.7671659"><ele>690.0</ele><time>2026-04-18T12:58:46.491Z</time></trkpt><trkpt lat="43.6570805" lon="11.7670663"><ele>689.0</ele><time>2026-04-18T12:58:47.493Z</time></trkpt><trkpt lat="43.6572673" lon="11.766847"><ele>689.0</ele><time>2026-04-18T12:58:49.489Z</time></trkpt><trkpt lat="43.657364" lon="11.7667548"><ele>689.0</ele><time>2026-04-18T12:58:50.482Z</time></trkpt><trkpt lat="43.6574613" lon="11.7666678"><ele>689.0</ele><time>2026-04-18T12:58:51.489Z</time></trkpt><trkpt lat="43.6575631" lon="11.766593"><ele>689.0</ele><time>2026-04-18T12:58:52.491Z</time></trkpt><trkpt lat="43.6576673" lon="11.7665214"><ele>689.0</ele><time>2026-04-18T12:58:53.488Z</time></trkpt><trkpt lat="43.6577678" lon="11.7664567"><ele>689.0</ele><time>2026-04-18T12:58:54.498Z</time></trkpt><trkpt lat="43.6578605" lon="11.7663953"><ele>689.0</ele><time>2026-04-18T12:58:55.474Z</time></trkpt><trkpt lat="43.6579458" lon="11.7663458"><ele>689.0</ele><time>2026-04-18T12:58:56.498Z</time></trkpt><trkpt lat="43.658028" lon="11.7662953"><ele>689.0</ele><time>2026-04-18T12:58:57.478Z</time></trkpt><trkpt lat="43.6581084" lon="11.7662485"><ele>689.2</ele><time>2026-04-18T12:58:58.499Z</time></trkpt><trkpt lat="43.6582637" lon="11.7661699"><ele>689.4000000000001</ele><time>2026-04-18T12:59:00.495Z</time></trkpt><trkpt lat="43.6583427" lon="11.76613"><ele>689.6</ele><time>2026-04-18T12:59:01.492Z</time></trkpt><trkpt lat="43.65842" lon="11.7660882"><ele>689.8</ele><time>2026-04-18T12:59:02.49Z</time></trkpt><trkpt lat="43.6585097" lon="11.7660522"><ele>690.0</ele><time>2026-04-18T12:59:03.499Z</time></trkpt><trkpt lat="43.6586206" lon="11.7660005"><ele>689.0</ele><time>2026-04-18T12:59:04.492Z</time></trkpt><trkpt lat="43.6587391" lon="11.7659415"><ele>688.0</ele><time>2026-04-18T12:59:05.488Z</time></trkpt><trkpt lat="43.65886" lon="11.7658683"><ele>687.0</ele><time>2026-04-18T12:59:06.491Z</time></trkpt><trkpt lat="43.6589913" lon="11.7657931"><ele>686.0</ele><time>2026-04-18T12:59:07.485Z</time></trkpt><trkpt lat="43.6591284" lon="11.7657139"><ele>686.0</ele><time>2026-04-18T12:59:08.494Z</time></trkpt><trkpt lat="43.6592806" lon="11.7656384"><ele>686.0</ele><time>2026-04-18T12:59:09.504Z</time></trkpt><trkpt lat="43.6594271" lon="11.7655596"><ele>686.0</ele><time>2026-04-18T12:59:10.503Z</time></trkpt><trkpt lat="43.6595675" lon="11.7654821"><ele>686.5</ele><time>2026-04-18T12:59:11.49Z</time></trkpt><trkpt lat="43.6596911" lon="11.7654104"><ele>687.0</ele><time>2026-04-18T12:59:12.491Z</time></trkpt><trkpt lat="43.6597944" lon="11.7653266"><ele>687.5</ele><time>2026-04-18T12:59:13.491Z</time></trkpt><trkpt lat="43.6598811" lon="11.7652306"><ele>688.0</ele><time>2026-04-18T12:59:14.493Z</time></trkpt><trkpt lat="43.6599576" lon="11.7651429"><ele>687.0</ele><time>2026-04-18T12:59:15.493Z</time></trkpt><trkpt lat="43.6600555" lon="11.7650818"><ele>686.0</ele><time>2026-04-18T12:59:16.49Z</time></trkpt><trkpt lat="43.6601762" lon="11.7650581"><ele>685.0</ele><time>2026-04-18T12:59:17.49Z</time></trkpt><trkpt lat="43.6603075" lon="11.7650341"><ele>684.0</ele><time>2026-04-18T12:59:18.482Z</time></trkpt><trkpt lat="43.6604336" lon="11.7649883"><ele>684.0</ele><time>2026-04-18T12:59:19.485Z</time></trkpt><trkpt lat="43.6605271" lon="11.7649132"><ele>684.0</ele><time>2026-04-18T12:59:20.495Z</time></trkpt><trkpt lat="43.6605984" lon="11.7648008"><ele>684.0</ele><time>2026-04-18T12:59:21.493Z</time></trkpt><trkpt lat="43.660651" lon="11.7646785"><ele>684.0</ele><time>2026-04-18T12:59:22.491Z</time></trkpt><trkpt lat="43.6606786" lon="11.7645475"><ele>684.0</ele><time>2026-04-18T12:59:23.494Z</time></trkpt><trkpt lat="43.6607045" lon="11.7644421"><ele>681.4000000000001</ele><time>2026-04-18T12:59:24.496Z</time></trkpt><trkpt lat="43.660743" lon="11.7643399"><ele>678.8</ele><time>2026-04-18T12:59:25.482Z</time></trkpt><trkpt lat="43.6608147" lon="11.7642344"><ele>676.2</ele><time>2026-04-18T12:59:26.476Z</time></trkpt><trkpt lat="43.6608946" lon="11.7641337"><ele>673.5999999999999</ele><time>2026-04-18T12:59:27.486Z</time></trkpt><trkpt lat="43.66099" lon="11.7640563"><ele>671.0</ele><time>2026-04-18T12:59:28.478Z</time></trkpt><trkpt lat="43.6610615" lon="11.7639806"><ele>672.4</ele><time>2026-04-18T12:59:29.484Z</time></trkpt><trkpt lat="43.6611237" lon="11.763929"><ele>673.8</ele><time>2026-04-18T12:59:30.487Z</time></trkpt><trkpt lat="43.6612095" lon="11.7638525"><ele>675.1999999999999</ele><time>2026-04-18T12:59:32.485Z</time></trkpt><trkpt lat="43.6612545" lon="11.7637526"><ele>676.5999999999999</ele><time>2026-04-18T13:00:21.489Z</time></trkpt><trkpt lat="43.6613311" lon="11.763618"><ele>678.0</ele><time>2026-04-18T13:00:23.478Z</time></trkpt><trkpt lat="43.6613858" lon="11.7635004"><ele>674.5</ele><time>2026-04-18T13:00:24.495Z</time></trkpt><trkpt lat="43.661435" lon="11.7633645"><ele>671.0</ele><time>2026-04-18T13:00:25.48Z</time></trkpt><trkpt lat="43.6614955" lon="11.7632156"><ele>667.5</ele><time>2026-04-18T13:00:26.488Z</time></trkpt><trkpt lat="43.6615735" lon="11.763044"><ele>664.0</ele><time>2026-04-18T13:00:27.481Z</time></trkpt><trkpt lat="43.6616495" lon="11.7628649"><ele>662.0</ele><time>2026-04-18T13:00:28.485Z</time></trkpt><trkpt lat="43.6617201" lon="11.7626943"><ele>660.0</ele><time>2026-04-18T13:00:29.489Z</time></trkpt><trkpt lat="43.6617893" lon="11.7625285"><ele>658.0</ele><time>2026-04-18T13:00:30.475Z</time></trkpt><trkpt lat="43.6618567" lon="11.7623717"><ele>656.0</ele><time>2026-04-18T13:00:31.481Z</time></trkpt><trkpt lat="43.6619243" lon="11.7622219"><ele>655.0</ele><time>2026-04-18T13:00:32.481Z</time></trkpt><trkpt lat="43.6619813" lon="11.7620712"><ele>654.0</ele><time>2026-04-18T13:00:33.487Z</time></trkpt><trkpt lat="43.6620156" lon="11.7619164"><ele>653.0</ele><time>2026-04-18T13:00:34.492Z</time></trkpt><trkpt lat="43.6620266" lon="11.7617556"><ele>652.0</ele><time>2026-04-18T13:00:35.477Z</time></trkpt><trkpt lat="43.6620119" lon="11.7615865"><ele>651.25</ele><time>2026-04-18T13:00:36.486Z</time></trkpt><trkpt lat="43.6619734" lon="11.7614024"><ele>650.5</ele><time>2026-04-18T13:00:37.486Z</time></trkpt><trkpt lat="43.6619284" lon="11.7612374"><ele>649.75</ele><time>2026-04-18T13:00:38.492Z</time></trkpt><trkpt lat="43.661884" lon="11.7610942"><ele>649.0</ele><time>2026-04-18T13:00:39.483Z</time></trkpt><trkpt lat="43.6618495" lon="11.7609606"><ele>648.0</ele><time>2026-04-18T13:00:40.489Z</time></trkpt><trkpt lat="43.661838" lon="11.7608202"><ele>647.0</ele><time>2026-04-18T13:00:41.485Z</time></trkpt><trkpt lat="43.6618675" lon="11.7606951"><ele>646.0</ele><time>2026-04-18T13:00:42.485Z</time></trkpt><trkpt lat="43.6619183" lon="11.7605657"><ele>645.0</ele><time>2026-04-18T13:00:43.488Z</time></trkpt><trkpt lat="43.6619965" lon="11.7604497"><ele>644.0</ele><time>2026-04-18T13:00:44.476Z</time></trkpt><trkpt lat="43.6620861" lon="11.7603331"><ele>643.75</ele><time>2026-04-18T13:00:45.492Z</time></trkpt><trkpt lat="43.6621744" lon="11.7602064"><ele>643.5</ele><time>2026-04-18T13:00:46.483Z</time></trkpt><trkpt lat="43.6622599" lon="11.7600897"><ele>643.25</ele><time>2026-04-18T13:00:47.501Z</time></trkpt><trkpt lat="43.6623439" lon="11.7599752"><ele>643.0</ele><time>2026-04-18T13:00:48.498Z</time></trkpt><trkpt lat="43.6624395" lon="11.7598853"><ele>641.5</ele><time>2026-04-18T13:00:49.498Z</time></trkpt><trkpt lat="43.6625398" lon="11.7598174"><ele>640.0</ele><time>2026-04-18T13:00:50.499Z</time></trkpt><trkpt lat="43.6626406" lon="11.7597501"><ele>638.5</ele><time>2026-04-18T13:00:51.481Z</time></trkpt><trkpt lat="43.6627513" lon="11.7596871"><ele>637.0</ele><time>2026-04-18T13:00:52.484Z</time></trkpt><trkpt lat="43.6628716" lon="11.7596327"><ele>635.5</ele><time>2026-04-18T13:00:53.491Z</time></trkpt><trkpt lat="43.6630047" lon="11.7595734"><ele>634.0</ele><time>2026-04-18T13:00:54.497Z</time></trkpt><trkpt lat="43.6631472" lon="11.7595182"><ele>632.5</ele><time>2026-04-18T13:00:55.486Z</time></trkpt><trkpt lat="43.6632797" lon="11.7594624"><ele>631.0</ele><time>2026-04-18T13:00:56.482Z</time></trkpt><trkpt lat="43.6633935" lon="11.7593997"><ele>629.8</ele><time>2026-04-18T13:00:57.486Z</time></trkpt><trkpt lat="43.6634823" lon="11.7593267"><ele>628.6</ele><time>2026-04-18T13:00:58.492Z</time></trkpt><trkpt lat="43.6635616" lon="11.7592601"><ele>627.4</ele><time>2026-04-18T13:00:59.487Z</time></trkpt><trkpt lat="43.6636232" lon="11.7592213"><ele>626.2</ele><time>2026-04-18T13:01:00.495Z</time></trkpt><trkpt lat="43.6636863" lon="11.7592187"><ele>625.0</ele><time>2026-04-18T13:01:01.486Z</time></trkpt><trkpt lat="43.6637438" lon="11.7593696"><ele>626.0</ele><time>2026-04-18T13:01:03.483Z</time></trkpt><trkpt lat="43.6637275" lon="11.7594626"><ele>627.0</ele><time>2026-04-18T13:01:04.483Z</time></trkpt><trkpt lat="43.6636789" lon="11.7595462"><ele>628.0</ele><time>2026-04-18T13:01:05.488Z</time></trkpt><trkpt lat="43.6636088" lon="11.7596289"><ele>629.0</ele><time>2026-04-18T13:01:06.483Z</time></trkpt><trkpt lat="43.6635428" lon="11.7597161"><ele>630.0</ele><time>2026-04-18T13:01:07.498Z</time></trkpt><trkpt lat="43.6634987" lon="11.759821"><ele>631.0</ele><time>2026-04-18T13:01:08.489Z</time></trkpt><trkpt lat="43.6634794" lon="11.759947"><ele>631.0</ele><time>2026-04-18T13:01:09.495Z</time></trkpt><trkpt lat="43.6634668" lon="11.7600876"><ele>631.0</ele><time>2026-04-18T13:01:10.482Z</time></trkpt><trkpt lat="43.6634613" lon="11.7602535"><ele>631.0</ele><time>2026-04-18T13:01:11.488Z</time></trkpt><trkpt lat="43.6634512" lon="11.7604223"><ele>631.0</ele><time>2026-04-18T13:01:12.487Z</time></trkpt><trkpt lat="43.6634475" lon="11.7605763"><ele>631.2</ele><time>2026-04-18T13:01:13.476Z</time></trkpt><trkpt lat="43.6634317" lon="11.7607174"><ele>631.4000000000001</ele><time>2026-04-18T13:01:14.488Z</time></trkpt><trkpt lat="43.6634111" lon="11.7608392"><ele>631.6</ele><time>2026-04-18T13:01:15.479Z</time></trkpt><trkpt lat="43.6633809" lon="11.7609663"><ele>631.8000000000001</ele><time>2026-04-18T13:01:16.479Z</time></trkpt><trkpt lat="43.6633432" lon="11.7610878"><ele>632.0</ele><time>2026-04-18T13:01:17.488Z</time></trkpt><trkpt lat="43.6633162" lon="11.7612063"><ele>632.0</ele><time>2026-04-18T13:01:18.476Z</time></trkpt><trkpt lat="43.6633265" lon="11.7613284"><ele>632.0</ele><time>2026-04-18T13:01:19.488Z</time></trkpt><trkpt lat="43.6633748" lon="11.7614538"><ele>632.0</ele><time>2026-04-18T13:01:20.487Z</time></trkpt><trkpt lat="43.6634484" lon="11.7615523"><ele>632.0</ele><time>2026-04-18T13:01:21.483Z</time></trkpt><trkpt lat="43.6635415" lon="11.7616185"><ele>632.0</ele><time>2026-04-18T13:01:22.484Z</time></trkpt><trkpt lat="43.6636475" lon="11.7616571"><ele>628.0</ele><time>2026-04-18T13:01:23.486Z</time></trkpt><trkpt lat="43.6637705" lon="11.7616936"><ele>624.0</ele><time>2026-04-18T13:01:24.474Z</time></trkpt><trkpt lat="43.6638989" lon="11.7617326"><ele>620.0</ele><time>2026-04-18T13:01:25.486Z</time></trkpt><trkpt lat="43.6640227" lon="11.7617847"><ele>616.0</ele><time>2026-04-18T13:01:26.49Z</time></trkpt><trkpt lat="43.664154" lon="11.7618322"><ele>616.0</ele><time>2026-04-18T13:01:27.493Z</time></trkpt><trkpt lat="43.6642673" lon="11.7618703"><ele>616.0</ele><time>2026-04-18T13:01:28.486Z</time></trkpt><trkpt lat="43.6643581" lon="11.7618868"><ele>616.0</ele><time>2026-04-18T13:01:29.491Z</time></trkpt><trkpt lat="43.6644296" lon="11.7618418"><ele>616.0</ele><time>2026-04-18T13:01:30.483Z</time></trkpt><trkpt lat="43.6644858" lon="11.76178"><ele>616.0</ele><time>2026-04-18T13:01:31.486Z</time></trkpt><trkpt lat="43.6645115" lon="11.761693"><ele>616.0</ele><time>2026-04-18T13:01:32.477Z</time></trkpt><trkpt lat="43.6645067" lon="11.7615837"><ele>616.0</ele><time>2026-04-18T13:01:33.481Z</time></trkpt><trkpt lat="43.6644749" lon="11.7614595"><ele>616.0</ele><time>2026-04-18T13:01:34.48Z</time></trkpt><trkpt lat="43.6644506" lon="11.7613283"><ele>616.0</ele><time>2026-04-18T13:01:35.488Z</time></trkpt><trkpt lat="43.6644239" lon="11.7611776"><ele>616.0</ele><time>2026-04-18T13:01:36.491Z</time></trkpt><trkpt lat="43.6644083" lon="11.7610021"><ele>616.0</ele><time>2026-04-18T13:01:37.48Z</time></trkpt><trkpt lat="43.6643975" lon="11.7608185"><ele>614.0</ele><time>2026-04-18T13:01:38.482Z</time></trkpt><trkpt lat="43.6643963" lon="11.7606406"><ele>612.0</ele><time>2026-04-18T13:01:39.481Z</time></trkpt><trkpt lat="43.6644041" lon="11.7604675"><ele>610.0</ele><time>2026-04-18T13:01:40.483Z</time></trkpt><trkpt lat="43.6644243" lon="11.7603043"><ele>608.0</ele><time>2026-04-18T13:01:41.477Z</time></trkpt><trkpt lat="43.6644581" lon="11.7601496"><ele>604.8</ele><time>2026-04-18T13:01:42.485Z</time></trkpt><trkpt lat="43.6645134" lon="11.7600062"><ele>601.5999999999999</ele><time>2026-04-18T13:01:43.481Z</time></trkpt><trkpt lat="43.6645744" lon="11.7598815"><ele>598.4000000000001</ele><time>2026-04-18T13:01:44.486Z</time></trkpt><trkpt lat="43.6646415" lon="11.7597635"><ele>595.2</ele><time>2026-04-18T13:01:45.477Z</time></trkpt><trkpt lat="43.6647186" lon="11.7596682"><ele>592.0</ele><time>2026-04-18T13:01:46.486Z</time></trkpt><trkpt lat="43.6648219" lon="11.7596052"><ele>592.0</ele><time>2026-04-18T13:01:47.481Z</time></trkpt><trkpt lat="43.6649239" lon="11.7595682"><ele>592.0</ele><time>2026-04-18T13:01:48.486Z</time></trkpt><trkpt lat="43.6650207" lon="11.759537"><ele>592.0</ele><time>2026-04-18T13:01:49.48Z</time></trkpt><trkpt lat="43.6651106" lon="11.759506"><ele>592.0</ele><time>2026-04-18T13:01:50.483Z</time></trkpt><trkpt lat="43.6651982" lon="11.7594814"><ele>592.0</ele><time>2026-04-18T13:01:51.488Z</time></trkpt><trkpt lat="43.6652812" lon="11.7594424"><ele>588.2</ele><time>2026-04-18T13:01:52.481Z</time></trkpt><trkpt lat="43.6653467" lon="11.7593621"><ele>584.4000000000001</ele><time>2026-04-18T13:01:53.488Z</time></trkpt><trkpt lat="43.665398" lon="11.7592619"><ele>580.5999999999999</ele><time>2026-04-18T13:01:54.489Z</time></trkpt><trkpt lat="43.6654425" lon="11.7591503"><ele>576.8</ele><time>2026-04-18T13:01:55.49Z</time></trkpt><trkpt lat="43.6654891" lon="11.759021"><ele>573.0</ele><time>2026-04-18T13:01:56.484Z</time></trkpt><trkpt lat="43.6655392" lon="11.7588921"><ele>573.0</ele><time>2026-04-18T13:01:57.476Z</time></trkpt><trkpt lat="43.6655909" lon="11.7587711"><ele>573.0</ele><time>2026-04-18T13:01:58.491Z</time></trkpt><trkpt lat="43.6656409" lon="11.758649"><ele>573.0</ele><time>2026-04-18T13:01:59.477Z</time></trkpt><trkpt lat="43.665686" lon="11.7585384"><ele>573.0</ele><time>2026-04-18T13:02:00.473Z</time></trkpt><trkpt lat="43.6657223" lon="11.7584183"><ele>573.0</ele><time>2026-04-18T13:02:01.499Z</time></trkpt><trkpt lat="43.665753" lon="11.7583"><ele>574.3333333333334</ele><time>2026-04-18T13:02:02.481Z</time></trkpt><trkpt lat="43.6657847" lon="11.758192"><ele>575.6666666666666</ele><time>2026-04-18T13:02:03.493Z</time></trkpt><trkpt lat="43.665826" lon="11.7580835"><ele>577.0</ele><time>2026-04-18T13:02:04.493Z</time></trkpt><trkpt lat="43.665872" lon="11.7579717"><ele>578.3333333333333</ele><time>2026-04-18T13:02:05.485Z</time></trkpt><trkpt lat="43.6659274" lon="11.7578661"><ele>579.6666666666666</ele><time>2026-04-18T13:02:06.483Z</time></trkpt><trkpt lat="43.6659863" lon="11.7578086"><ele>581.0</ele><time>2026-04-18T13:02:07.503Z</time></trkpt><trkpt lat="43.6661074" lon="11.7578106"><ele>577.8</ele><time>2026-04-18T13:02:09.49Z</time></trkpt><trkpt lat="43.6662102" lon="11.7579238"><ele>574.6</ele><time>2026-04-18T13:02:11.49Z</time></trkpt><trkpt lat="43.6662473" lon="11.758009"><ele>571.4</ele><time>2026-04-18T13:02:12.483Z</time></trkpt><trkpt lat="43.6662414" lon="11.7581727"><ele>568.2</ele><time>2026-04-18T13:02:14.484Z</time></trkpt><trkpt lat="43.6662025" lon="11.7582566"><ele>565.0</ele><time>2026-04-18T13:02:15.495Z</time></trkpt><trkpt lat="43.6661627" lon="11.7583617"><ele>565.0</ele><time>2026-04-18T13:02:16.491Z</time></trkpt><trkpt lat="43.6661154" lon="11.7584704"><ele>565.0</ele><time>2026-04-18T13:02:17.482Z</time></trkpt><trkpt lat="43.6660693" lon="11.7585942"><ele>565.0</ele><time>2026-04-18T13:02:18.48Z</time></trkpt><trkpt lat="43.6660216" lon="11.7587391"><ele>565.0</ele><time>2026-04-18T13:02:19.487Z</time></trkpt><trkpt lat="43.665977" lon="11.7588953"><ele>565.0</ele><time>2026-04-18T13:02:20.48Z</time></trkpt><trkpt lat="43.6659395" lon="11.7590496"><ele>566.6</ele><time>2026-04-18T13:02:21.482Z</time></trkpt><trkpt lat="43.6659117" lon="11.7592102"><ele>568.2</ele><time>2026-04-18T13:02:22.477Z</time></trkpt><trkpt lat="43.6658837" lon="11.7593419"><ele>569.8</ele><time>2026-04-18T13:02:23.508Z</time></trkpt><trkpt lat="43.6658533" lon="11.7594579"><ele>571.4</ele><time>2026-04-18T13:02:24.48Z</time></trkpt><trkpt lat="43.6658342" lon="11.7595592"><ele>573.0</ele><time>2026-04-18T13:02:25.488Z</time></trkpt><trkpt lat="43.6658537" lon="11.7596468"><ele>573.3333333333334</ele><time>2026-04-18T13:02:26.482Z</time></trkpt><trkpt lat="43.6658962" lon="11.7597323"><ele>573.6666666666666</ele><time>2026-04-18T13:02:27.488Z</time></trkpt><trkpt lat="43.6659553" lon="11.7597987"><ele>574.0</ele><time>2026-04-18T13:02:28.481Z</time></trkpt><trkpt lat="43.6660348" lon="11.7598351"><ele>574.3333333333333</ele><time>2026-04-18T13:02:29.482Z</time></trkpt><trkpt lat="43.6661124" lon="11.7598358"><ele>574.6666666666666</ele><time>2026-04-18T13:02:30.486Z</time></trkpt><trkpt lat="43.6661993" lon="11.7597977"><ele>575.0</ele><time>2026-04-18T13:02:31.485Z</time></trkpt><trkpt lat="43.6662882" lon="11.7597407"><ele>574.0</ele><time>2026-04-18T13:02:32.479Z</time></trkpt><trkpt lat="43.6663821" lon="11.7596865"><ele>573.0</ele><time>2026-04-18T13:02:33.489Z</time></trkpt><trkpt lat="43.6664818" lon="11.7596499"><ele>572.0</ele><time>2026-04-18T13:02:34.481Z</time></trkpt><trkpt lat="43.6665869" lon="11.759616"><ele>571.0</ele><time>2026-04-18T13:02:35.478Z</time></trkpt><trkpt lat="43.6666915" lon="11.7595771"><ele>570.0</ele><time>2026-04-18T13:02:36.483Z</time></trkpt><trkpt lat="43.6667987" lon="11.7595375"><ele>570.0</ele><time>2026-04-18T13:02:37.485Z</time></trkpt><trkpt lat="43.6669111" lon="11.7595129"><ele>570.0</ele><time>2026-04-18T13:02:38.475Z</time></trkpt><trkpt lat="43.6670291" lon="11.759505"><ele>570.0</ele><time>2026-04-18T13:02:39.488Z</time></trkpt><trkpt lat="43.667148" lon="11.7595043"><ele>570.0</ele><time>2026-04-18T13:02:40.479Z</time></trkpt><trkpt lat="43.6672691" lon="11.7595211"><ele>568.0</ele><time>2026-04-18T13:02:41.483Z</time></trkpt><trkpt lat="43.6673875" lon="11.7595612"><ele>566.0</ele><time>2026-04-18T13:02:42.483Z</time></trkpt><trkpt lat="43.6675007" lon="11.7596207"><ele>564.0</ele><time>2026-04-18T13:02:43.481Z</time></trkpt><trkpt lat="43.6676098" lon="11.7596867"><ele>562.0</ele><time>2026-04-18T13:02:44.484Z</time></trkpt><trkpt lat="43.6677148" lon="11.7597559"><ele>559.6</ele><time>2026-04-18T13:02:45.488Z</time></trkpt><trkpt lat="43.6678213" lon="11.7598187"><ele>557.2</ele><time>2026-04-18T13:02:46.498Z</time></trkpt><trkpt lat="43.6679252" lon="11.7598489"><ele>554.8</ele><time>2026-04-18T13:02:47.484Z</time></trkpt><trkpt lat="43.6680284" lon="11.7598556"><ele>552.4</ele><time>2026-04-18T13:02:48.49Z</time></trkpt><trkpt lat="43.6681402" lon="11.7598521"><ele>550.0</ele><time>2026-04-18T13:02:49.487Z</time></trkpt><trkpt lat="43.6682557" lon="11.7598418"><ele>550.0</ele><time>2026-04-18T13:02:50.481Z</time></trkpt><trkpt lat="43.6683742" lon="11.7598298"><ele>550.0</ele><time>2026-04-18T13:02:51.489Z</time></trkpt><trkpt lat="43.6685038" lon="11.7598236"><ele>550.0</ele><time>2026-04-18T13:02:52.496Z</time></trkpt><trkpt lat="43.6686411" lon="11.7598027"><ele>550.0</ele><time>2026-04-18T13:02:53.488Z</time></trkpt><trkpt lat="43.6687812" lon="11.7597894"><ele>548.25</ele><time>2026-04-18T13:02:54.488Z</time></trkpt><trkpt lat="43.6689178" lon="11.7597804"><ele>546.5</ele><time>2026-04-18T13:02:55.489Z</time></trkpt><trkpt lat="43.6690517" lon="11.7597699"><ele>544.75</ele><time>2026-04-18T13:02:56.487Z</time></trkpt><trkpt lat="43.6691835" lon="11.7597594"><ele>543.0</ele><time>2026-04-18T13:02:57.49Z</time></trkpt><trkpt lat="43.6693222" lon="11.7597549"><ele>543.25</ele><time>2026-04-18T13:02:58.493Z</time></trkpt><trkpt lat="43.669452" lon="11.759751"><ele>543.5</ele><time>2026-04-18T13:02:59.482Z</time></trkpt><trkpt lat="43.6695697" lon="11.7597419"><ele>543.75</ele><time>2026-04-18T13:03:00.481Z</time></trkpt><trkpt lat="43.6696909" lon="11.7597362"><ele>544.0</ele><time>2026-04-18T13:03:01.481Z</time></trkpt><trkpt lat="43.669804" lon="11.7596984"><ele>544.0</ele><time>2026-04-18T13:03:02.488Z</time></trkpt><trkpt lat="43.6699094" lon="11.7596374"><ele>544.0</ele><time>2026-04-18T13:03:03.488Z</time></trkpt><trkpt lat="43.6700097" lon="11.7595443"><ele>544.0</ele><time>2026-04-18T13:03:04.483Z</time></trkpt><trkpt lat="43.6701016" lon="11.7594524"><ele>544.0</ele><time>2026-04-18T13:03:05.486Z</time></trkpt><trkpt lat="43.6701934" lon="11.7593671"><ele>541.4</ele><time>2026-04-18T13:03:06.497Z</time></trkpt><trkpt lat="43.6702807" lon="11.759286"><ele>538.8</ele><time>2026-04-18T13:03:07.484Z</time></trkpt><trkpt lat="43.6703698" lon="11.7592007"><ele>536.2</ele><time>2026-04-18T13:03:08.491Z</time></trkpt><trkpt lat="43.6704631" lon="11.7591243"><ele>533.6</ele><time>2026-04-18T13:03:09.47Z</time></trkpt><trkpt lat="43.6705552" lon="11.7590514"><ele>531.0</ele><time>2026-04-18T13:03:10.485Z</time></trkpt><trkpt lat="43.6706606" lon="11.7589689"><ele>531.0</ele><time>2026-04-18T13:03:11.481Z</time></trkpt><trkpt lat="43.6707776" lon="11.7588746"><ele>531.0</ele><time>2026-04-18T13:03:12.478Z</time></trkpt><trkpt lat="43.670889" lon="11.7587669"><ele>531.0</ele><time>2026-04-18T13:03:13.476Z</time></trkpt><trkpt lat="43.6709903" lon="11.7586726"><ele>531.0</ele><time>2026-04-18T13:03:14.489Z</time></trkpt><trkpt lat="43.6710755" lon="11.7586167"><ele>529.4</ele><time>2026-04-18T13:03:15.479Z</time></trkpt><trkpt lat="43.6711501" lon="11.7585656"><ele>527.8</ele><time>2026-04-18T13:03:16.482Z</time></trkpt><trkpt lat="43.6712333" lon="11.7585434"><ele>526.1999999999999</ele><time>2026-04-18T13:03:17.477Z</time></trkpt><trkpt lat="43.6713254" lon="11.7585541"><ele>524.6</ele><time>2026-04-18T13:03:18.478Z</time></trkpt><trkpt lat="43.6714176" lon="11.7585959"><ele>523.0</ele><time>2026-04-18T13:03:19.479Z</time></trkpt><trkpt lat="43.6715191" lon="11.7586644"><ele>523.0</ele><time>2026-04-18T13:03:20.474Z</time></trkpt><trkpt lat="43.671618" lon="11.7587228"><ele>523.0</ele><time>2026-04-18T13:03:21.481Z</time></trkpt><trkpt lat="43.6717169" lon="11.7587606"><ele>523.0</ele><time>2026-04-18T13:03:22.483Z</time></trkpt><trkpt lat="43.6718361" lon="11.7587788"><ele>523.0</ele><time>2026-04-18T13:03:23.482Z</time></trkpt><trkpt lat="43.6719616" lon="11.7587699"><ele>520.0</ele><time>2026-04-18T13:03:24.473Z</time></trkpt><trkpt lat="43.6720822" lon="11.7587446"><ele>517.0</ele><time>2026-04-18T13:03:25.485Z</time></trkpt><trkpt lat="43.6722101" lon="11.7587086"><ele>514.0</ele><time>2026-04-18T13:03:26.483Z</time></trkpt><trkpt lat="43.6723351" lon="11.7586787"><ele>511.0</ele><time>2026-04-18T13:03:27.478Z</time></trkpt><trkpt lat="43.6724523" lon="11.7586548"><ele>511.0</ele><time>2026-04-18T13:03:28.472Z</time></trkpt><trkpt lat="43.6725575" lon="11.7586515"><ele>511.0</ele><time>2026-04-18T13:03:29.497Z</time></trkpt><trkpt lat="43.6726543" lon="11.7587083"><ele>511.0</ele><time>2026-04-18T13:03:30.488Z</time></trkpt><trkpt lat="43.6727365" lon="11.7587888"><ele>511.0</ele><time>2026-04-18T13:03:31.49Z</time></trkpt><trkpt lat="43.6728332" lon="11.7588979"><ele>511.0</ele><time>2026-04-18T13:03:32.491Z</time></trkpt><trkpt lat="43.6729304" lon="11.7589957"><ele>507.5</ele><time>2026-04-18T13:03:33.475Z</time></trkpt><trkpt lat="43.6730292" lon="11.7590913"><ele>504.0</ele><time>2026-04-18T13:03:34.48Z</time></trkpt><trkpt lat="43.6731141" lon="11.7591958"><ele>500.5</ele><time>2026-04-18T13:03:35.495Z</time></trkpt><trkpt lat="43.673197" lon="11.7593103"><ele>497.0</ele><time>2026-04-18T13:03:36.485Z</time></trkpt><trkpt lat="43.6732668" lon="11.7594409"><ele>497.0</ele><time>2026-04-18T13:03:37.487Z</time></trkpt><trkpt lat="43.6733233" lon="11.7595797"><ele>497.00000000000006</ele><time>2026-04-18T13:03:38.497Z</time></trkpt><trkpt lat="43.6733631" lon="11.7597233"><ele>497.00000000000006</ele><time>2026-04-18T13:03:39.48Z</time></trkpt><trkpt lat="43.6733926" lon="11.7598638"><ele>497.0</ele><time>2026-04-18T13:03:40.48Z</time></trkpt><trkpt lat="43.6734184" lon="11.7599764"><ele>497.0</ele><time>2026-04-18T13:03:41.487Z</time></trkpt><trkpt lat="43.6734516" lon="11.7600548"><ele>496.99999999999994</ele><time>2026-04-18T13:03:42.476Z</time></trkpt><trkpt lat="43.6734983" lon="11.7601143"><ele>497.0</ele><time>2026-04-18T13:03:43.471Z</time></trkpt><trkpt lat="43.6735608" lon="11.7601536"><ele>497.0</ele><time>2026-04-18T13:03:44.476Z</time></trkpt><trkpt lat="43.6736279" lon="11.760155"><ele>497.0</ele><time>2026-04-18T13:03:45.484Z</time></trkpt><trkpt lat="43.6737028" lon="11.7601116"><ele>496.99999999999994</ele><time>2026-04-18T13:03:46.48Z</time></trkpt><trkpt lat="43.6737754" lon="11.7599664"><ele>497.0</ele><time>2026-04-18T13:03:48.496Z</time></trkpt><trkpt lat="43.6737739" lon="11.7598676"><ele>494.6</ele><time>2026-04-18T13:03:49.488Z</time></trkpt><trkpt lat="43.6737571" lon="11.7597609"><ele>492.20000000000005</ele><time>2026-04-18T13:03:50.484Z</time></trkpt><trkpt lat="43.6737171" lon="11.7596445"><ele>489.8</ele><time>2026-04-18T13:03:51.497Z</time></trkpt><trkpt lat="43.673682" lon="11.7595377"><ele>487.4</ele><time>2026-04-18T13:03:52.49Z</time></trkpt><trkpt lat="43.6736452" lon="11.7594432"><ele>485.0</ele><time>2026-04-18T13:03:53.492Z</time></trkpt><trkpt lat="43.6735921" lon="11.7593016"><ele>484.99999999999994</ele><time>2026-04-18T13:03:55.479Z</time></trkpt><trkpt lat="43.6735427" lon="11.7591488"><ele>485.0</ele><time>2026-04-18T13:03:57.482Z</time></trkpt><trkpt lat="43.6735066" lon="11.7590525"><ele>485.0</ele><time>2026-04-18T13:03:58.48Z</time></trkpt><trkpt lat="43.6734712" lon="11.7589614"><ele>485.0</ele><time>2026-04-18T13:03:59.484Z</time></trkpt><trkpt lat="43.6734341" lon="11.7588693"><ele>484.99999999999994</ele><time>2026-04-18T13:04:00.483Z</time></trkpt><trkpt lat="43.6733966" lon="11.7587596"><ele>485.0</ele><time>2026-04-18T13:04:01.481Z</time></trkpt><trkpt lat="43.6733548" lon="11.758641"><ele>482.2</ele><time>2026-04-18T13:04:02.484Z</time></trkpt><trkpt lat="43.6733049" lon="11.7585141"><ele>479.4</ele><time>2026-04-18T13:04:03.483Z</time></trkpt><trkpt lat="43.6732521" lon="11.7583909"><ele>476.6</ele><time>2026-04-18T13:04:04.477Z</time></trkpt><trkpt lat="43.6732049" lon="11.7582713"><ele>473.8</ele><time>2026-04-18T13:04:05.488Z</time></trkpt><trkpt lat="43.673159" lon="11.7581522"><ele>471.0</ele><time>2026-04-18T13:04:06.482Z</time></trkpt><trkpt lat="43.6731187" lon="11.7580402"><ele>471.0</ele><time>2026-04-18T13:04:07.475Z</time></trkpt><trkpt lat="43.6730825" lon="11.7579176"><ele>471.0</ele><time>2026-04-18T13:04:08.483Z</time></trkpt><trkpt lat="43.6730457" lon="11.7577882"><ele>471.0</ele><time>2026-04-18T13:04:09.479Z</time></trkpt><trkpt lat="43.6730126" lon="11.757655"><ele>471.0</ele><time>2026-04-18T13:04:10.484Z</time></trkpt><trkpt lat="43.6729574" lon="11.7575501"><ele>471.0</ele><time>2026-04-18T13:04:11.488Z</time></trkpt><trkpt lat="43.6728923" lon="11.7574645"><ele>470.8</ele><time>2026-04-18T13:04:12.485Z</time></trkpt><trkpt lat="43.6728118" lon="11.7573879"><ele>470.6</ele><time>2026-04-18T13:04:13.495Z</time></trkpt><trkpt lat="43.6727164" lon="11.7573306"><ele>470.4</ele><time>2026-04-18T13:04:14.487Z</time></trkpt><trkpt lat="43.6726052" lon="11.7572889"><ele>470.2</ele><time>2026-04-18T13:04:15.484Z</time></trkpt><trkpt lat="43.6724864" lon="11.7572454"><ele>470.0</ele><time>2026-04-18T13:04:16.474Z</time></trkpt><trkpt lat="43.6723797" lon="11.7572005"><ele>470.0</ele><time>2026-04-18T13:04:17.471Z</time></trkpt><trkpt lat="43.6722915" lon="11.7571616"><ele>470.0</ele><time>2026-04-18T13:04:18.489Z</time></trkpt><trkpt lat="43.6722238" lon="11.7571075"><ele>470.0</ele><time>2026-04-18T13:04:19.486Z</time></trkpt><trkpt lat="43.6721761" lon="11.7570307"><ele>470.0</ele><time>2026-04-18T13:04:20.481Z</time></trkpt><trkpt lat="43.672146" lon="11.7569033"><ele>470.0</ele><time>2026-04-18T13:04:21.476Z</time></trkpt><trkpt lat="43.6721362" lon="11.7567472"><ele>465.5</ele><time>2026-04-18T13:04:22.48Z</time></trkpt><trkpt lat="43.6721266" lon="11.7565795"><ele>461.0</ele><time>2026-04-18T13:04:23.48Z</time></trkpt><trkpt lat="43.6721253" lon="11.756395"><ele>456.5</ele><time>2026-04-18T13:04:24.486Z</time></trkpt><trkpt lat="43.6721341" lon="11.7562121"><ele>452.0</ele><time>2026-04-18T13:04:25.482Z</time></trkpt><trkpt lat="43.672143" lon="11.7560447"><ele>449.5</ele><time>2026-04-18T13:04:26.473Z</time></trkpt><trkpt lat="43.6721354" lon="11.7558842"><ele>447.0</ele><time>2026-04-18T13:04:27.483Z</time></trkpt><trkpt lat="43.6720973" lon="11.7557213"><ele>444.5</ele><time>2026-04-18T13:04:28.481Z</time></trkpt><trkpt lat="43.6720358" lon="11.7555518"><ele>442.0</ele><time>2026-04-18T13:04:29.478Z</time></trkpt><trkpt lat="43.6719799" lon="11.7553996"><ele>443.20000000000005</ele><time>2026-04-18T13:04:30.487Z</time></trkpt><trkpt lat="43.6719357" lon="11.7552507"><ele>444.40000000000003</ele><time>2026-04-18T13:04:31.48Z</time></trkpt><trkpt lat="43.6719044" lon="11.7551035"><ele>445.59999999999997</ele><time>2026-04-18T13:04:32.479Z</time></trkpt><trkpt lat="43.6719003" lon="11.7549571"><ele>446.79999999999995</ele><time>2026-04-18T13:04:33.482Z</time></trkpt><trkpt lat="43.6719159" lon="11.7548041"><ele>448.0</ele><time>2026-04-18T13:04:34.485Z</time></trkpt><trkpt lat="43.6719211" lon="11.7546657"><ele>448.0</ele><time>2026-04-18T13:04:35.485Z</time></trkpt><trkpt lat="43.6718929" lon="11.7545299"><ele>448.0</ele><time>2026-04-18T13:04:36.481Z</time></trkpt><trkpt lat="43.6718269" lon="11.7544071"><ele>448.0</ele><time>2026-04-18T13:04:37.475Z</time></trkpt><trkpt lat="43.6717252" lon="11.7542735"><ele>448.0</ele><time>2026-04-18T13:04:38.489Z</time></trkpt><trkpt lat="43.6716093" lon="11.7541397"><ele>445.25</ele><time>2026-04-18T13:04:39.485Z</time></trkpt><trkpt lat="43.6714941" lon="11.7539909"><ele>442.5</ele><time>2026-04-18T13:04:40.472Z</time></trkpt><trkpt lat="43.6713932" lon="11.7538575"><ele>439.75</ele><time>2026-04-18T13:04:41.484Z</time></trkpt><trkpt lat="43.6712825" lon="11.7537448"><ele>437.0</ele><time>2026-04-18T13:04:42.473Z</time></trkpt><trkpt lat="43.6711815" lon="11.7536544"><ele>437.6</ele><time>2026-04-18T13:04:43.487Z</time></trkpt><trkpt lat="43.6710946" lon="11.7535872"><ele>438.20000000000005</ele><time>2026-04-18T13:04:44.473Z</time></trkpt><trkpt lat="43.6710168" lon="11.7535167"><ele>438.8</ele><time>2026-04-18T13:04:45.49Z</time></trkpt><trkpt lat="43.6709659" lon="11.7534493"><ele>439.4</ele><time>2026-04-18T13:04:46.48Z</time></trkpt><trkpt lat="43.6709594" lon="11.7532736"><ele>440.0</ele><time>2026-04-18T13:04:48.478Z</time></trkpt><trkpt lat="43.6709971" lon="11.7531823"><ele>440.16666666666663</ele><time>2026-04-18T13:04:49.48Z</time></trkpt><trkpt lat="43.6710518" lon="11.7531093"><ele>440.3333333333333</ele><time>2026-04-18T13:04:50.48Z</time></trkpt><trkpt lat="43.6711253" lon="11.7530665"><ele>440.5</ele><time>2026-04-18T13:04:51.48Z</time></trkpt><trkpt lat="43.6712115" lon="11.7530449"><ele>440.66666666666663</ele><time>2026-04-18T13:04:52.476Z</time></trkpt><trkpt lat="43.6712928" lon="11.7530278"><ele>440.8333333333333</ele><time>2026-04-18T13:04:53.477Z</time></trkpt><trkpt lat="43.6713756" lon="11.7529991"><ele>441.0</ele><time>2026-04-18T13:04:54.479Z</time></trkpt><trkpt lat="43.6714524" lon="11.7529709"><ele>441.8</ele><time>2026-04-18T13:04:55.48Z</time></trkpt><trkpt lat="43.671518" lon="11.75292"><ele>442.6</ele><time>2026-04-18T13:04:56.483Z</time></trkpt><trkpt lat="43.6715825" lon="11.7528357"><ele>443.4</ele><time>2026-04-18T13:04:57.474Z</time></trkpt><trkpt lat="43.6716483" lon="11.7527296"><ele>444.2</ele><time>2026-04-18T13:04:58.483Z</time></trkpt><trkpt lat="43.6717147" lon="11.7526143"><ele>445.0</ele><time>2026-04-18T13:04:59.492Z</time></trkpt><trkpt lat="43.6717867" lon="11.7525056"><ele>445.0</ele><time>2026-04-18T13:05:00.481Z</time></trkpt><trkpt lat="43.6718594" lon="11.752403"><ele>445.0</ele><time>2026-04-18T13:05:01.476Z</time></trkpt><trkpt lat="43.6719395" lon="11.7522996"><ele>445.0</ele><time>2026-04-18T13:05:02.478Z</time></trkpt><trkpt lat="43.6720412" lon="11.7522201"><ele>445.0</ele><time>2026-04-18T13:05:03.482Z</time></trkpt><trkpt lat="43.6721498" lon="11.7521604"><ele>445.0</ele><time>2026-04-18T13:05:04.485Z</time></trkpt><trkpt lat="43.6722615" lon="11.752133"><ele>444.1666666666667</ele><time>2026-04-18T13:05:05.489Z</time></trkpt><trkpt lat="43.6723593" lon="11.7521389"><ele>443.33333333333337</ele><time>2026-04-18T13:05:06.482Z</time></trkpt><trkpt lat="43.6724521" lon="11.7521345"><ele>442.5</ele><time>2026-04-18T13:05:08.489Z</time></trkpt><trkpt lat="43.6725266" lon="11.752077"><ele>441.66666666666663</ele><time>2026-04-18T13:05:10.48Z</time></trkpt><trkpt lat="43.6725665" lon="11.7520089"><ele>440.8333333333333</ele><time>2026-04-18T13:05:11.472Z</time></trkpt><trkpt lat="43.6726216" lon="11.751925"><ele>440.0</ele><time>2026-04-18T13:05:12.479Z</time></trkpt><trkpt lat="43.6726978" lon="11.7518557"><ele>440.8</ele><time>2026-04-18T13:05:13.479Z</time></trkpt><trkpt lat="43.6727737" lon="11.7517781"><ele>441.6</ele><time>2026-04-18T13:05:14.492Z</time></trkpt><trkpt lat="43.6728519" lon="11.7516937"><ele>442.4</ele><time>2026-04-18T13:05:15.483Z</time></trkpt><trkpt lat="43.6729237" lon="11.7516358"><ele>443.2</ele><time>2026-04-18T13:05:16.488Z</time></trkpt><trkpt lat="43.6729803" lon="11.7515873"><ele>444.0</ele><time>2026-04-18T13:05:17.487Z</time></trkpt><trkpt lat="43.6730785" lon="11.7515173"><ele>444.0</ele><time>2026-04-18T13:05:19.482Z</time></trkpt><trkpt lat="43.6731504" lon="11.751451"><ele>444.0</ele><time>2026-04-18T13:05:21.5Z</time></trkpt><trkpt lat="43.673223" lon="11.7513764"><ele>444.0</ele><time>2026-04-18T13:05:23.482Z</time></trkpt><trkpt lat="43.6733138" lon="11.751277"><ele>444.0</ele><time>2026-04-18T13:05:25.477Z</time></trkpt><trkpt lat="43.6733725" lon="11.7512181"><ele>444.0</ele><time>2026-04-18T13:05:26.497Z</time></trkpt><trkpt lat="43.6734431" lon="11.7511464"><ele>444.0</ele><time>2026-04-18T13:05:28.486Z</time></trkpt><trkpt lat="43.6734764" lon="11.7510639"><ele>444.0</ele><time>2026-04-18T13:05:34.484Z</time></trkpt><trkpt lat="43.6734138" lon="11.7510957"><ele>444.0</ele><time>2026-04-18T13:05:46.487Z</time></trkpt><trkpt lat="43.6733804" lon="11.751184"><ele>444.0</ele><time>2026-04-18T13:05:48.483Z</time></trkpt><trkpt lat="43.6733516" lon="11.7512641"><ele>444.0</ele><time>2026-04-18T13:05:49.487Z</time></trkpt><trkpt lat="43.6732968" lon="11.7513308"><ele>444.0</ele><time>2026-04-18T13:05:50.477Z</time></trkpt><trkpt lat="43.6732285" lon="11.751407"><ele>444.0</ele><time>2026-04-18T13:05:51.483Z</time></trkpt><trkpt lat="43.6731443" lon="11.7515012"><ele>444.0</ele><time>2026-04-18T13:05:52.479Z</time></trkpt><trkpt lat="43.6730558" lon="11.7515902"><ele>444.0</ele><time>2026-04-18T13:05:53.484Z</time></trkpt><trkpt lat="43.6729612" lon="11.7516829"><ele>444.0</ele><time>2026-04-18T13:05:54.491Z</time></trkpt><trkpt lat="43.672865" lon="11.751773"><ele>444.0</ele><time>2026-04-18T13:05:55.479Z</time></trkpt><trkpt lat="43.672777" lon="11.7518627"><ele>443.3333333333333</ele><time>2026-04-18T13:05:56.482Z</time></trkpt><trkpt lat="43.6727029" lon="11.7519496"><ele>442.66666666666663</ele><time>2026-04-18T13:05:57.484Z</time></trkpt><trkpt lat="43.6726428" lon="11.75202"><ele>442.0</ele><time>2026-04-18T13:05:58.488Z</time></trkpt><trkpt lat="43.6725986" lon="11.7520866"><ele>441.3333333333333</ele><time>2026-04-18T13:05:59.482Z</time></trkpt><trkpt lat="43.6725459" lon="11.752224"><ele>440.66666666666663</ele><time>2026-04-18T13:06:01.492Z</time></trkpt><trkpt lat="43.6725642" lon="11.7523167"><ele>440.0</ele><time>2026-04-18T13:06:03.483Z</time></trkpt><trkpt lat="43.6726862" lon="11.7523681"><ele>438.6</ele><time>2026-04-18T13:06:05.484Z</time></trkpt><trkpt lat="43.6727806" lon="11.7523563"><ele>437.2</ele><time>2026-04-18T13:06:06.482Z</time></trkpt><trkpt lat="43.6728904" lon="11.75232"><ele>435.79999999999995</ele><time>2026-04-18T13:06:07.489Z</time></trkpt><trkpt lat="43.6729917" lon="11.7523068"><ele>434.4</ele><time>2026-04-18T13:06:08.477Z</time></trkpt><trkpt lat="43.6730919" lon="11.75231"><ele>433.0</ele><time>2026-04-18T13:06:09.485Z</time></trkpt><trkpt lat="43.6731718" lon="11.7523406"><ele>433.00000000000006</ele><time>2026-04-18T13:06:10.475Z</time></trkpt><trkpt lat="43.6732289" lon="11.7523995"><ele>433.0</ele><time>2026-04-18T13:06:11.492Z</time></trkpt><trkpt lat="43.6732707" lon="11.7524876"><ele>433.0</ele><time>2026-04-18T13:06:12.484Z</time></trkpt><trkpt lat="43.6732679" lon="11.7525946"><ele>433.0</ele><time>2026-04-18T13:06:13.485Z</time></trkpt><trkpt lat="43.673219" lon="11.752685"><ele>433.00000000000006</ele><time>2026-04-18T13:06:14.483Z</time></trkpt><trkpt lat="43.6731311" lon="11.7527666"><ele>433.0</ele><time>2026-04-18T13:06:15.483Z</time></trkpt><trkpt lat="43.6730306" lon="11.7528609"><ele>431.1666666666667</ele><time>2026-04-18T13:06:16.478Z</time></trkpt><trkpt lat="43.6729408" lon="11.752956"><ele>429.33333333333337</ele><time>2026-04-18T13:06:17.487Z</time></trkpt><trkpt lat="43.6728652" lon="11.7530629"><ele>427.5</ele><time>2026-04-18T13:06:18.48Z</time></trkpt><trkpt lat="43.6728102" lon="11.7531459"><ele>425.66666666666663</ele><time>2026-04-18T13:06:19.483Z</time></trkpt><trkpt lat="43.6727794" lon="11.7532387"><ele>423.8333333333333</ele><time>2026-04-18T13:06:20.482Z</time></trkpt><trkpt lat="43.6727879" lon="11.7533379"><ele>422.0</ele><time>2026-04-18T13:06:21.482Z</time></trkpt><trkpt lat="43.6728382" lon="11.7534148"><ele>422.0</ele><time>2026-04-18T13:06:22.487Z</time></trkpt><trkpt lat="43.6729197" lon="11.7534676"><ele>422.0</ele><time>2026-04-18T13:06:23.496Z</time></trkpt><trkpt lat="43.6730271" lon="11.7535078"><ele>422.0</ele><time>2026-04-18T13:06:24.474Z</time></trkpt><trkpt lat="43.6731166" lon="11.7535314"><ele>422.0</ele><time>2026-04-18T13:06:25.481Z</time></trkpt><trkpt lat="43.6732056" lon="11.753498"><ele>422.0</ele><time>2026-04-18T13:06:26.484Z</time></trkpt><trkpt lat="43.6732764" lon="11.7534293"><ele>422.0</ele><time>2026-04-18T13:06:27.483Z</time></trkpt><trkpt lat="43.6733135" lon="11.7532885"><ele>422.0</ele><time>2026-04-18T13:06:28.482Z</time></trkpt><trkpt lat="43.6733497" lon="11.7531395"><ele>422.0</ele><time>2026-04-18T13:06:29.48Z</time></trkpt><trkpt lat="43.673401" lon="11.7529924"><ele>422.0</ele><time>2026-04-18T13:06:30.483Z</time></trkpt><trkpt lat="43.6734793" lon="11.7528691"><ele>422.0</ele><time>2026-04-18T13:06:31.48Z</time></trkpt><trkpt lat="43.6735741" lon="11.7527866"><ele>422.0</ele><time>2026-04-18T13:06:32.494Z</time></trkpt><trkpt lat="43.6736797" lon="11.7527323"><ele>422.0</ele><time>2026-04-18T13:06:33.474Z</time></trkpt><trkpt lat="43.6738128" lon="11.7527205"><ele>422.0</ele><time>2026-04-18T13:06:34.482Z</time></trkpt><trkpt lat="43.6739582" lon="11.7527174"><ele>419.0</ele><time>2026-04-18T13:06:35.482Z</time></trkpt><trkpt lat="43.6741098" lon="11.752721"><ele>416.0</ele><time>2026-04-18T13:06:36.485Z</time></trkpt><trkpt lat="43.6742529" lon="11.7527318"><ele>413.0</ele><time>2026-04-18T13:06:37.484Z</time></trkpt><trkpt lat="43.6743919" lon="11.7527289"><ele>410.0</ele><time>2026-04-18T13:06:38.479Z</time></trkpt><trkpt lat="43.6745304" lon="11.7527047"><ele>409.5</ele><time>2026-04-18T13:06:39.473Z</time></trkpt><trkpt lat="43.6746588" lon="11.752665"><ele>409.0</ele><time>2026-04-18T13:06:40.484Z</time></trkpt><trkpt lat="43.6747618" lon="11.7525794"><ele>408.5</ele><time>2026-04-18T13:06:41.499Z</time></trkpt><trkpt lat="43.6748398" lon="11.7524369"><ele>408.0</ele><time>2026-04-18T13:06:42.48Z</time></trkpt><trkpt lat="43.6748915" lon="11.7522653"><ele>408.0</ele><time>2026-04-18T13:06:43.478Z</time></trkpt><trkpt lat="43.6749274" lon="11.7520797"><ele>408.0</ele><time>2026-04-18T13:06:44.485Z</time></trkpt><trkpt lat="43.674975" lon="11.7519129"><ele>408.0</ele><time>2026-04-18T13:06:45.479Z</time></trkpt><trkpt lat="43.6750437" lon="11.7517776"><ele>408.0</ele><time>2026-04-18T13:06:46.48Z</time></trkpt><trkpt lat="43.6751293" lon="11.751663"><ele>406.25</ele><time>2026-04-18T13:06:47.477Z</time></trkpt><trkpt lat="43.6752419" lon="11.7515906"><ele>404.5</ele><time>2026-04-18T13:06:48.481Z</time></trkpt><trkpt lat="43.6753893" lon="11.7515494"><ele>402.75</ele><time>2026-04-18T13:06:49.48Z</time></trkpt><trkpt lat="43.6755496" lon="11.7515165"><ele>401.0</ele><time>2026-04-18T13:06:50.489Z</time></trkpt><trkpt lat="43.6757009" lon="11.751478"><ele>401.0</ele><time>2026-04-18T13:06:51.488Z</time></trkpt><trkpt lat="43.6758348" lon="11.7514282"><ele>401.0</ele><time>2026-04-18T13:06:52.48Z</time></trkpt><trkpt lat="43.6759588" lon="11.7513655"><ele>401.0</ele><time>2026-04-18T13:06:53.48Z</time></trkpt><trkpt lat="43.6760742" lon="11.7513092"><ele>401.0</ele><time>2026-04-18T13:06:54.485Z</time></trkpt><trkpt lat="43.6761933" lon="11.7512547"><ele>399.66666666666663</ele><time>2026-04-18T13:06:55.481Z</time></trkpt><trkpt lat="43.6763071" lon="11.7512341"><ele>398.3333333333333</ele><time>2026-04-18T13:06:56.476Z</time></trkpt><trkpt lat="43.6763997" lon="11.7512247"><ele>397.0</ele><time>2026-04-18T13:06:57.48Z</time></trkpt><trkpt lat="43.6764663" lon="11.7512252"><ele>395.66666666666663</ele><time>2026-04-18T13:06:58.486Z</time></trkpt><trkpt lat="43.6765435" lon="11.7512134"><ele>394.3333333333333</ele><time>2026-04-18T13:07:00.488Z</time></trkpt><trkpt lat="43.6766226" lon="11.7511596"><ele>393.0</ele><time>2026-04-18T13:07:03.49Z</time></trkpt><trkpt lat="43.6767366" lon="11.7510865"><ele>393.0</ele><time>2026-04-18T13:07:05.49Z</time></trkpt><trkpt lat="43.676831" lon="11.7510464"><ele>393.0</ele><time>2026-04-18T13:07:06.489Z</time></trkpt><trkpt lat="43.6769234" lon="11.7510029"><ele>393.0</ele><time>2026-04-18T13:07:07.49Z</time></trkpt><trkpt lat="43.6770415" lon="11.7509616"><ele>393.0</ele><time>2026-04-18T13:07:08.485Z</time></trkpt><trkpt lat="43.6771701" lon="11.7509347"><ele>393.0</ele><time>2026-04-18T13:07:09.484Z</time></trkpt><trkpt lat="43.677314" lon="11.7509191"><ele>393.0</ele><time>2026-04-18T13:07:10.481Z</time></trkpt><trkpt lat="43.6774457" lon="11.7509218"><ele>393.0</ele><time>2026-04-18T13:07:11.484Z</time></trkpt><trkpt lat="43.6775648" lon="11.7509487"><ele>393.0</ele><time>2026-04-18T13:07:12.482Z</time></trkpt><trkpt lat="43.6776872" lon="11.7510204"><ele>393.0</ele><time>2026-04-18T13:07:13.487Z</time></trkpt><trkpt lat="43.6778259" lon="11.7511222"><ele>393.0</ele><time>2026-04-18T13:07:14.481Z</time></trkpt><trkpt lat="43.6779616" lon="11.7512314"><ele>393.0</ele><time>2026-04-18T13:07:15.479Z</time></trkpt><trkpt lat="43.6780993" lon="11.7513374"><ele>393.0</ele><time>2026-04-18T13:07:16.474Z</time></trkpt><trkpt lat="43.6782317" lon="11.7514377"><ele>393.0</ele><time>2026-04-18T13:07:17.485Z</time></trkpt><trkpt lat="43.6783627" lon="11.7515215"><ele>393.0</ele><time>2026-04-18T13:07:18.481Z</time></trkpt><trkpt lat="43.678483" lon="11.7515752"><ele>393.0</ele><time>2026-04-18T13:07:19.48Z</time></trkpt><trkpt lat="43.6786086" lon="11.7516028"><ele>393.0</ele><time>2026-04-18T13:07:20.479Z</time></trkpt><trkpt lat="43.6787544" lon="11.7516119"><ele>392.0</ele><time>2026-04-18T13:07:21.484Z</time></trkpt><trkpt lat="43.6789138" lon="11.751605"><ele>391.0</ele><time>2026-04-18T13:07:22.481Z</time></trkpt><trkpt lat="43.679089" lon="11.7515914"><ele>390.0</ele><time>2026-04-18T13:07:23.491Z</time></trkpt><trkpt lat="43.6792594" lon="11.7515846"><ele>390.0</ele><time>2026-04-18T13:07:24.479Z</time></trkpt><trkpt lat="43.6794274" lon="11.7515698"><ele>390.0</ele><time>2026-04-18T13:07:25.474Z</time></trkpt><trkpt lat="43.6795896" lon="11.751556"><ele>390.0</ele><time>2026-04-18T13:07:26.49Z</time></trkpt><trkpt lat="43.6797478" lon="11.7515426"><ele>386.0</ele><time>2026-04-18T13:07:27.484Z</time></trkpt><trkpt lat="43.6798984" lon="11.7515023"><ele>382.0</ele><time>2026-04-18T13:07:28.498Z</time></trkpt><trkpt lat="43.6800448" lon="11.7514413"><ele>378.0</ele><time>2026-04-18T13:07:29.498Z</time></trkpt><trkpt lat="43.6801859" lon="11.7513653"><ele>377.5</ele><time>2026-04-18T13:07:30.479Z</time></trkpt><trkpt lat="43.680303" lon="11.7512849"><ele>377.0</ele><time>2026-04-18T13:07:31.485Z</time></trkpt><trkpt lat="43.680418" lon="11.7512154"><ele>376.5</ele><time>2026-04-18T13:07:32.491Z</time></trkpt><trkpt lat="43.6805144" lon="11.7511614"><ele>376.0</ele><time>2026-04-18T13:07:33.489Z</time></trkpt><trkpt lat="43.6806128" lon="11.7511286"><ele>376.0</ele><time>2026-04-18T13:07:34.493Z</time></trkpt><trkpt lat="43.6807001" lon="11.751136"><ele>376.0</ele><time>2026-04-18T13:07:35.494Z</time></trkpt><trkpt lat="43.6807815" lon="11.7511523"><ele>376.0</ele><time>2026-04-18T13:07:36.48Z</time></trkpt><trkpt lat="43.680855" lon="11.751178"><ele>376.0</ele><time>2026-04-18T13:07:37.481Z</time></trkpt><trkpt lat="43.6809279" lon="11.75121"><ele>376.0</ele><time>2026-04-18T13:07:38.477Z</time></trkpt><trkpt lat="43.6810009" lon="11.7512549"><ele>376.0</ele><time>2026-04-18T13:07:39.492Z</time></trkpt><trkpt lat="43.681058" lon="11.7513014"><ele>376.16666666666663</ele><time>2026-04-18T13:07:40.481Z</time></trkpt><trkpt lat="43.6811367" lon="11.7514179"><ele>376.3333333333333</ele><time>2026-04-18T13:07:42.483Z</time></trkpt><trkpt lat="43.6811624" lon="11.7515066"><ele>376.5</ele><time>2026-04-18T13:07:43.48Z</time></trkpt><trkpt lat="43.6811905" lon="11.7516135"><ele>376.6666666666667</ele><time>2026-04-18T13:07:44.474Z</time></trkpt><trkpt lat="43.6812142" lon="11.7517264"><ele>376.83333333333337</ele><time>2026-04-18T13:07:45.472Z</time></trkpt><trkpt lat="43.6812398" lon="11.7518499"><ele>377.0</ele><time>2026-04-18T13:07:46.478Z</time></trkpt><trkpt lat="43.6812641" lon="11.7519621"><ele>376.6666666666667</ele><time>2026-04-18T13:07:47.483Z</time></trkpt><trkpt lat="43.6812873" lon="11.7520664"><ele>376.33333333333337</ele><time>2026-04-18T13:07:48.481Z</time></trkpt><trkpt lat="43.6813064" lon="11.7521565"><ele>376.0</ele><time>2026-04-18T13:07:49.5Z</time></trkpt><trkpt lat="43.6813349" lon="11.7522959"><ele>375.6666666666667</ele><time>2026-04-18T13:07:51.487Z</time></trkpt><trkpt lat="43.6813627" lon="11.7523772"><ele>375.3333333333333</ele><time>2026-04-18T13:07:54.485Z</time></trkpt><trkpt lat="43.6814273" lon="11.7523581"><ele>375.0</ele><time>2026-04-18T13:08:18.493Z</time></trkpt><trkpt lat="43.6813608" lon="11.752373"><ele>375.0</ele><time>2026-04-18T13:08:37.483Z</time></trkpt><trkpt lat="43.6813673" lon="11.7524922"><ele>375.0</ele><time>2026-04-18T13:08:39.487Z</time></trkpt><trkpt lat="43.6814092" lon="11.7526214"><ele>375.0</ele><time>2026-04-18T13:08:40.477Z</time></trkpt><trkpt lat="43.6814348" lon="11.7527595"><ele>375.0</ele><time>2026-04-18T13:08:41.499Z</time></trkpt><trkpt lat="43.6814646" lon="11.7528925"><ele>375.0</ele><time>2026-04-18T13:08:42.49Z</time></trkpt><trkpt lat="43.6814952" lon="11.7530355"><ele>374.5</ele><time>2026-04-18T13:08:43.492Z</time></trkpt><trkpt lat="43.6815193" lon="11.753202"><ele>374.0</ele><time>2026-04-18T13:08:44.481Z</time></trkpt><trkpt lat="43.6815575" lon="11.7533739"><ele>373.5</ele><time>2026-04-18T13:08:45.485Z</time></trkpt><trkpt lat="43.68159" lon="11.7535339"><ele>373.0</ele><time>2026-04-18T13:08:46.489Z</time></trkpt><trkpt lat="43.6816282" lon="11.7536956"><ele>373.0</ele><time>2026-04-18T13:08:47.479Z</time></trkpt><trkpt lat="43.6816634" lon="11.7538603"><ele>373.0</ele><time>2026-04-18T13:08:48.477Z</time></trkpt><trkpt lat="43.6817021" lon="11.7540453"><ele>373.0</ele><time>2026-04-18T13:08:49.482Z</time></trkpt><trkpt lat="43.6817469" lon="11.7542514"><ele>373.0</ele><time>2026-04-18T13:08:50.494Z</time></trkpt><trkpt lat="43.6817826" lon="11.7544653"><ele>372.75</ele><time>2026-04-18T13:08:51.481Z</time></trkpt><trkpt lat="43.6818222" lon="11.7546701"><ele>372.5</ele><time>2026-04-18T13:08:52.49Z</time></trkpt><trkpt lat="43.6818583" lon="11.7548499"><ele>372.25</ele><time>2026-04-18T13:08:53.474Z</time></trkpt><trkpt lat="43.6818859" lon="11.7549904"><ele>372.0</ele><time>2026-04-18T13:08:54.486Z</time></trkpt><trkpt lat="43.6819175" lon="11.7550997"><ele>371.3333333333333</ele><time>2026-04-18T13:08:55.48Z</time></trkpt><trkpt lat="43.6819378" lon="11.755202"><ele>370.6666666666667</ele><time>2026-04-18T13:08:56.478Z</time></trkpt><trkpt lat="43.6819724" lon="11.7552786"><ele>370.0</ele><time>2026-04-18T13:08:57.487Z</time></trkpt><trkpt lat="43.6820417" lon="11.7553206"><ele>369.33333333333337</ele><time>2026-04-18T13:08:59.484Z</time></trkpt><trkpt lat="43.6820903" lon="11.7552243"><ele>368.6666666666667</ele><time>2026-04-18T13:09:01.484Z</time></trkpt><trkpt lat="43.6821377" lon="11.7550817"><ele>368.0</ele><time>2026-04-18T13:09:03.471Z</time></trkpt><trkpt lat="43.6821802" lon="11.7549723"><ele>368.0</ele><time>2026-04-18T13:09:05.478Z</time></trkpt><trkpt lat="43.6822295" lon="11.7548998"><ele>368.0</ele><time>2026-04-18T13:09:07.475Z</time></trkpt><trkpt lat="43.6822932" lon="11.7548983"><ele>368.0</ele><time>2026-04-18T13:09:08.481Z</time></trkpt><trkpt lat="43.682375" lon="11.754909"><ele>368.0</ele><time>2026-04-18T13:09:09.482Z</time></trkpt><trkpt lat="43.6824865" lon="11.7549486"><ele>368.0</ele><time>2026-04-18T13:09:10.487Z</time></trkpt><trkpt lat="43.6826012" lon="11.7549594"><ele>368.0</ele><time>2026-04-18T13:09:11.492Z</time></trkpt><trkpt lat="43.6827191" lon="11.7549479"><ele>369.4</ele><time>2026-04-18T13:09:12.483Z</time></trkpt><trkpt lat="43.6828249" lon="11.7549295"><ele>370.79999999999995</ele><time>2026-04-18T13:09:13.485Z</time></trkpt><trkpt lat="43.682932" lon="11.75492"><ele>372.2</ele><time>2026-04-18T13:09:14.485Z</time></trkpt><trkpt lat="43.6830465" lon="11.7549042"><ele>373.6</ele><time>2026-04-18T13:09:15.488Z</time></trkpt><trkpt lat="43.6831637" lon="11.7548918"><ele>375.0</ele><time>2026-04-18T13:09:16.482Z</time></trkpt><trkpt lat="43.6832732" lon="11.7549165"><ele>375.0</ele><time>2026-04-18T13:09:17.479Z</time></trkpt><trkpt lat="43.6833525" lon="11.7549934"><ele>375.0</ele><time>2026-04-18T13:09:18.486Z</time></trkpt><trkpt lat="43.6834254" lon="11.7551038"><ele>375.0</ele><time>2026-04-18T13:09:19.475Z</time></trkpt><trkpt lat="43.683497" lon="11.7552346"><ele>375.0</ele><time>2026-04-18T13:09:20.483Z</time></trkpt><trkpt lat="43.6835769" lon="11.755363"><ele>375.0</ele><time>2026-04-18T13:09:21.492Z</time></trkpt><trkpt lat="43.6836628" lon="11.7554935"><ele>376.75</ele><time>2026-04-18T13:09:22.478Z</time></trkpt><trkpt lat="43.6837543" lon="11.7556059"><ele>378.5</ele><time>2026-04-18T13:09:23.5Z</time></trkpt><trkpt lat="43.6838658" lon="11.7556997"><ele>380.25</ele><time>2026-04-18T13:09:24.482Z</time></trkpt><trkpt lat="43.6839957" lon="11.7558011"><ele>382.0</ele><time>2026-04-18T13:09:25.49Z</time></trkpt><trkpt lat="43.6841148" lon="11.7558875"><ele>382.0</ele><time>2026-04-18T13:09:26.491Z</time></trkpt><trkpt lat="43.6842329" lon="11.7559427"><ele>382.0</ele><time>2026-04-18T13:09:27.488Z</time></trkpt><trkpt lat="43.6843487" lon="11.7559588"><ele>382.0</ele><time>2026-04-18T13:09:28.495Z</time></trkpt><trkpt lat="43.6844797" lon="11.7559373"><ele>382.0</ele><time>2026-04-18T13:09:29.493Z</time></trkpt><trkpt lat="43.6845975" lon="11.7559374"><ele>382.8</ele><time>2026-04-18T13:09:30.488Z</time></trkpt><trkpt lat="43.684707" lon="11.7559496"><ele>383.6</ele><time>2026-04-18T13:09:31.495Z</time></trkpt><trkpt lat="43.6848035" lon="11.7559857"><ele>384.40000000000003</ele><time>2026-04-18T13:09:32.481Z</time></trkpt><trkpt lat="43.6848916" lon="11.7559794"><ele>385.20000000000005</ele><time>2026-04-18T13:09:33.474Z</time></trkpt><trkpt lat="43.6849595" lon="11.7559131"><ele>386.0</ele><time>2026-04-18T13:09:34.477Z</time></trkpt><trkpt lat="43.6850025" lon="11.7558002"><ele>386.0</ele><time>2026-04-18T13:09:35.485Z</time></trkpt><trkpt lat="43.6850481" lon="11.7556573"><ele>386.0</ele><time>2026-04-18T13:09:36.481Z</time></trkpt><trkpt lat="43.685096" lon="11.7554939"><ele>386.0</ele><time>2026-04-18T13:09:37.484Z</time></trkpt><trkpt lat="43.6851296" lon="11.755331"><ele>386.0</ele><time>2026-04-18T13:09:38.478Z</time></trkpt><trkpt lat="43.6851542" lon="11.7551763"><ele>387.75</ele><time>2026-04-18T13:09:39.483Z</time></trkpt><trkpt lat="43.6851695" lon="11.7550298"><ele>389.5</ele><time>2026-04-18T13:09:40.486Z</time></trkpt><trkpt lat="43.6851495" lon="11.7548724"><ele>391.25</ele><time>2026-04-18T13:09:41.479Z</time></trkpt><trkpt lat="43.6850951" lon="11.7546956"><ele>393.0</ele><time>2026-04-18T13:09:42.479Z</time></trkpt><trkpt lat="43.6850252" lon="11.7545094"><ele>394.66666666666663</ele><time>2026-04-18T13:09:43.481Z</time></trkpt><trkpt lat="43.6849518" lon="11.7543099"><ele>396.3333333333333</ele><time>2026-04-18T13:09:44.477Z</time></trkpt><trkpt lat="43.6848788" lon="11.7541176"><ele>398.0</ele><time>2026-04-18T13:09:45.482Z</time></trkpt><trkpt lat="43.6848048" lon="11.7539101"><ele>398.0</ele><time>2026-04-18T13:09:46.484Z</time></trkpt><trkpt lat="43.6847275" lon="11.7537002"><ele>398.0</ele><time>2026-04-18T13:09:47.489Z</time></trkpt><trkpt lat="43.6846535" lon="11.7534926"><ele>398.0</ele><time>2026-04-18T13:09:48.484Z</time></trkpt><trkpt lat="43.684596" lon="11.7532959"><ele>400.0</ele><time>2026-04-18T13:09:49.489Z</time></trkpt><trkpt lat="43.6845543" lon="11.7531147"><ele>402.0</ele><time>2026-04-18T13:09:50.474Z</time></trkpt><trkpt lat="43.6845157" lon="11.7529327"><ele>404.0</ele><time>2026-04-18T13:09:51.492Z</time></trkpt><trkpt lat="43.6844745" lon="11.7527638"><ele>406.0</ele><time>2026-04-18T13:09:52.49Z</time></trkpt><trkpt lat="43.6844301" lon="11.752599"><ele>405.4</ele><time>2026-04-18T13:09:53.492Z</time></trkpt><trkpt lat="43.6843752" lon="11.7524326"><ele>404.8</ele><time>2026-04-18T13:09:54.489Z</time></trkpt><trkpt lat="43.6843144" lon="11.7522855"><ele>404.2</ele><time>2026-04-18T13:09:55.491Z</time></trkpt><trkpt lat="43.6842714" lon="11.7521662"><ele>403.59999999999997</ele><time>2026-04-18T13:09:56.471Z</time></trkpt><trkpt lat="43.6842449" lon="11.7520683"><ele>403.0</ele><time>2026-04-18T13:09:57.481Z</time></trkpt><trkpt lat="43.684211" lon="11.7519831"><ele>403.00000000000006</ele><time>2026-04-18T13:09:58.484Z</time></trkpt><trkpt lat="43.6841588" lon="11.7519152"><ele>403.0</ele><time>2026-04-18T13:10:00.483Z</time></trkpt><trkpt lat="43.6840768" lon="11.7519029"><ele>403.0</ele><time>2026-04-18T13:10:03.482Z</time></trkpt><trkpt lat="43.6839885" lon="11.7518605"><ele>403.0</ele><time>2026-04-18T13:10:06.485Z</time></trkpt><trkpt lat="43.6839061" lon="11.7518216"><ele>403.00000000000006</ele><time>2026-04-18T13:10:08.481Z</time></trkpt><trkpt lat="43.6838367" lon="11.7517509"><ele>403.0</ele><time>2026-04-18T13:10:10.493Z</time></trkpt><trkpt lat="43.6837843" lon="11.7516599"><ele>405.1666666666667</ele><time>2026-04-18T13:10:12.472Z</time></trkpt><trkpt lat="43.6837553" lon="11.7515588"><ele>407.33333333333337</ele><time>2026-04-18T13:10:14.486Z</time></trkpt><trkpt lat="43.6837337" lon="11.7514696"><ele>409.5</ele><time>2026-04-18T13:10:16.482Z</time></trkpt><trkpt lat="43.6837175" lon="11.7513707"><ele>411.66666666666663</ele><time>2026-04-18T13:10:18.484Z</time></trkpt><trkpt lat="43.6837033" lon="11.7512806"><ele>413.8333333333333</ele><time>2026-04-18T13:10:20.492Z</time></trkpt><trkpt lat="43.6836904" lon="11.7511438"><ele>416.0</ele><time>2026-04-18T13:10:23.476Z</time></trkpt><trkpt lat="43.683704" lon="11.7510381"><ele>418.4</ele><time>2026-04-18T13:10:25.483Z</time></trkpt><trkpt lat="43.6837331" lon="11.7509299"><ele>420.8</ele><time>2026-04-18T13:10:47.489Z</time></trkpt><trkpt lat="43.6837753" lon="11.7507714"><ele>423.19999999999993</ele><time>2026-04-18T13:10:49.493Z</time></trkpt><trkpt lat="43.6838106" lon="11.7506735"><ele>425.59999999999997</ele><time>2026-04-18T13:10:50.483Z</time></trkpt><trkpt lat="43.6838493" lon="11.7505476"><ele>428.0</ele><time>2026-04-18T13:10:51.482Z</time></trkpt><trkpt lat="43.6839" lon="11.7504121"><ele>428.0</ele><time>2026-04-18T13:10:52.485Z</time></trkpt><trkpt lat="43.6839431" lon="11.7502734"><ele>427.99999999999994</ele><time>2026-04-18T13:10:53.484Z</time></trkpt><trkpt lat="43.6839508" lon="11.7501353"><ele>427.99999999999994</ele><time>2026-04-18T13:10:54.479Z</time></trkpt><trkpt lat="43.6839076" lon="11.7500213"><ele>428.0</ele><time>2026-04-18T13:10:55.472Z</time></trkpt><trkpt lat="43.683835" lon="11.7498986"><ele>428.0</ele><time>2026-04-18T13:10:56.477Z</time></trkpt><trkpt lat="43.6837759" lon="11.7497726"><ele>430.25</ele><time>2026-04-18T13:10:57.481Z</time></trkpt><trkpt lat="43.6837484" lon="11.749623"><ele>432.5</ele><time>2026-04-18T13:10:58.48Z</time></trkpt><trkpt lat="43.683757" lon="11.7494745"><ele>434.75</ele><time>2026-04-18T13:10:59.477Z</time></trkpt><trkpt lat="43.6837786" lon="11.7493191"><ele>437.0</ele><time>2026-04-18T13:11:00.479Z</time></trkpt><trkpt lat="43.6838163" lon="11.7491478"><ele>439.25</ele><time>2026-04-18T13:11:01.483Z</time></trkpt><trkpt lat="43.6838714" lon="11.7489679"><ele>441.5</ele><time>2026-04-18T13:11:02.476Z</time></trkpt><trkpt lat="43.6839282" lon="11.7487744"><ele>443.75</ele><time>2026-04-18T13:11:03.481Z</time></trkpt><trkpt lat="43.6839782" lon="11.7485697"><ele>446.0</ele><time>2026-04-18T13:11:04.483Z</time></trkpt><trkpt lat="43.6840187" lon="11.7483546"><ele>446.66666666666663</ele><time>2026-04-18T13:11:05.485Z</time></trkpt><trkpt lat="43.6840699" lon="11.7481327"><ele>447.33333333333337</ele><time>2026-04-18T13:11:06.478Z</time></trkpt><trkpt lat="43.684117" lon="11.7479166"><ele>448.0</ele><time>2026-04-18T13:11:07.483Z</time></trkpt><trkpt lat="43.6841634" lon="11.7477228"><ele>447.59999999999997</ele><time>2026-04-18T13:11:08.487Z</time></trkpt><trkpt lat="43.6841928" lon="11.7475457"><ele>447.19999999999993</ele><time>2026-04-18T13:11:09.473Z</time></trkpt><trkpt lat="43.6841964" lon="11.7474112"><ele>446.8</ele><time>2026-04-18T13:11:10.479Z</time></trkpt><trkpt lat="43.6842041" lon="11.7472977"><ele>446.4</ele><time>2026-04-18T13:11:11.478Z</time></trkpt><trkpt lat="43.6842504" lon="11.7472019"><ele>446.0</ele><time>2026-04-18T13:11:12.484Z</time></trkpt><trkpt lat="43.6843173" lon="11.7470988"><ele>446.0</ele><time>2026-04-18T13:11:13.472Z</time></trkpt><trkpt lat="43.684407" lon="11.7469858"><ele>446.0</ele><time>2026-04-18T13:11:14.476Z</time></trkpt><trkpt lat="43.6845127" lon="11.746861"><ele>446.0</ele><time>2026-04-18T13:11:15.479Z</time></trkpt><trkpt lat="43.6846225" lon="11.7467147"><ele>446.0</ele><time>2026-04-18T13:11:16.481Z</time></trkpt><trkpt lat="43.6847394" lon="11.7465703"><ele>449.4</ele><time>2026-04-18T13:11:17.486Z</time></trkpt><trkpt lat="43.6848432" lon="11.7464506"><ele>452.8</ele><time>2026-04-18T13:11:18.48Z</time></trkpt><trkpt lat="43.6849169" lon="11.7463403"><ele>456.19999999999993</ele><time>2026-04-18T13:11:19.489Z</time></trkpt><trkpt lat="43.6849644" lon="11.7462245"><ele>459.59999999999997</ele><time>2026-04-18T13:11:20.479Z</time></trkpt><trkpt lat="43.6850049" lon="11.7461248"><ele>463.0</ele><time>2026-04-18T13:11:21.478Z</time></trkpt><trkpt lat="43.6850475" lon="11.7460591"><ele>461.0</ele><time>2026-04-18T13:11:22.483Z</time></trkpt><trkpt lat="43.6850991" lon="11.7460089"><ele>458.99999999999994</ele><time>2026-04-18T13:11:23.478Z</time></trkpt><trkpt lat="43.6851924" lon="11.7458943"><ele>456.99999999999994</ele><time>2026-04-18T13:11:25.476Z</time></trkpt><trkpt lat="43.6852864" lon="11.7457793"><ele>455.0</ele><time>2026-04-18T13:11:27.485Z</time></trkpt><trkpt lat="43.6853269" lon="11.7457082"><ele>453.0</ele><time>2026-04-18T13:11:28.475Z</time></trkpt><trkpt lat="43.6853667" lon="11.7456086"><ele>456.79999999999995</ele><time>2026-04-18T13:11:29.479Z</time></trkpt><trkpt lat="43.685398" lon="11.7454877"><ele>460.59999999999997</ele><time>2026-04-18T13:11:30.479Z</time></trkpt><trkpt lat="43.6854269" lon="11.7453657"><ele>464.40000000000003</ele><time>2026-04-18T13:11:31.482Z</time></trkpt><trkpt lat="43.6854455" lon="11.7452377"><ele>468.20000000000005</ele><time>2026-04-18T13:11:32.482Z</time></trkpt><trkpt lat="43.6854336" lon="11.7451072"><ele>472.0</ele><time>2026-04-18T13:11:33.482Z</time></trkpt><trkpt lat="43.6853943" lon="11.7449843"><ele>472.0</ele><time>2026-04-18T13:11:34.48Z</time></trkpt><trkpt lat="43.6853199" lon="11.7448577"><ele>472.0</ele><time>2026-04-18T13:11:35.48Z</time></trkpt><trkpt lat="43.6852253" lon="11.7447229"><ele>472.0</ele><time>2026-04-18T13:11:36.486Z</time></trkpt><trkpt lat="43.6851102" lon="11.7445883"><ele>472.0</ele><time>2026-04-18T13:11:37.477Z</time></trkpt><trkpt lat="43.6849901" lon="11.7444322"><ele>467.5</ele><time>2026-04-18T13:11:38.484Z</time></trkpt><trkpt lat="43.6848765" lon="11.744301"><ele>463.0</ele><time>2026-04-18T13:11:39.481Z</time></trkpt><trkpt lat="43.6847687" lon="11.7441707"><ele>458.5</ele><time>2026-04-18T13:11:40.472Z</time></trkpt><trkpt lat="43.6846623" lon="11.7440347"><ele>454.0</ele><time>2026-04-18T13:11:41.478Z</time></trkpt><trkpt lat="43.6845613" lon="11.7438984"><ele>454.0</ele><time>2026-04-18T13:11:42.469Z</time></trkpt><trkpt lat="43.6844774" lon="11.7437702"><ele>454.0</ele><time>2026-04-18T13:11:43.472Z</time></trkpt><trkpt lat="43.6843855" lon="11.7436344"><ele>454.0</ele><time>2026-04-18T13:11:44.486Z</time></trkpt><trkpt lat="43.6842978" lon="11.743486"><ele>454.0</ele><time>2026-04-18T13:11:45.48Z</time></trkpt><trkpt lat="43.6842217" lon="11.7433203"><ele>454.0</ele><time>2026-04-18T13:11:46.477Z</time></trkpt><trkpt lat="43.6841383" lon="11.7431428"><ele>454.0</ele><time>2026-04-18T13:11:47.488Z</time></trkpt><trkpt lat="43.684057" lon="11.7429603"><ele>454.0</ele><time>2026-04-18T13:11:48.477Z</time></trkpt><trkpt lat="43.6839928" lon="11.7428199"><ele>454.0</ele><time>2026-04-18T13:11:49.484Z</time></trkpt><trkpt lat="43.6839529" lon="11.7427029"><ele>457.6</ele><time>2026-04-18T13:11:50.475Z</time></trkpt><trkpt lat="43.6839345" lon="11.7425834"><ele>461.2</ele><time>2026-04-18T13:11:51.483Z</time></trkpt><trkpt lat="43.6839429" lon="11.7424554"><ele>464.80000000000007</ele><time>2026-04-18T13:11:52.478Z</time></trkpt><trkpt lat="43.6839671" lon="11.7423224"><ele>468.40000000000003</ele><time>2026-04-18T13:11:53.482Z</time></trkpt><trkpt lat="43.6839989" lon="11.7421987"><ele>472.0</ele><time>2026-04-18T13:11:54.467Z</time></trkpt><trkpt lat="43.684017" lon="11.7420828"><ele>472.0</ele><time>2026-04-18T13:11:55.477Z</time></trkpt><trkpt lat="43.6840145" lon="11.7419952"><ele>472.0</ele><time>2026-04-18T13:11:56.481Z</time></trkpt><trkpt lat="43.6839785" lon="11.7418817"><ele>472.0</ele><time>2026-04-18T13:11:58.47Z</time></trkpt><trkpt lat="43.6839298" lon="11.7417922"><ele>472.0</ele><time>2026-04-18T13:12:00.486Z</time></trkpt><trkpt lat="43.6838724" lon="11.7417228"><ele>472.0</ele><time>2026-04-18T13:12:02.471Z</time></trkpt><trkpt lat="43.6838276" lon="11.7416589"><ele>472.0</ele><time>2026-04-18T13:12:04.48Z</time></trkpt><trkpt lat="43.6837808" lon="11.7415826"><ele>472.0</ele><time>2026-04-18T13:12:11.473Z</time></trkpt><trkpt lat="43.683814" lon="11.74168"><ele>472.0</ele><time>2026-04-18T13:12:27.488Z</time></trkpt><trkpt lat="43.6838745" lon="11.741732"><ele>472.0</ele><time>2026-04-18T13:12:28.469Z</time></trkpt><trkpt lat="43.6839278" lon="11.7418002"><ele>472.0</ele><time>2026-04-18T13:12:29.478Z</time></trkpt><trkpt lat="43.683971" lon="11.7418796"><ele>472.0</ele><time>2026-04-18T13:12:30.477Z</time></trkpt><trkpt lat="43.6840016" lon="11.7419698"><ele>472.0</ele><time>2026-04-18T13:12:31.484Z</time></trkpt><trkpt lat="43.6840062" lon="11.7420704"><ele>472.0</ele><time>2026-04-18T13:12:32.477Z</time></trkpt><trkpt lat="43.6839825" lon="11.7421696"><ele>472.0</ele><time>2026-04-18T13:12:33.476Z</time></trkpt><trkpt lat="43.6839317" lon="11.7422942"><ele>472.00000000000006</ele><time>2026-04-18T13:12:34.485Z</time></trkpt><trkpt lat="43.6839052" lon="11.7424193"><ele>472.0</ele><time>2026-04-18T13:12:35.478Z</time></trkpt><trkpt lat="43.6838966" lon="11.7425357"><ele>472.0</ele><time>2026-04-18T13:12:36.479Z</time></trkpt><trkpt lat="43.6839153" lon="11.7426347"><ele>472.0</ele><time>2026-04-18T13:12:37.478Z</time></trkpt><trkpt lat="43.6839495" lon="11.742732"><ele>472.00000000000006</ele><time>2026-04-18T13:12:38.484Z</time></trkpt><trkpt lat="43.6840041" lon="11.7428521"><ele>472.0</ele><time>2026-04-18T13:12:39.487Z</time></trkpt><trkpt lat="43.6840733" lon="11.7429802"><ele>469.00000000000006</ele><time>2026-04-18T13:12:40.479Z</time></trkpt><trkpt lat="43.684115" lon="11.7431084"><ele>466.0</ele><time>2026-04-18T13:12:41.472Z</time></trkpt><trkpt lat="43.6841637" lon="11.743219"><ele>463.0</ele><time>2026-04-18T13:12:42.486Z</time></trkpt><trkpt lat="43.6842145" lon="11.7433224"><ele>460.0</ele><time>2026-04-18T13:12:43.483Z</time></trkpt><trkpt lat="43.6842537" lon="11.7434182"><ele>457.00000000000006</ele><time>2026-04-18T13:12:44.478Z</time></trkpt><trkpt lat="43.6842997" lon="11.7434805"><ele>454.0</ele><time>2026-04-18T13:12:45.476Z</time></trkpt><trkpt lat="43.6843812" lon="11.743605"><ele>454.00000000000006</ele><time>2026-04-18T13:12:47.487Z</time></trkpt><trkpt lat="43.6844393" lon="11.7436971"><ele>454.0</ele><time>2026-04-18T13:12:48.478Z</time></trkpt><trkpt lat="43.6845026" lon="11.7437865"><ele>454.0</ele><time>2026-04-18T13:12:49.479Z</time></trkpt><trkpt lat="43.6845522" lon="11.7438679"><ele>454.0</ele><time>2026-04-18T13:12:50.493Z</time></trkpt><trkpt lat="43.6846118" lon="11.7439484"><ele>454.00000000000006</ele><time>2026-04-18T13:12:51.485Z</time></trkpt><trkpt lat="43.684668" lon="11.7440219"><ele>454.0</ele><time>2026-04-18T13:12:52.493Z</time></trkpt><trkpt lat="43.68472" lon="11.7440853"><ele>454.0</ele><time>2026-04-18T13:12:53.479Z</time></trkpt><trkpt lat="43.6847772" lon="11.7441647"><ele>454.0</ele><time>2026-04-18T13:12:54.478Z</time></trkpt><trkpt lat="43.6848447" lon="11.7442628"><ele>454.0</ele><time>2026-04-18T13:12:55.473Z</time></trkpt><trkpt lat="43.6849344" lon="11.74438"><ele>454.0</ele><time>2026-04-18T13:12:56.473Z</time></trkpt><trkpt lat="43.6850284" lon="11.7445017"><ele>454.0</ele><time>2026-04-18T13:12:57.48Z</time></trkpt><trkpt lat="43.6851301" lon="11.7446299"><ele>452.0</ele><time>2026-04-18T13:12:58.484Z</time></trkpt><trkpt lat="43.6852362" lon="11.7447642"><ele>450.0</ele><time>2026-04-18T13:12:59.481Z</time></trkpt><trkpt lat="43.6853229" lon="11.7448859"><ele>448.0</ele><time>2026-04-18T13:13:00.49Z</time></trkpt><trkpt lat="43.6853868" lon="11.744998"><ele>446.0</ele><time>2026-04-18T13:13:01.488Z</time></trkpt><trkpt lat="43.685433" lon="11.7451194"><ele>451.6</ele><time>2026-04-18T13:13:02.477Z</time></trkpt><trkpt lat="43.6854423" lon="11.7452551"><ele>457.20000000000005</ele><time>2026-04-18T13:13:03.479Z</time></trkpt><trkpt lat="43.685417" lon="11.7454009"><ele>462.79999999999995</ele><time>2026-04-18T13:13:04.475Z</time></trkpt><trkpt lat="43.6853817" lon="11.7455357"><ele>468.4</ele><time>2026-04-18T13:13:05.475Z</time></trkpt><trkpt lat="43.6853338" lon="11.74567"><ele>474.0</ele><time>2026-04-18T13:13:06.481Z</time></trkpt><trkpt lat="43.6852737" lon="11.7457727"><ele>472.1666666666667</ele><time>2026-04-18T13:13:07.489Z</time></trkpt><trkpt lat="43.6852013" lon="11.7458519"><ele>470.33333333333337</ele><time>2026-04-18T13:13:08.491Z</time></trkpt><trkpt lat="43.6851329" lon="11.745933"><ele>468.5</ele><time>2026-04-18T13:13:09.494Z</time></trkpt><trkpt lat="43.6850671" lon="11.7460078"><ele>466.6666666666667</ele><time>2026-04-18T13:13:10.482Z</time></trkpt><trkpt lat="43.6850153" lon="11.7460761"><ele>464.83333333333337</ele><time>2026-04-18T13:13:11.484Z</time></trkpt><trkpt lat="43.6849794" lon="11.7461508"><ele>463.0</ele><time>2026-04-18T13:13:12.482Z</time></trkpt><trkpt lat="43.6849403" lon="11.7462344"><ele>463.0</ele><time>2026-04-18T13:13:13.483Z</time></trkpt><trkpt lat="43.6848882" lon="11.7463396"><ele>462.99999999999994</ele><time>2026-04-18T13:13:14.482Z</time></trkpt><trkpt lat="43.6848226" lon="11.7464503"><ele>462.99999999999994</ele><time>2026-04-18T13:13:15.479Z</time></trkpt><trkpt lat="43.6847412" lon="11.7465696"><ele>463.0</ele><time>2026-04-18T13:13:16.479Z</time></trkpt><trkpt lat="43.684646" lon="11.7467018"><ele>463.0</ele><time>2026-04-18T13:13:17.483Z</time></trkpt><trkpt lat="43.6845445" lon="11.7468268"><ele>466.0</ele><time>2026-04-18T13:13:18.497Z</time></trkpt><trkpt lat="43.6844405" lon="11.7469449"><ele>469.0</ele><time>2026-04-18T13:13:19.473Z</time></trkpt><trkpt lat="43.684336" lon="11.7470552"><ele>472.0</ele><time>2026-04-18T13:13:20.48Z</time></trkpt><trkpt lat="43.684242" lon="11.7471468"><ele>475.0</ele><time>2026-04-18T13:13:21.487Z</time></trkpt><trkpt lat="43.6841745" lon="11.7472248"><ele>469.6</ele><time>2026-04-18T13:13:22.485Z</time></trkpt><trkpt lat="43.6841303" lon="11.7473173"><ele>464.2</ele><time>2026-04-18T13:13:23.477Z</time></trkpt><trkpt lat="43.6841218" lon="11.7474411"><ele>458.79999999999995</ele><time>2026-04-18T13:13:24.472Z</time></trkpt><trkpt lat="43.6841223" lon="11.7475835"><ele>453.4</ele><time>2026-04-18T13:13:25.484Z</time></trkpt><trkpt lat="43.684121" lon="11.7477475"><ele>448.0</ele><time>2026-04-18T13:13:26.478Z</time></trkpt><trkpt lat="43.6841038" lon="11.7479324"><ele>448.0</ele><time>2026-04-18T13:13:27.47Z</time></trkpt><trkpt lat="43.6840635" lon="11.7481233"><ele>448.0</ele><time>2026-04-18T13:13:28.476Z</time></trkpt><trkpt lat="43.6840224" lon="11.7483248"><ele>448.0</ele><time>2026-04-18T13:13:29.47Z</time></trkpt><trkpt lat="43.6839811" lon="11.7485351"><ele>447.33333333333337</ele><time>2026-04-18T13:13:30.485Z</time></trkpt><trkpt lat="43.6839364" lon="11.7487406"><ele>446.66666666666663</ele><time>2026-04-18T13:13:31.476Z</time></trkpt><trkpt lat="43.6838898" lon="11.748944"><ele>446.0</ele><time>2026-04-18T13:13:32.471Z</time></trkpt><trkpt lat="43.6838384" lon="11.749135"><ele>446.0</ele><time>2026-04-18T13:13:33.477Z</time></trkpt><trkpt lat="43.6837918" lon="11.7492946"><ele>446.0</ele><time>2026-04-18T13:13:34.477Z</time></trkpt><trkpt lat="43.6837571" lon="11.749441"><ele>446.0</ele><time>2026-04-18T13:13:35.48Z</time></trkpt><trkpt lat="43.6837312" lon="11.7495713"><ele>446.0</ele><time>2026-04-18T13:13:36.477Z</time></trkpt><trkpt lat="43.6837262" lon="11.7497062"><ele>446.0</ele><time>2026-04-18T13:13:37.48Z</time></trkpt><trkpt lat="43.6837645" lon="11.7498248"><ele>444.20000000000005</ele><time>2026-04-18T13:13:38.487Z</time></trkpt><trkpt lat="43.6838225" lon="11.7499338"><ele>442.40000000000003</ele><time>2026-04-18T13:13:39.48Z</time></trkpt><trkpt lat="43.6838964" lon="11.7500412"><ele>440.6</ele><time>2026-04-18T13:13:40.48Z</time></trkpt><trkpt lat="43.6839407" lon="11.7501631"><ele>438.8</ele><time>2026-04-18T13:13:41.481Z</time></trkpt><trkpt lat="43.6839477" lon="11.7502959"><ele>437.0</ele><time>2026-04-18T13:13:42.483Z</time></trkpt><trkpt lat="43.683911" lon="11.7504119"><ele>435.20000000000005</ele><time>2026-04-18T13:13:43.479Z</time></trkpt><trkpt lat="43.68386" lon="11.7505283"><ele>433.40000000000003</ele><time>2026-04-18T13:13:44.48Z</time></trkpt><trkpt lat="43.6837982" lon="11.750671"><ele>431.59999999999997</ele><time>2026-04-18T13:13:45.475Z</time></trkpt><trkpt lat="43.6837466" lon="11.7508087"><ele>429.79999999999995</ele><time>2026-04-18T13:13:46.481Z</time></trkpt><trkpt lat="43.6837124" lon="11.7509532"><ele>428.0</ele><time>2026-04-18T13:13:47.479Z</time></trkpt><trkpt lat="43.6836957" lon="11.7510779"><ele>425.99999999999994</ele><time>2026-04-18T13:13:48.473Z</time></trkpt><trkpt lat="43.6836999" lon="11.7511949"><ele>424.0</ele><time>2026-04-18T13:13:49.497Z</time></trkpt><trkpt lat="43.683715" lon="11.7513101"><ele>422.0</ele><time>2026-04-18T13:13:50.479Z</time></trkpt><trkpt lat="43.6837323" lon="11.7514195"><ele>420.0</ele><time>2026-04-18T13:13:51.488Z</time></trkpt><trkpt lat="43.6837476" lon="11.7515215"><ele>417.99999999999994</ele><time>2026-04-18T13:13:52.48Z</time></trkpt><trkpt lat="43.6837814" lon="11.7516184"><ele>416.0</ele><time>2026-04-18T13:13:53.487Z</time></trkpt><trkpt lat="43.6838154" lon="11.7517142"><ele>415.99999999999994</ele><time>2026-04-18T13:13:54.481Z</time></trkpt><trkpt lat="43.6838837" lon="11.7518021"><ele>416.0</ele><time>2026-04-18T13:13:55.478Z</time></trkpt><trkpt lat="43.6839601" lon="11.7518622"><ele>416.0</ele><time>2026-04-18T13:13:56.477Z</time></trkpt><trkpt lat="43.6840363" lon="11.7519052"><ele>416.0</ele><time>2026-04-18T13:13:57.483Z</time></trkpt><trkpt lat="43.6841011" lon="11.7519344"><ele>415.99999999999994</ele><time>2026-04-18T13:13:58.484Z</time></trkpt><trkpt lat="43.6842014" lon="11.7519171"><ele>416.0</ele><time>2026-04-18T13:14:00.487Z</time></trkpt><trkpt lat="43.6842884" lon="11.75181"><ele>415.99999999999994</ele><time>2026-04-18T13:14:02.479Z</time></trkpt><trkpt lat="43.6843368" lon="11.7517407"><ele>416.0</ele><time>2026-04-18T13:14:03.483Z</time></trkpt><trkpt lat="43.6844086" lon="11.7517167"><ele>416.0</ele><time>2026-04-18T13:14:04.474Z</time></trkpt><trkpt lat="43.6845041" lon="11.7517338"><ele>416.0</ele><time>2026-04-18T13:14:05.474Z</time></trkpt><trkpt lat="43.6845838" lon="11.7517935"><ele>415.99999999999994</ele><time>2026-04-18T13:14:06.487Z</time></trkpt><trkpt lat="43.6846484" lon="11.7518899"><ele>416.0</ele><time>2026-04-18T13:14:07.487Z</time></trkpt><trkpt lat="43.6846862" lon="11.7519958"><ele>415.4</ele><time>2026-04-18T13:14:08.477Z</time></trkpt><trkpt lat="43.6847359" lon="11.7520986"><ele>414.8</ele><time>2026-04-18T13:14:09.477Z</time></trkpt><trkpt lat="43.6848009" lon="11.7521637"><ele>414.2</ele><time>2026-04-18T13:14:10.489Z</time></trkpt><trkpt lat="43.6848907" lon="11.7521815"><ele>413.59999999999997</ele><time>2026-04-18T13:14:11.479Z</time></trkpt><trkpt lat="43.6849865" lon="11.7521654"><ele>413.0</ele><time>2026-04-18T13:14:12.479Z</time></trkpt><trkpt lat="43.6850813" lon="11.7521192"><ele>413.0</ele><time>2026-04-18T13:14:13.479Z</time></trkpt><trkpt lat="43.6851787" lon="11.7521062"><ele>413.0</ele><time>2026-04-18T13:14:14.476Z</time></trkpt><trkpt lat="43.6852842" lon="11.7521584"><ele>413.0</ele><time>2026-04-18T13:14:15.477Z</time></trkpt><trkpt lat="43.6853671" lon="11.7522603"><ele>413.0</ele><time>2026-04-18T13:14:16.478Z</time></trkpt><trkpt lat="43.6854493" lon="11.7524002"><ele>416.0</ele><time>2026-04-18T13:14:17.474Z</time></trkpt><trkpt lat="43.6855205" lon="11.7525577"><ele>419.0</ele><time>2026-04-18T13:14:18.48Z</time></trkpt><trkpt lat="43.6855931" lon="11.7527089"><ele>422.0</ele><time>2026-04-18T13:14:19.477Z</time></trkpt><trkpt lat="43.6856659" lon="11.752857"><ele>425.0</ele><time>2026-04-18T13:14:20.482Z</time></trkpt><trkpt lat="43.6857323" lon="11.7530154"><ele>425.0</ele><time>2026-04-18T13:14:21.481Z</time></trkpt><trkpt lat="43.6858014" lon="11.753165"><ele>425.0</ele><time>2026-04-18T13:14:22.482Z</time></trkpt><trkpt lat="43.6858649" lon="11.7533054"><ele>425.0</ele><time>2026-04-18T13:14:23.482Z</time></trkpt><trkpt lat="43.685918" lon="11.7534083"><ele>425.0</ele><time>2026-04-18T13:14:24.479Z</time></trkpt><trkpt lat="43.6859661" lon="11.7534832"><ele>425.0</ele><time>2026-04-18T13:14:25.472Z</time></trkpt><trkpt lat="43.686029" lon="11.7535219"><ele>424.6</ele><time>2026-04-18T13:14:26.478Z</time></trkpt><trkpt lat="43.686112" lon="11.7534989"><ele>424.2</ele><time>2026-04-18T13:14:27.472Z</time></trkpt><trkpt lat="43.6862016" lon="11.7534601"><ele>423.79999999999995</ele><time>2026-04-18T13:14:28.468Z</time></trkpt><trkpt lat="43.6863028" lon="11.7534683"><ele>423.4</ele><time>2026-04-18T13:14:29.48Z</time></trkpt><trkpt lat="43.6864061" lon="11.7535215"><ele>423.0</ele><time>2026-04-18T13:14:30.48Z</time></trkpt><trkpt lat="43.6864997" lon="11.7535867"><ele>423.0</ele><time>2026-04-18T13:14:31.48Z</time></trkpt><trkpt lat="43.6866016" lon="11.7536261"><ele>423.0</ele><time>2026-04-18T13:14:32.488Z</time></trkpt><trkpt lat="43.6866956" lon="11.7536515"><ele>423.0</ele><time>2026-04-18T13:14:33.486Z</time></trkpt><trkpt lat="43.6867799" lon="11.7536662"><ele>423.0</ele><time>2026-04-18T13:14:34.476Z</time></trkpt><trkpt lat="43.6868576" lon="11.7536711"><ele>423.0</ele><time>2026-04-18T13:14:35.481Z</time></trkpt><trkpt lat="43.6869364" lon="11.7536097"><ele>424.0</ele><time>2026-04-18T13:14:36.482Z</time></trkpt><trkpt lat="43.6869786" lon="11.7535177"><ele>425.0</ele><time>2026-04-18T13:14:37.48Z</time></trkpt><trkpt lat="43.6869777" lon="11.7534083"><ele>425.99999999999994</ele><time>2026-04-18T13:14:38.486Z</time></trkpt><trkpt lat="43.686938" lon="11.7532769"><ele>427.0</ele><time>2026-04-18T13:14:39.486Z</time></trkpt><trkpt lat="43.6868714" lon="11.7531754"><ele>428.0</ele><time>2026-04-18T13:14:40.479Z</time></trkpt><trkpt lat="43.6867787" lon="11.7530758"><ele>429.0</ele><time>2026-04-18T13:14:41.486Z</time></trkpt><trkpt lat="43.6866714" lon="11.7529914"><ele>430.0</ele><time>2026-04-18T13:14:42.485Z</time></trkpt><trkpt lat="43.6865652" lon="11.7528947"><ele>431.0</ele><time>2026-04-18T13:14:43.485Z</time></trkpt><trkpt lat="43.6864803" lon="11.7527794"><ele>432.0</ele><time>2026-04-18T13:14:44.476Z</time></trkpt><trkpt lat="43.6864272" lon="11.7526421"><ele>434.1666666666667</ele><time>2026-04-18T13:14:45.479Z</time></trkpt><trkpt lat="43.6864099" lon="11.7525215"><ele>436.33333333333337</ele><time>2026-04-18T13:14:46.485Z</time></trkpt><trkpt lat="43.6864345" lon="11.7524369"><ele>438.5</ele><time>2026-04-18T13:14:47.481Z</time></trkpt><trkpt lat="43.6864896" lon="11.7523825"><ele>440.6666666666667</ele><time>2026-04-18T13:14:48.479Z</time></trkpt><trkpt lat="43.6865681" lon="11.7523553"><ele>442.83333333333337</ele><time>2026-04-18T13:14:49.474Z</time></trkpt><trkpt lat="43.686672" lon="11.752371"><ele>445.0</ele><time>2026-04-18T13:14:50.482Z</time></trkpt><trkpt lat="43.6867597" lon="11.7524415"><ele>445.0</ele><time>2026-04-18T13:14:51.474Z</time></trkpt><trkpt lat="43.6868583" lon="11.7524231"><ele>445.0</ele><time>2026-04-18T13:14:52.48Z</time></trkpt><trkpt lat="43.6869727" lon="11.7523082"><ele>445.0</ele><time>2026-04-18T13:14:53.483Z</time></trkpt><trkpt lat="43.6870669" lon="11.7521801"><ele>445.0</ele><time>2026-04-18T13:14:54.481Z</time></trkpt><trkpt lat="43.6871364" lon="11.752034"><ele>446.75</ele><time>2026-04-18T13:14:55.483Z</time></trkpt><trkpt lat="43.6871798" lon="11.7518635"><ele>448.5</ele><time>2026-04-18T13:14:56.483Z</time></trkpt><trkpt lat="43.6872077" lon="11.7516623"><ele>450.25</ele><time>2026-04-18T13:14:57.482Z</time></trkpt><trkpt lat="43.6872135" lon="11.7514771"><ele>452.0</ele><time>2026-04-18T13:14:58.479Z</time></trkpt><trkpt lat="43.6872068" lon="11.7513323"><ele>452.0</ele><time>2026-04-18T13:14:59.481Z</time></trkpt><trkpt lat="43.6871895" lon="11.7511976"><ele>452.00000000000006</ele><time>2026-04-18T13:15:00.47Z</time></trkpt><trkpt lat="43.6871525" lon="11.7510638"><ele>452.00000000000006</ele><time>2026-04-18T13:15:01.476Z</time></trkpt><trkpt lat="43.6870861" lon="11.7509466"><ele>452.0</ele><time>2026-04-18T13:15:02.479Z</time></trkpt><trkpt lat="43.6870081" lon="11.7508406"><ele>452.0</ele><time>2026-04-18T13:15:03.477Z</time></trkpt><trkpt lat="43.6869415" lon="11.7507317"><ele>452.99999999999994</ele><time>2026-04-18T13:15:04.489Z</time></trkpt><trkpt lat="43.6869059" lon="11.7506343"><ele>454.0</ele><time>2026-04-18T13:15:05.476Z</time></trkpt><trkpt lat="43.686896" lon="11.7505253"><ele>455.0</ele><time>2026-04-18T13:15:06.485Z</time></trkpt><trkpt lat="43.686925" lon="11.7504458"><ele>456.0</ele><time>2026-04-18T13:15:07.484Z</time></trkpt><trkpt lat="43.6870165" lon="11.7504223"><ele>456.99999999999994</ele><time>2026-04-18T13:15:08.482Z</time></trkpt><trkpt lat="43.6871272" lon="11.7504529"><ele>458.0</ele><time>2026-04-18T13:15:09.479Z</time></trkpt><trkpt lat="43.687233" lon="11.7505478"><ele>458.49999999999994</ele><time>2026-04-18T13:15:10.484Z</time></trkpt><trkpt lat="43.6873128" lon="11.7506476"><ele>459.0</ele><time>2026-04-18T13:15:11.487Z</time></trkpt><trkpt lat="43.6873694" lon="11.7507219"><ele>459.5</ele><time>2026-04-18T13:15:12.494Z</time></trkpt><trkpt lat="43.6874394" lon="11.7507465"><ele>460.0</ele><time>2026-04-18T13:15:13.475Z</time></trkpt><trkpt lat="43.6875082" lon="11.7507063"><ele>460.49999999999994</ele><time>2026-04-18T13:15:14.475Z</time></trkpt><trkpt lat="43.6875782" lon="11.7506086"><ele>461.0</ele><time>2026-04-18T13:15:15.485Z</time></trkpt><trkpt lat="43.6876316" lon="11.7504603"><ele>461.0</ele><time>2026-04-18T13:15:16.488Z</time></trkpt><trkpt lat="43.6876686" lon="11.7502818"><ele>461.0</ele><time>2026-04-18T13:15:17.483Z</time></trkpt><trkpt lat="43.6876914" lon="11.7500889"><ele>461.0</ele><time>2026-04-18T13:15:18.483Z</time></trkpt><trkpt lat="43.6877123" lon="11.7499016"><ele>461.0</ele><time>2026-04-18T13:15:19.486Z</time></trkpt><trkpt lat="43.6877366" lon="11.7497227"><ele>460.75</ele><time>2026-04-18T13:15:20.485Z</time></trkpt><trkpt lat="43.687795" lon="11.749569"><ele>460.5</ele><time>2026-04-18T13:15:21.473Z</time></trkpt><trkpt lat="43.6878652" lon="11.7494429"><ele>460.25</ele><time>2026-04-18T13:15:22.482Z</time></trkpt><trkpt lat="43.6879416" lon="11.7493287"><ele>460.0</ele><time>2026-04-18T13:15:23.481Z</time></trkpt><trkpt lat="43.6880189" lon="11.7492272"><ele>463.25</ele><time>2026-04-18T13:15:24.481Z</time></trkpt><trkpt lat="43.6881215" lon="11.7491626"><ele>466.5</ele><time>2026-04-18T13:15:25.475Z</time></trkpt><trkpt lat="43.6882215" lon="11.7491023"><ele>469.75</ele><time>2026-04-18T13:15:26.486Z</time></trkpt><trkpt lat="43.6883382" lon="11.7490466"><ele>473.0</ele><time>2026-04-18T13:15:27.482Z</time></trkpt><trkpt lat="43.6884471" lon="11.748991"><ele>473.0</ele><time>2026-04-18T13:15:28.478Z</time></trkpt><trkpt lat="43.6885648" lon="11.7489402"><ele>473.0</ele><time>2026-04-18T13:15:29.472Z</time></trkpt><trkpt lat="43.6886832" lon="11.7488798"><ele>473.0</ele><time>2026-04-18T13:15:30.481Z</time></trkpt><trkpt lat="43.6888037" lon="11.7488184"><ele>473.0</ele><time>2026-04-18T13:15:31.483Z</time></trkpt><trkpt lat="43.6889211" lon="11.7487522"><ele>472.0</ele><time>2026-04-18T13:15:32.488Z</time></trkpt><trkpt lat="43.689027" lon="11.7487065"><ele>470.99999999999994</ele><time>2026-04-18T13:15:33.481Z</time></trkpt><trkpt lat="43.6891284" lon="11.7486707"><ele>469.99999999999994</ele><time>2026-04-18T13:15:34.475Z</time></trkpt><trkpt lat="43.6892226" lon="11.7486152"><ele>469.0</ele><time>2026-04-18T13:15:35.485Z</time></trkpt><trkpt lat="43.6893123" lon="11.7485504"><ele>468.0</ele><time>2026-04-18T13:15:36.489Z</time></trkpt><trkpt lat="43.6893995" lon="11.7484973"><ele>469.4</ele><time>2026-04-18T13:15:37.47Z</time></trkpt><trkpt lat="43.6895039" lon="11.748483"><ele>470.79999999999995</ele><time>2026-04-18T13:15:38.473Z</time></trkpt><trkpt lat="43.6895991" lon="11.7484897"><ele>472.2</ele><time>2026-04-18T13:15:39.473Z</time></trkpt><trkpt lat="43.6896963" lon="11.7485129"><ele>473.6</ele><time>2026-04-18T13:15:40.475Z</time></trkpt><trkpt lat="43.689779" lon="11.7485214"><ele>475.0</ele><time>2026-04-18T13:15:41.484Z</time></trkpt><trkpt lat="43.6898465" lon="11.7485059"><ele>475.0</ele><time>2026-04-18T13:15:42.482Z</time></trkpt><trkpt lat="43.6899139" lon="11.7484557"><ele>475.0</ele><time>2026-04-18T13:15:43.478Z</time></trkpt><trkpt lat="43.6899804" lon="11.7483808"><ele>475.0</ele><time>2026-04-18T13:15:44.491Z</time></trkpt><trkpt lat="43.6900547" lon="11.7482899"><ele>475.0</ele><time>2026-04-18T13:15:45.476Z</time></trkpt><trkpt lat="43.6901447" lon="11.7481943"><ele>475.0</ele><time>2026-04-18T13:15:46.476Z</time></trkpt><trkpt lat="43.6902377" lon="11.7481075"><ele>473.2</ele><time>2026-04-18T13:15:47.487Z</time></trkpt><trkpt lat="43.6903226" lon="11.7480131"><ele>471.4</ele><time>2026-04-18T13:15:48.484Z</time></trkpt><trkpt lat="43.6904034" lon="11.7479336"><ele>469.6</ele><time>2026-04-18T13:15:49.481Z</time></trkpt><trkpt lat="43.690472" lon="11.7478628"><ele>467.8</ele><time>2026-04-18T13:15:50.475Z</time></trkpt><trkpt lat="43.6905564" lon="11.7477963"><ele>466.0</ele><time>2026-04-18T13:15:51.483Z</time></trkpt><trkpt lat="43.6906553" lon="11.7477484"><ele>467.20000000000005</ele><time>2026-04-18T13:15:52.481Z</time></trkpt><trkpt lat="43.6907638" lon="11.7477034"><ele>468.40000000000003</ele><time>2026-04-18T13:15:53.477Z</time></trkpt><trkpt lat="43.6908624" lon="11.7476472"><ele>469.6</ele><time>2026-04-18T13:15:54.481Z</time></trkpt><trkpt lat="43.6909454" lon="11.7475803"><ele>470.8</ele><time>2026-04-18T13:15:55.482Z</time></trkpt><trkpt lat="43.691026" lon="11.7474965"><ele>472.0</ele><time>2026-04-18T13:15:56.477Z</time></trkpt><trkpt lat="43.6910926" lon="11.7474004"><ele>472.00000000000006</ele><time>2026-04-18T13:15:57.479Z</time></trkpt><trkpt lat="43.691145" lon="11.7473104"><ele>472.0</ele><time>2026-04-18T13:15:58.475Z</time></trkpt><trkpt lat="43.6911872" lon="11.7472158"><ele>472.0</ele><time>2026-04-18T13:15:59.474Z</time></trkpt><trkpt lat="43.6912118" lon="11.747126"><ele>472.0</ele><time>2026-04-18T13:16:00.475Z</time></trkpt><trkpt lat="43.6912333" lon="11.7470286"><ele>472.00000000000006</ele><time>2026-04-18T13:16:01.488Z</time></trkpt><trkpt lat="43.6912601" lon="11.7469245"><ele>472.0</ele><time>2026-04-18T13:16:02.483Z</time></trkpt><trkpt lat="43.6912905" lon="11.7468209"><ele>474.40000000000003</ele><time>2026-04-18T13:16:03.484Z</time></trkpt><trkpt lat="43.6913243" lon="11.7467076"><ele>476.80000000000007</ele><time>2026-04-18T13:16:04.489Z</time></trkpt><trkpt lat="43.6913752" lon="11.7466105"><ele>479.2</ele><time>2026-04-18T13:16:05.484Z</time></trkpt><trkpt lat="43.6914494" lon="11.746514"><ele>481.6</ele><time>2026-04-18T13:16:06.498Z</time></trkpt><trkpt lat="43.6915303" lon="11.7464034"><ele>484.0</ele><time>2026-04-18T13:16:07.47Z</time></trkpt><trkpt lat="43.6916055" lon="11.7462875"><ele>484.0</ele><time>2026-04-18T13:16:08.484Z</time></trkpt><trkpt lat="43.6916827" lon="11.7461687"><ele>484.0</ele><time>2026-04-18T13:16:09.477Z</time></trkpt><trkpt lat="43.6917488" lon="11.7460512"><ele>484.0</ele><time>2026-04-18T13:16:10.473Z</time></trkpt><trkpt lat="43.6918111" lon="11.745949"><ele>484.0</ele><time>2026-04-18T13:16:11.473Z</time></trkpt><trkpt lat="43.6918609" lon="11.7458427"><ele>484.0</ele><time>2026-04-18T13:16:12.477Z</time></trkpt><trkpt lat="43.6918927" lon="11.7457285"><ele>485.2</ele><time>2026-04-18T13:16:13.477Z</time></trkpt><trkpt lat="43.6918946" lon="11.7456014"><ele>486.4</ele><time>2026-04-18T13:16:14.482Z</time></trkpt><trkpt lat="43.6918727" lon="11.7454882"><ele>487.6</ele><time>2026-04-18T13:16:15.475Z</time></trkpt><trkpt lat="43.6918634" lon="11.745357"><ele>488.8</ele><time>2026-04-18T13:16:16.477Z</time></trkpt><trkpt lat="43.6918884" lon="11.7452174"><ele>490.0</ele><time>2026-04-18T13:16:17.477Z</time></trkpt><trkpt lat="43.6919123" lon="11.7451145"><ele>490.2857142857143</ele><time>2026-04-18T13:16:18.476Z</time></trkpt><trkpt lat="43.691927" lon="11.7450235"><ele>490.57142857142856</ele><time>2026-04-18T13:16:19.483Z</time></trkpt><trkpt lat="43.6919517" lon="11.7449132"><ele>490.8571428571429</ele><time>2026-04-18T13:16:21.478Z</time></trkpt><trkpt lat="43.6919234" lon="11.7448324"><ele>491.14285714285717</ele><time>2026-04-18T13:16:33.469Z</time></trkpt><trkpt lat="43.6918496" lon="11.7448367"><ele>491.42857142857144</ele><time>2026-04-18T13:16:35.473Z</time></trkpt><trkpt lat="43.6917857" lon="11.7448552"><ele>491.7142857142858</ele><time>2026-04-18T13:16:36.477Z</time></trkpt><trkpt lat="43.6917186" lon="11.7448884"><ele>492.00000000000006</ele><time>2026-04-18T13:16:37.476Z</time></trkpt><trkpt lat="43.6916355" lon="11.7449201"><ele>494.20000000000005</ele><time>2026-04-18T13:16:38.488Z</time></trkpt><trkpt lat="43.6915419" lon="11.7449636"><ele>496.40000000000003</ele><time>2026-04-18T13:16:39.479Z</time></trkpt><trkpt lat="43.6914546" lon="11.7450029"><ele>498.59999999999997</ele><time>2026-04-18T13:16:40.478Z</time></trkpt><trkpt lat="43.6913763" lon="11.745051"><ele>500.79999999999995</ele><time>2026-04-18T13:16:41.481Z</time></trkpt><trkpt lat="43.6913164" lon="11.7450843"><ele>503.0</ele><time>2026-04-18T13:16:42.486Z</time></trkpt><trkpt lat="43.691207" lon="11.7451274"><ele>502.99999999999994</ele><time>2026-04-18T13:16:44.479Z</time></trkpt><trkpt lat="43.6911408" lon="11.7451045"><ele>503.0</ele><time>2026-04-18T13:16:45.477Z</time></trkpt><trkpt lat="43.6910766" lon="11.7450612"><ele>503.0</ele><time>2026-04-18T13:16:46.479Z</time></trkpt><trkpt lat="43.6910283" lon="11.7449934"><ele>503.0</ele><time>2026-04-18T13:16:47.473Z</time></trkpt><trkpt lat="43.6909881" lon="11.7448938"><ele>502.99999999999994</ele><time>2026-04-18T13:16:48.473Z</time></trkpt><trkpt lat="43.6909711" lon="11.7447787"><ele>503.0</ele><time>2026-04-18T13:16:49.477Z</time></trkpt><trkpt lat="43.6909553" lon="11.7446725"><ele>504.49999999999994</ele><time>2026-04-18T13:16:50.488Z</time></trkpt><trkpt lat="43.6909535" lon="11.7445468"><ele>506.0</ele><time>2026-04-18T13:16:52.48Z</time></trkpt><trkpt lat="43.690958" lon="11.7444212"><ele>507.5</ele><time>2026-04-18T13:17:28.478Z</time></trkpt><trkpt lat="43.6909514" lon="11.7443216"><ele>509.0</ele><time>2026-04-18T13:17:29.485Z</time></trkpt><trkpt lat="43.6909463" lon="11.7442267"><ele>510.49999999999994</ele><time>2026-04-18T13:17:30.484Z</time></trkpt><trkpt lat="43.6909389" lon="11.7441217"><ele>512.0</ele><time>2026-04-18T13:17:31.485Z</time></trkpt><trkpt lat="43.6909403" lon="11.7440089"><ele>514.75</ele><time>2026-04-18T13:17:32.474Z</time></trkpt><trkpt lat="43.690944" lon="11.7438611"><ele>517.5</ele><time>2026-04-18T13:17:33.479Z</time></trkpt><trkpt lat="43.690945" lon="11.7437075"><ele>520.25</ele><time>2026-04-18T13:17:34.474Z</time></trkpt><trkpt lat="43.6909657" lon="11.743558"><ele>523.0</ele><time>2026-04-18T13:17:35.484Z</time></trkpt><trkpt lat="43.6909932" lon="11.743385"><ele>525.25</ele><time>2026-04-18T13:17:36.475Z</time></trkpt><trkpt lat="43.6910445" lon="11.7432184"><ele>527.5</ele><time>2026-04-18T13:17:37.486Z</time></trkpt><trkpt lat="43.691117" lon="11.7430436"><ele>529.75</ele><time>2026-04-18T13:17:38.474Z</time></trkpt><trkpt lat="43.6911843" lon="11.7428721"><ele>532.0</ele><time>2026-04-18T13:17:39.473Z</time></trkpt><trkpt lat="43.6912153" lon="11.742705"><ele>533.5</ele><time>2026-04-18T13:17:40.478Z</time></trkpt><trkpt lat="43.6912021" lon="11.7425242"><ele>535.0</ele><time>2026-04-18T13:17:41.478Z</time></trkpt><trkpt lat="43.6911301" lon="11.7423785"><ele>536.5</ele><time>2026-04-18T13:17:42.484Z</time></trkpt><trkpt lat="43.6910341" lon="11.7422885"><ele>538.0</ele><time>2026-04-18T13:17:43.483Z</time></trkpt><trkpt lat="43.6909158" lon="11.7422249"><ele>538.0</ele><time>2026-04-18T13:17:44.473Z</time></trkpt><trkpt lat="43.6907953" lon="11.7422423"><ele>538.0</ele><time>2026-04-18T13:17:45.479Z</time></trkpt><trkpt lat="43.6907046" lon="11.7423158"><ele>538.0</ele><time>2026-04-18T13:17:46.478Z</time></trkpt><trkpt lat="43.6906299" lon="11.742401"><ele>538.0</ele><time>2026-04-18T13:17:47.483Z</time></trkpt><trkpt lat="43.6905478" lon="11.7424539"><ele>538.0</ele><time>2026-04-18T13:17:48.473Z</time></trkpt><trkpt lat="43.6904802" lon="11.7424634"><ele>538.0</ele><time>2026-04-18T13:17:49.48Z</time></trkpt><trkpt lat="43.6904006" lon="11.7424276"><ele>538.0</ele><time>2026-04-18T13:17:50.475Z</time></trkpt><trkpt lat="43.6903323" lon="11.7423692"><ele>538.0</ele><time>2026-04-18T13:17:51.476Z</time></trkpt><trkpt lat="43.6902483" lon="11.7422798"><ele>538.0</ele><time>2026-04-18T13:17:52.475Z</time></trkpt><trkpt lat="43.6901506" lon="11.7421898"><ele>538.0</ele><time>2026-04-18T13:17:53.482Z</time></trkpt><trkpt lat="43.6900452" lon="11.7421069"><ele>540.0</ele><time>2026-04-18T13:17:54.475Z</time></trkpt><trkpt lat="43.6899407" lon="11.7420426"><ele>542.0</ele><time>2026-04-18T13:17:55.477Z</time></trkpt><trkpt lat="43.6898409" lon="11.7420478"><ele>544.0</ele><time>2026-04-18T13:17:56.478Z</time></trkpt><trkpt lat="43.6897384" lon="11.7421279"><ele>546.0</ele><time>2026-04-18T13:17:57.48Z</time></trkpt><trkpt lat="43.6896458" lon="11.7422561"><ele>546.0</ele><time>2026-04-18T13:17:58.481Z</time></trkpt><trkpt lat="43.6895718" lon="11.7423526"><ele>546.0</ele><time>2026-04-18T13:17:59.482Z</time></trkpt><trkpt lat="43.6894882" lon="11.7424178"><ele>546.0</ele><time>2026-04-18T13:18:00.48Z</time></trkpt><trkpt lat="43.6893742" lon="11.7424148"><ele>546.0</ele><time>2026-04-18T13:18:01.466Z</time></trkpt><trkpt lat="43.6892508" lon="11.7423998"><ele>546.0</ele><time>2026-04-18T13:18:02.487Z</time></trkpt><trkpt lat="43.6891117" lon="11.7423616"><ele>548.0</ele><time>2026-04-18T13:18:03.475Z</time></trkpt><trkpt lat="43.6889853" lon="11.7423164"><ele>550.0</ele><time>2026-04-18T13:18:04.478Z</time></trkpt><trkpt lat="43.6888837" lon="11.7422367"><ele>552.0</ele><time>2026-04-18T13:18:05.485Z</time></trkpt><trkpt lat="43.6887844" lon="11.7421209"><ele>554.0</ele><time>2026-04-18T13:18:06.478Z</time></trkpt><trkpt lat="43.68869" lon="11.7419922"><ele>557.25</ele><time>2026-04-18T13:18:07.468Z</time></trkpt><trkpt lat="43.6885899" lon="11.7419288"><ele>560.5</ele><time>2026-04-18T13:18:08.479Z</time></trkpt><trkpt lat="43.6884803" lon="11.7419393"><ele>563.75</ele><time>2026-04-18T13:18:09.48Z</time></trkpt><trkpt lat="43.6883714" lon="11.7420019"><ele>567.0</ele><time>2026-04-18T13:18:10.476Z</time></trkpt><trkpt lat="43.6882618" lon="11.7420849"><ele>567.0</ele><time>2026-04-18T13:18:11.48Z</time></trkpt><trkpt lat="43.6881984" lon="11.7422248"><ele>567.0</ele><time>2026-04-18T13:18:12.484Z</time></trkpt><trkpt lat="43.6881671" lon="11.7423815"><ele>567.0</ele><time>2026-04-18T13:18:13.473Z</time></trkpt><trkpt lat="43.6882164" lon="11.7425863"><ele>567.0</ele><time>2026-04-18T13:18:14.484Z</time></trkpt><trkpt lat="43.6882956" lon="11.7428157"><ele>567.0</ele><time>2026-04-18T13:18:15.472Z</time></trkpt><trkpt lat="43.6883399" lon="11.7430402"><ele>567.0</ele><time>2026-04-18T13:18:16.475Z</time></trkpt><trkpt lat="43.6883632" lon="11.7432244"><ele>567.0</ele><time>2026-04-18T13:18:17.485Z</time></trkpt><trkpt lat="43.6883687" lon="11.7433841"><ele>567.0</ele><time>2026-04-18T13:18:18.474Z</time></trkpt><trkpt lat="43.6883132" lon="11.7435097"><ele>567.0</ele><time>2026-04-18T13:18:19.471Z</time></trkpt><trkpt lat="43.6882298" lon="11.7435928"><ele>567.0</ele><time>2026-04-18T13:18:20.484Z</time></trkpt><trkpt lat="43.6881249" lon="11.7436358"><ele>567.0</ele><time>2026-04-18T13:18:21.469Z</time></trkpt><trkpt lat="43.6880043" lon="11.7436319"><ele>567.0</ele><time>2026-04-18T13:18:22.481Z</time></trkpt><trkpt lat="43.6879144" lon="11.7435668"><ele>567.0</ele><time>2026-04-18T13:18:23.471Z</time></trkpt><trkpt lat="43.6878434" lon="11.7434435"><ele>567.0</ele><time>2026-04-18T13:18:24.489Z</time></trkpt><trkpt lat="43.6878038" lon="11.7432843"><ele>567.0</ele><time>2026-04-18T13:18:25.468Z</time></trkpt><trkpt lat="43.6877572" lon="11.7431126"><ele>567.0</ele><time>2026-04-18T13:18:26.467Z</time></trkpt><trkpt lat="43.6877096" lon="11.7429244"><ele>567.0</ele><time>2026-04-18T13:18:27.487Z</time></trkpt><trkpt lat="43.6876455" lon="11.7427293"><ele>567.6666666666666</ele><time>2026-04-18T13:18:28.465Z</time></trkpt><trkpt lat="43.687574" lon="11.7425087"><ele>568.3333333333333</ele><time>2026-04-18T13:18:29.489Z</time></trkpt><trkpt lat="43.6874899" lon="11.7422911"><ele>569.0</ele><time>2026-04-18T13:18:30.484Z</time></trkpt><trkpt lat="43.6874018" lon="11.7420778"><ele>573.6666666666666</ele><time>2026-04-18T13:18:31.473Z</time></trkpt><trkpt lat="43.6873057" lon="11.7418731"><ele>578.3333333333334</ele><time>2026-04-18T13:18:32.482Z</time></trkpt><trkpt lat="43.6872186" lon="11.741685"><ele>583.0</ele><time>2026-04-18T13:18:33.473Z</time></trkpt><trkpt lat="43.6871314" lon="11.7415058"><ele>583.0</ele><time>2026-04-18T13:18:34.469Z</time></trkpt><trkpt lat="43.6870414" lon="11.7413487"><ele>583.0</ele><time>2026-04-18T13:18:35.468Z</time></trkpt><trkpt lat="43.6869328" lon="11.7412111"><ele>583.0</ele><time>2026-04-18T13:18:36.469Z</time></trkpt><trkpt lat="43.6868058" lon="11.7411193"><ele>583.0</ele><time>2026-04-18T13:18:37.472Z</time></trkpt><trkpt lat="43.6866733" lon="11.7410477"><ele>582.75</ele><time>2026-04-18T13:18:38.478Z</time></trkpt><trkpt lat="43.6865652" lon="11.7409639"><ele>582.5</ele><time>2026-04-18T13:18:39.475Z</time></trkpt><trkpt lat="43.6864782" lon="11.740835"><ele>582.25</ele><time>2026-04-18T13:18:40.468Z</time></trkpt><trkpt lat="43.6864336" lon="11.7406813"><ele>582.0</ele><time>2026-04-18T13:18:41.485Z</time></trkpt><trkpt lat="43.686416" lon="11.7405392"><ele>582.0</ele><time>2026-04-18T13:18:42.465Z</time></trkpt><trkpt lat="43.6864341" lon="11.740409"><ele>582.0</ele><time>2026-04-18T13:18:43.474Z</time></trkpt><trkpt lat="43.6864821" lon="11.7402973"><ele>582.0</ele><time>2026-04-18T13:18:44.484Z</time></trkpt><trkpt lat="43.6865229" lon="11.740176"><ele>582.0</ele><time>2026-04-18T13:18:45.478Z</time></trkpt><trkpt lat="43.6865779" lon="11.7400486"><ele>582.0</ele><time>2026-04-18T13:18:46.474Z</time></trkpt><trkpt lat="43.686644" lon="11.7399279"><ele>582.0</ele><time>2026-04-18T13:18:47.475Z</time></trkpt><trkpt lat="43.6867249" lon="11.7398146"><ele>582.0</ele><time>2026-04-18T13:18:48.474Z</time></trkpt><trkpt lat="43.6868071" lon="11.7396984"><ele>582.0</ele><time>2026-04-18T13:18:49.472Z</time></trkpt><trkpt lat="43.6868879" lon="11.7395792"><ele>582.0</ele><time>2026-04-18T13:18:50.48Z</time></trkpt><trkpt lat="43.6869677" lon="11.7394923"><ele>584.1428571428571</ele><time>2026-04-18T13:18:51.485Z</time></trkpt><trkpt lat="43.687024" lon="11.7394187"><ele>586.2857142857142</ele><time>2026-04-18T13:18:52.47Z</time></trkpt><trkpt lat="43.6870716" lon="11.7393557"><ele>588.4285714285714</ele><time>2026-04-18T13:18:53.483Z</time></trkpt><trkpt lat="43.687112" lon="11.7392723"><ele>590.5714285714286</ele><time>2026-04-18T13:18:55.485Z</time></trkpt><trkpt lat="43.6871477" lon="11.7391964"><ele>592.7142857142858</ele><time>2026-04-18T13:18:58.47Z</time></trkpt><trkpt lat="43.6871481" lon="11.7391022"><ele>594.8571428571429</ele><time>2026-04-18T13:19:02.47Z</time></trkpt><trkpt lat="43.6871207" lon="11.7389813"><ele>597.0</ele><time>2026-04-18T13:19:05.471Z</time></trkpt><trkpt lat="43.687083" lon="11.7388552"><ele>598.4</ele><time>2026-04-18T13:19:07.475Z</time></trkpt><trkpt lat="43.6870286" lon="11.73874"><ele>599.8000000000001</ele><time>2026-04-18T13:19:09.478Z</time></trkpt><trkpt lat="43.6869737" lon="11.7385885"><ele>601.2</ele><time>2026-04-18T13:19:11.474Z</time></trkpt><trkpt lat="43.6869377" lon="11.738493"><ele>602.6</ele><time>2026-04-18T13:19:12.467Z</time></trkpt><trkpt lat="43.6869038" lon="11.738382"><ele>604.0</ele><time>2026-04-18T13:19:13.472Z</time></trkpt><trkpt lat="43.686868" lon="11.7382615"><ele>602.6</ele><time>2026-04-18T13:19:14.462Z</time></trkpt><trkpt lat="43.6868418" lon="11.738128"><ele>601.2</ele><time>2026-04-18T13:19:15.461Z</time></trkpt><trkpt lat="43.6868171" lon="11.7379933"><ele>599.8000000000001</ele><time>2026-04-18T13:19:16.462Z</time></trkpt><trkpt lat="43.6868019" lon="11.737861"><ele>598.4</ele><time>2026-04-18T13:19:17.463Z</time></trkpt><trkpt lat="43.6867829" lon="11.7377377"><ele>597.0</ele><time>2026-04-18T13:19:18.462Z</time></trkpt><trkpt lat="43.6867852" lon="11.737621"><ele>597.0</ele><time>2026-04-18T13:19:19.46Z</time></trkpt><trkpt lat="43.68681" lon="11.7375038"><ele>597.0</ele><time>2026-04-18T13:19:20.463Z</time></trkpt><trkpt lat="43.6868377" lon="11.7373855"><ele>597.0</ele><time>2026-04-18T13:19:21.457Z</time></trkpt><trkpt lat="43.6868713" lon="11.7372656"><ele>597.0</ele><time>2026-04-18T13:19:22.463Z</time></trkpt><trkpt lat="43.6869156" lon="11.7371622"><ele>597.0</ele><time>2026-04-18T13:19:23.463Z</time></trkpt><trkpt lat="43.6869488" lon="11.7370819"><ele>597.0</ele><time>2026-04-18T13:19:24.469Z</time></trkpt><trkpt lat="43.6869855" lon="11.7370089"><ele>598.2</ele><time>2026-04-18T13:19:25.459Z</time></trkpt><trkpt lat="43.6870189" lon="11.7369044"><ele>599.4000000000001</ele><time>2026-04-18T13:19:27.476Z</time></trkpt><trkpt lat="43.6870138" lon="11.7367779"><ele>600.5999999999999</ele><time>2026-04-18T13:19:29.464Z</time></trkpt><trkpt lat="43.6870065" lon="11.7366418"><ele>601.8</ele><time>2026-04-18T13:19:31.462Z</time></trkpt><trkpt lat="43.6869735" lon="11.7365399"><ele>603.0</ele><time>2026-04-18T13:19:33.458Z</time></trkpt><trkpt lat="43.6868949" lon="11.7363878"><ele>603.0</ele><time>2026-04-18T13:19:35.466Z</time></trkpt><trkpt lat="43.6868276" lon="11.7362591"><ele>603.0</ele><time>2026-04-18T13:19:36.466Z</time></trkpt><trkpt lat="43.6867627" lon="11.7361237"><ele>603.0</ele><time>2026-04-18T13:19:37.462Z</time></trkpt><trkpt lat="43.6867208" lon="11.7360218"><ele>603.0</ele><time>2026-04-18T13:19:38.465Z</time></trkpt><trkpt lat="43.6866719" lon="11.7359544"><ele>603.0</ele><time>2026-04-18T13:19:39.467Z</time></trkpt><trkpt lat="43.686622" lon="11.7358731"><ele>605.6666666666666</ele><time>2026-04-18T13:19:40.467Z</time></trkpt><trkpt lat="43.6865795" lon="11.7357899"><ele>608.3333333333334</ele><time>2026-04-18T13:19:41.46Z</time></trkpt><trkpt lat="43.6865356" lon="11.7357019"><ele>611.0</ele><time>2026-04-18T13:19:42.461Z</time></trkpt><trkpt lat="43.6864845" lon="11.7356066"><ele>613.6666666666667</ele><time>2026-04-18T13:19:43.474Z</time></trkpt><trkpt lat="43.6864334" lon="11.7355005"><ele>616.3333333333334</ele><time>2026-04-18T13:19:44.46Z</time></trkpt><trkpt lat="43.6863784" lon="11.7353846"><ele>619.0</ele><time>2026-04-18T13:19:45.469Z</time></trkpt><trkpt lat="43.6863429" lon="11.735265"><ele>621.0</ele><time>2026-04-18T13:19:46.474Z</time></trkpt><trkpt lat="43.6863241" lon="11.7351416"><ele>623.0</ele><time>2026-04-18T13:19:47.465Z</time></trkpt><trkpt lat="43.6863275" lon="11.735025"><ele>625.0</ele><time>2026-04-18T13:19:48.467Z</time></trkpt><trkpt lat="43.6863536" lon="11.7349032"><ele>627.0</ele><time>2026-04-18T13:19:49.477Z</time></trkpt><trkpt lat="43.6864048" lon="11.7348002"><ele>629.0</ele><time>2026-04-18T13:19:50.46Z</time></trkpt><trkpt lat="43.6864641" lon="11.7346827"><ele>629.0</ele><time>2026-04-18T13:19:51.464Z</time></trkpt><trkpt lat="43.6865206" lon="11.7345466"><ele>629.0</ele><time>2026-04-18T13:19:52.462Z</time></trkpt><trkpt lat="43.6865777" lon="11.7343848"><ele>629.0</ele><time>2026-04-18T13:19:53.468Z</time></trkpt><trkpt lat="43.6866437" lon="11.7342304"><ele>629.0</ele><time>2026-04-18T13:19:54.456Z</time></trkpt><trkpt lat="43.6867114" lon="11.7340964"><ele>629.2</ele><time>2026-04-18T13:19:55.469Z</time></trkpt><trkpt lat="43.6867661" lon="11.7339697"><ele>629.4</ele><time>2026-04-18T13:19:56.463Z</time></trkpt><trkpt lat="43.6868108" lon="11.7338362"><ele>629.6</ele><time>2026-04-18T13:19:57.486Z</time></trkpt><trkpt lat="43.6868455" lon="11.7337057"><ele>629.8</ele><time>2026-04-18T13:19:58.469Z</time></trkpt><trkpt lat="43.6868522" lon="11.7335776"><ele>630.0</ele><time>2026-04-18T13:19:59.475Z</time></trkpt><trkpt lat="43.6868378" lon="11.733432"><ele>631.25</ele><time>2026-04-18T13:20:00.46Z</time></trkpt><trkpt lat="43.6868037" lon="11.7332863"><ele>632.5</ele><time>2026-04-18T13:20:01.458Z</time></trkpt><trkpt lat="43.6867474" lon="11.7331274"><ele>633.75</ele><time>2026-04-18T13:20:02.475Z</time></trkpt><trkpt lat="43.6866727" lon="11.7329692"><ele>635.0</ele><time>2026-04-18T13:20:03.469Z</time></trkpt><trkpt lat="43.6865876" lon="11.7328018"><ele>638.75</ele><time>2026-04-18T13:20:04.477Z</time></trkpt><trkpt lat="43.6865" lon="11.7326434"><ele>642.5</ele><time>2026-04-18T13:20:05.469Z</time></trkpt><trkpt lat="43.6863984" lon="11.7324929"><ele>646.25</ele><time>2026-04-18T13:20:06.465Z</time></trkpt><trkpt lat="43.6863024" lon="11.7323568"><ele>650.0</ele><time>2026-04-18T13:20:07.467Z</time></trkpt><trkpt lat="43.686224" lon="11.7322276"><ele>650.0</ele><time>2026-04-18T13:20:08.477Z</time></trkpt><trkpt lat="43.6861622" lon="11.7321034"><ele>650.0</ele><time>2026-04-18T13:20:09.475Z</time></trkpt><trkpt lat="43.6861316" lon="11.7319822"><ele>650.0</ele><time>2026-04-18T13:20:10.476Z</time></trkpt><trkpt lat="43.6861227" lon="11.7318561"><ele>650.0</ele><time>2026-04-18T13:20:11.475Z</time></trkpt><trkpt lat="43.6861468" lon="11.7317472"><ele>650.0</ele><time>2026-04-18T13:20:12.483Z</time></trkpt><trkpt lat="43.6861913" lon="11.7316254"><ele>652.0</ele><time>2026-04-18T13:20:13.488Z</time></trkpt><trkpt lat="43.6862444" lon="11.7314901"><ele>654.0</ele><time>2026-04-18T13:20:14.471Z</time></trkpt><trkpt lat="43.6863038" lon="11.7313369"><ele>656.0</ele><time>2026-04-18T13:20:15.483Z</time></trkpt><trkpt lat="43.6863693" lon="11.7311718"><ele>658.0</ele><time>2026-04-18T13:20:16.484Z</time></trkpt><trkpt lat="43.6864319" lon="11.7310031"><ele>658.0</ele><time>2026-04-18T13:20:17.475Z</time></trkpt><trkpt lat="43.6865029" lon="11.7308524"><ele>658.0</ele><time>2026-04-18T13:20:18.476Z</time></trkpt><trkpt lat="43.6865872" lon="11.7306962"><ele>658.0</ele><time>2026-04-18T13:20:19.48Z</time></trkpt><trkpt lat="43.6866759" lon="11.7305685"><ele>658.0</ele><time>2026-04-18T13:20:20.466Z</time></trkpt><trkpt lat="43.6867524" lon="11.7304314"><ele>658.0</ele><time>2026-04-18T13:20:21.478Z</time></trkpt><trkpt lat="43.6868095" lon="11.730266"><ele>658.0</ele><time>2026-04-18T13:20:22.473Z</time></trkpt><trkpt lat="43.6868565" lon="11.7300505"><ele>658.0</ele><time>2026-04-18T13:20:23.472Z</time></trkpt><trkpt lat="43.6869013" lon="11.729832"><ele>661.75</ele><time>2026-04-18T13:20:24.474Z</time></trkpt><trkpt lat="43.686945" lon="11.7296213"><ele>665.5</ele><time>2026-04-18T13:20:25.469Z</time></trkpt><trkpt lat="43.6869835" lon="11.7294326"><ele>669.25</ele><time>2026-04-18T13:20:26.479Z</time></trkpt><trkpt lat="43.6870051" lon="11.7292465"><ele>673.0</ele><time>2026-04-18T13:20:27.467Z</time></trkpt><trkpt lat="43.6870076" lon="11.7290735"><ele>673.0</ele><time>2026-04-18T13:20:28.481Z</time></trkpt><trkpt lat="43.687004" lon="11.7289142"><ele>673.0</ele><time>2026-04-18T13:20:29.477Z</time></trkpt><trkpt lat="43.6869991" lon="11.7287635"><ele>673.0</ele><time>2026-04-18T13:20:30.471Z</time></trkpt><trkpt lat="43.686991" lon="11.7286146"><ele>673.0</ele><time>2026-04-18T13:20:31.473Z</time></trkpt><trkpt lat="43.68697" lon="11.7284633"><ele>673.0</ele><time>2026-04-18T13:20:32.48Z</time></trkpt><trkpt lat="43.6869375" lon="11.7283191"><ele>670.75</ele><time>2026-04-18T13:20:33.481Z</time></trkpt><trkpt lat="43.6868887" lon="11.7281781"><ele>668.5</ele><time>2026-04-18T13:20:34.475Z</time></trkpt><trkpt lat="43.6868208" lon="11.7280513"><ele>666.25</ele><time>2026-04-18T13:20:35.474Z</time></trkpt><trkpt lat="43.6867226" lon="11.7279421"><ele>664.0</ele><time>2026-04-18T13:20:36.469Z</time></trkpt><trkpt lat="43.6866217" lon="11.7278818"><ele>664.0</ele><time>2026-04-18T13:20:37.488Z</time></trkpt><trkpt lat="43.6865177" lon="11.7278577"><ele>664.0</ele><time>2026-04-18T13:20:38.472Z</time></trkpt><trkpt lat="43.6864127" lon="11.7278629"><ele>664.0</ele><time>2026-04-18T13:20:39.481Z</time></trkpt><trkpt lat="43.6863224" lon="11.7278784"><ele>664.0</ele><time>2026-04-18T13:20:40.479Z</time></trkpt><trkpt lat="43.686259" lon="11.7278806"><ele>664.0</ele><time>2026-04-18T13:20:41.466Z</time></trkpt><trkpt lat="43.6861968" lon="11.7278615"><ele>664.0</ele><time>2026-04-18T13:20:42.475Z</time></trkpt><trkpt lat="43.6860908" lon="11.7278003"><ele>663.0</ele><time>2026-04-18T13:20:44.478Z</time></trkpt><trkpt lat="43.6860363" lon="11.7277551"><ele>662.0</ele><time>2026-04-18T13:20:45.481Z</time></trkpt><trkpt lat="43.6859751" lon="11.7276974"><ele>661.0</ele><time>2026-04-18T13:20:46.47Z</time></trkpt><trkpt lat="43.6859164" lon="11.7276397"><ele>660.0</ele><time>2026-04-18T13:20:47.482Z</time></trkpt><trkpt lat="43.6858597" lon="11.7275787"><ele>659.0</ele><time>2026-04-18T13:20:48.48Z</time></trkpt><trkpt lat="43.685802" lon="11.727513"><ele>658.0</ele><time>2026-04-18T13:20:49.475Z</time></trkpt><trkpt lat="43.6857148" lon="11.7274213"><ele>661.8</ele><time>2026-04-18T13:20:51.479Z</time></trkpt><trkpt lat="43.6856442" lon="11.7273317"><ele>665.5999999999999</ele><time>2026-04-18T13:20:53.472Z</time></trkpt><trkpt lat="43.6856138" lon="11.7272544"><ele>669.4000000000001</ele><time>2026-04-18T13:20:54.483Z</time></trkpt><trkpt lat="43.6855898" lon="11.7271681"><ele>673.2</ele><time>2026-04-18T13:20:55.482Z</time></trkpt><trkpt lat="43.685542" lon="11.7270191"><ele>677.0</ele><time>2026-04-18T13:20:57.475Z</time></trkpt><trkpt lat="43.6854917" lon="11.7268748"><ele>678.5</ele><time>2026-04-18T13:20:59.479Z</time></trkpt><trkpt lat="43.6854595" lon="11.7267692"><ele>680.0</ele><time>2026-04-18T13:21:00.471Z</time></trkpt><trkpt lat="43.6854305" lon="11.7266607"><ele>681.5</ele><time>2026-04-18T13:21:01.478Z</time></trkpt><trkpt lat="43.6854048" lon="11.7265468"><ele>683.0</ele><time>2026-04-18T13:21:02.474Z</time></trkpt><trkpt lat="43.6853886" lon="11.7264429"><ele>684.5</ele><time>2026-04-18T13:21:03.476Z</time></trkpt><trkpt lat="43.6853853" lon="11.7263419"><ele>686.0</ele><time>2026-04-18T13:21:04.46Z</time></trkpt><trkpt lat="43.6853867" lon="11.7262458"><ele>686.0</ele><time>2026-04-18T13:21:05.477Z</time></trkpt><trkpt lat="43.685381" lon="11.7260965"><ele>686.0</ele><time>2026-04-18T13:21:07.487Z</time></trkpt><trkpt lat="43.685369" lon="11.7259758"><ele>699.0</ele><time>2026-04-18T13:21:09.485Z</time></trkpt><trkpt lat="43.6853124" lon="11.7258953"><ele>699.0</ele><time>2026-04-18T13:21:12.468Z</time></trkpt><trkpt lat="43.6852674" lon="11.7258277"><ele>699.0</ele><time>2026-04-18T13:21:17.475Z</time></trkpt><trkpt lat="43.6851855" lon="11.7257775"><ele>692.0</ele><time>2026-04-18T13:24:02.475Z</time></trkpt></trkseg></trk></gpx>